     2.11           OBSERVATION DATA    G (GPS)             RINEX VERSION / TYPE
teqc 2010Oct21 OPUS Account 20111027 14:57:27UTC            PGM / RUN BY / DATE
N 1524                                                      MARKER NAME
1217                                                        MARKER NUMBER
CSMIDDLETON NGS                                             OBSERVER / AGENCY
0220390614 TRIMBLE R7 2.32                                  REC # / TYPE / VERS
12611996 TRM41249.00 NONE                                   ANT # / TYPE
  -760047.3111 -5531294.1898  3073250.3252                  APPROX POSITION XYZ
        2.0000        0.0000        0.0000                  ANTENNA: DELTA H/E/N
     1     1                                                WAVELENGTH FACT L1/2
     5    L1    L2    C1    P1    P2                        # / TYPES OF OBSERV
    15                                                      LEAP SECONDS
  2011     8    14     0     0   30.0000000     GPS         TIME OF FIRST OBS
                                                            END OF HEADER
 11  8 14  0  0 30.0000000  0  8G09G02G12G10G04G05G17G28
 -42357332.09057 -32955577.86755  22484792.0314                   22484792.3404
 -52437913.87958 -40810549.06656  20800083.5704                   20800079.8364
 -22345765.21557 -17369553.05955  22633530.9534                   22633528.8594
 -40164437.05958 -31252480.27055  21323685.5944                   21323684.1414
 -76110429.18458 -59111465.12556  20480576.5944                   20480574.6374
 -10423040.74257  -8077332.52754  23658490.2274                   23658492.4224
 -94777421.52057 -73808299.50055  22308861.3674                   22308859.6374
 -83932952.71556 -65404070.59053  23638058.0474                   23638057.6564
 11  8 14  0  1  0.0000000  0  8G09G02G12G10G04G05G17G28
 -42409631.62547 -32996330.78945  22474839.4774                   22474839.7464
 -52571818.50848 -40914890.29746  20774602.3204                   20774598.5314
 -22537065.71547 -17518618.35245  22597127.6094                   22597125.6724
 -40321179.90648 -31374617.49246  21293857.9924                   21293857.1914
 -76158865.39148 -59149207.61746  20471359.4614                   20471357.8364
 -10632063.93747  -8240207.46944  23618714.1094                   23618716.1254
 -94839304.46547 -73856519.99245  22297086.1024                   22297084.0004
 -83941765.45346 -65410937.69943  23636381.0554                   23636381.0514
 11  8 14  0  1 30.0000000  0  8G09G02G12G10G04G05G17G28
 -42461293.68747 -33036586.98845  22465008.9384                   22465009.1604
 -52705175.98048 -41018805.17246  20749224.9774                   20749221.0704
 -22727974.29747 -17667378.26245  22560798.5864                   22560796.2274
 -40477244.18448 -31496225.95746  21264160.2344                   21264159.0554
 -76206774.62948 -59186539.49646  20462242.8444                   20462241.0434
 -10840865.16847  -8402909.45344  23578980.8444                   23578982.0784
 -94900899.38348 -73904516.05145  22285364.8984                   22285362.7664
 -83950142.02346 -65417464.98843  23634787.2974                   23634787.3874
 11  8 14  0  2  0.0000000  0  8G09G02G12G10G04G05G17G28
 -42512337.32047 -33076361.30145  22455295.7974                   22455295.7974
 -52838003.28148 -41122306.91046  20723948.9384                   20723945.4574
 -22918504.63347 -17815843.44145  22524542.1334                   22524540.3444
 -40632643.27748 -31617316.10546  21234588.6254                   21234587.7464
 -76254175.50448 -59223475.23846  20453222.5634                   20453220.9534
 -11049458.10547  -8565449.12944  23539286.0314                   23539288.1644
 -94962221.95747 -73952299.89545  22273695.5234                   22273693.3444
 -83958100.75046 -65423666.67643  23633273.6174                   23633272.9184
 11  8 14  0  2 30.0000000  0  8G09G02G12G10G04G05G17G28
 -42562769.16447 -33115658.90245  22445699.0784                   22445699.3164
 -52970304.33248 -41225398.59846  20698772.8524                   20698769.1884
 -23108657.57047 -17964014.56245  22488357.0314                   22488355.2664
 -40787378.85248 -31737889.22345  21205143.3524                   21205141.9734
 -76301074.20748 -59260019.68746  20444297.9454                   20444296.1764
 -11257843.60247  -8727827.15244  23499631.6644                   23499633.3874
 -95023275.31247 -73999873.96945  22262077.3914                   22262075.6994
 -83965646.69946 -65429546.66443  23631837.3364                   23631837.4574
 11  8 14  0  3  0.0000000  0  8G09G02G12G10G04G05G17G28
 -41037175.92647 -31926885.01244  22736009.7504                   22736009.9264
 -51526660.29748 -40100481.13346  20973489.1884                   20973485.3954
 -21723009.49247 -16884288.77345  22752037.0634                   22752035.2304
 -39366028.22748 -30630343.24646  21475617.2274                   21475616.1994
 -74772056.78148 -58068577.53146  20735260.4144                   20735259.0434
  -9890597.15247  -7662440.03144  23759810.0004                   23759811.8444
 -93508642.29347 -72819640.46545  22550302.5944                   22550300.5864
 -82397366.68446 -64207510.45343  23930270.3284                   23930270.9184
 11  8 14  0  3 30.0000000  0  8G09G02G12G10G04G05G17G28
 -41086398.51647 -31965240.34445  22726643.0784                   22726643.1414
 -51657915.36748 -40202757.76246  20948511.9844                   20948508.2734
 -21912405.57447 -17031870.11345  22715995.9534                   22715994.7894
 -39519434.02748 -30749880.16846  21446425.5394                   21446423.7074
 -74817963.27048 -58104348.82846  20726524.5314                   20726523.2424
 -10098564.63347  -7824492.34044  23720233.9614                   23720236.4614
 -93569161.09447 -72866797.99645  22538786.2974                   22538784.1374
 -82404097.96546 -64212755.70343  23928989.3134                   23928989.9344
 11  8 14  0  4  0.0000000  0  8G09G02G12G10G04G05G17G28
 -41135014.98847 -32003123.38744  22717391.4844                   22717392.0984
 -51788642.28948 -40304622.85546  20923635.3834                   20923631.9264
 -22101413.73847 -17179149.19545  22680029.0164                   22680027.5044
 -39672165.27748 -30868891.49245  21417361.5164                   21417360.0204
 -74863371.48448 -58139731.85246  20717883.6644                   20717882.3014
 -10306312.87947  -7986373.80544  23680700.6644                   23680703.2114
 -93629405.99647 -72913742.11345  22527321.8444                   22527320.6564
 -82410418.86746 -64217681.09443  23927786.6094                   23927787.2734
 11  8 14  0  4 30.0000000  0  8G09G02G12G10G04G05G17G28
 -41183036.55947 -32040542.86744  22708253.4924                   22708253.7974
 -51918849.52048 -40406082.98846  20898858.0004                   20898854.5234
 -22290039.43447 -17326130.23045  22644135.1254                   22644133.1564
 -39824227.89148 -30987381.79346  21388424.7504                   21388423.6724
 -74908292.00448 -58174734.85246  20709335.7734                   20709333.9224
 -10513847.09447  -8148088.47744  23641208.3204                   23641210.5984
 -93689384.32447 -72960478.48445  22515908.4774                   22515906.6564
 -82416339.30946 -64222294.48043  23926660.7424                   23926661.0314
 11  8 14  0  5  0.0000000  0  8G09G02G12G10G04G05G17G28
 -41230468.49647 -32077502.89845  22699227.4774                   22699227.3284
 -52048539.75848 -40507140.26646  20874178.4304                   20874174.7774
 -22478281.83247 -17472812.59045  22608313.9224                   22608311.5434
 -39975621.41048 -31105350.71146  21359615.7274                   21359614.5864
 -74952729.07448 -58209361.13746  20700879.5864                   20700878.1914
 -10721166.91847  -8309636.13344  23601756.6254                   23601758.7934
 -93749098.01647 -73007008.65245  22504545.2424                   22504543.5554
 -82421863.39146 -64226599.07043  23925609.0004                   23925609.8714
 11  8 14  0  5 30.0000000  0  8G09G02G12G10G04G05G17G28
 -41277315.67647 -32114007.27744  22690312.5084                   22690312.8364
 -52177715.52748 -40607796.66446  20849597.1334                   20849593.8404
 -22666141.09447 -17619196.39845  22572565.1484                   22572563.7814
 -40126345.41048 -31222797.93746  21330933.9454                   21330932.5354
 -74996687.32048 -58243614.31646  20692514.7974                   20692513.3754
 -10928271.17647  -8471015.80544  23562346.1884                   23562347.8324
 -93808548.37547 -73053333.63345  22493231.8524                   22493230.4534
 -82426995.14546 -64230597.91443  23924633.4384                   23924633.3164
 11  8 14  0  6  0.0000000  0  8G09G02G12G10G04G05G17G28
 -41323583.78547 -32150060.41844  22681508.1254                   22681508.6214
 -52306380.30148 -40708054.88746  20825112.9774                   20825109.4024
 -22853617.31247 -17765281.73045  22536889.4844                   22536887.6524
 -40276400.44948 -31339723.89846  21302378.9384                   21302377.8404
 -75040171.92248 -58277498.41846  20684239.7114                   20684238.3674
 -11135159.89847  -8632227.53145  23522976.2344                   23522977.9884
 -93867737.73447 -73099455.21945  22481968.5474                   22481967.3984
 -82431738.74646 -64234294.30944  23923730.0944                   23923730.9224
 11  8 14  0  6 30.0000000  0  8G09G02G12G10G04G05G17G28
 -41369278.48047 -32185666.75445  22672812.5944                   22672813.2274
 -52434536.25448 -40807916.62546  20800725.8674                   20800722.0664
 -23040709.76247 -17911068.01645  22501286.7974                   22501285.1994
 -40425786.13348 -31456128.28946  21273952.2114                   21273950.6644
 -75083187.32048 -58311016.90246  20676054.0784                   20676052.6484
 -11341832.19947  -8793270.62145  23483647.2034                   23483649.3954
 -93926667.73847 -73145374.72745  22470754.7194                   22470753.4414
 -82436098.49646 -64237691.58243  23922900.0864                   23922901.3554
 11  8 14  0  7  0.0000000  0  8G09G02G12G10G04G05G17G28
 -41414402.07847 -32220828.07444  22664226.2424                   22664226.5394
 -52562183.65648 -40907382.09846  20776435.3134                   20776431.5784
 -23227415.56247 -18056553.00845  22465758.1804                   22465755.6524
 -40574499.66448 -31572008.91846  21245652.7814                   21245651.3164
 -75125735.48048 -58344171.31646  20667957.5704                   20667956.2974
 -11548284.64547  -8954142.40645  23444360.3914                   23444362.4804
 -93985337.26247 -73191091.24245  22459591.0554                   22459588.9534
 -82440075.77346 -64240790.82443  23922143.3524                   23922145.0554
 11  8 14  0  7 30.0000000  0  8G09G02G12G10G04G05G17G28
 -41458962.88747 -32255550.85245  22655746.6174                   22655747.2734
 -52689328.53548 -41006455.98846  20752240.4304                   20752236.4104
 -23413737.94547 -18201739.23445  22430301.8444                   22430299.9924
 -40722544.20748 -31687368.26246  21217480.8204                   21217479.6094
 -75167824.36748 -58376967.84046  20659948.4614                   20659946.9614
 -11754520.00047  -9114845.05145  23405115.1644                   23405116.9844
 -94043751.32447 -73236608.69545  22448474.6724                   22448473.4064
 -82443677.78946 -64243597.73443  23921458.5634                   23921459.4574
 11  8 14  0  8  0.0000000  0  8G09G02G12G10G04G05G17G28
 -41502967.44947 -32289840.20344  22647372.5784                   22647373.6454
 -52815974.73048 -41105141.28546  20728140.8134                   20728136.6724
 -23599677.58247 -18346627.21545  22394918.6724                   22394916.6094
 -40869920.66048 -31802207.02046  21189436.1174                   21189434.4654
 -75209459.49648 -58409410.79746  20652025.5704                   20652024.1804
 -11960538.53547  -9275378.72745  23365910.7424                   23365913.3244
 -94101912.71947 -73281929.28545  22437407.5944                   22437405.3364
 -82446910.16046 -64246116.52343  23920843.6484                   23920844.1804
 11  8 14  0  8 30.0000000  0  8G09G02G12G10G04G05G17G28
 -41546421.25047 -32323700.37144  22639103.7194                   22639104.6054
 -52942124.91448 -41203440.10246  20704134.7894                   20704131.0704
 -23785234.14147 -18491216.70345  22359608.6484                   22359606.6914
 -41016629.23048 -31916525.34446  21161518.0784                   21161516.7344
 -75250645.67248 -58441503.91846  20644187.9304                   20644186.4884
 -12166339.91847  -9435743.20345  23326748.2814                   23326749.5984
 -94159823.15647 -73327054.30545  22426387.3204                   22426385.9844
 -82449777.07046 -64248350.59843  23920297.4224                   23920298.5664
 11  8 14  0  9  0.0000000  0  8G09G02G12G10G04G05G17G28
 -41589329.55947 -32357135.49644  22630939.2034                   22630939.1414
 -53067782.31248 -41301354.91846  20680222.9614                   20680219.1724
 -23970407.21947 -18635507.37145  22324371.2344                   22324369.3444
 -41162670.04348 -32030323.32446  21133727.7584                   21133726.3404
 -75291387.54748 -58473250.84046  20636435.2814                   20636433.4104
 -12371923.60947  -9595938.06245  23287626.4144                   23287628.3444
 -94217484.05947 -73371984.90645  22415414.3914                   22415412.7304
 -82452282.85546 -64250303.21143  23919820.8364                   23919822.1454
 11  8 14  0  9 30.0000000  0  8G09G02G12G10G04G05G17G28
 -41631695.17247 -32390147.73044  22622876.8364                   22622877.4574
 -53192947.18048 -41398885.95346  20656404.7114                   20656400.9924
 -24155194.15647 -18779497.15245  22289207.4924                   22289205.6604
 -41308040.29748 -32143598.80546  21106064.5314                   21106063.1484
 -75331687.39148 -58504653.30546  20628766.5164                   20628764.8014
 -12577286.56247  -9755960.91445  23248547.3524                   23248548.6564
 -94274894.93447 -73416720.66445  22404490.3364                   22404488.1914
 -82454428.60946 -64251975.28943  23919412.7194                   23919413.5704
 11  8 14  0 10  0.0000000  0  8G09G02G12G10G04G05G17G28
 -41673522.22747 -32422740.29744  22614918.0784                   22614918.0314
 -53317620.62548 -41496034.06646  20632680.6174                   20632676.4184
 -24339593.43447 -18923184.86345  22254117.1804                   22254115.1644
 -41452738.98848 -32256350.98846  21078529.3054                   21078527.7114
 -75371548.35548 -58535713.80546  20621181.0784                   20621179.4774
 -12782426.05947  -9915809.64544  23209510.2894                   23209511.4184
 -94332056.21547 -73461261.92645  22393612.3284                   22393610.2154
 -82456217.27746 -64253369.12943  23919072.7504                   23919073.4614
 11  8 14  0 10 30.0000000  0  8G09G02G12G10G04G05G17G28
 -41714815.94547 -32454917.29745  22607059.4844                   22607060.2194
 -53441805.53148 -41592801.50446  20609048.6484                   20609044.5124
 -24523604.22347 -19066569.85545  22219100.9924                   22219099.0084
 -41596765.73448 -32368579.58246  21051122.0704                   21051120.5044
 -75410974.72348 -58566435.65246  20613678.7344                   20613676.9454
 -12987341.57047 -10075483.86345  23170515.9924                   23170516.9774
 -94388969.23047 -73505609.74245  22382782.0004                   22382780.0434
 -82457653.26246 -64254488.18043  23918799.4064                   23918800.1334
 11  8 14  0 11  0.0000000  0  8G09G02G12G10G04G05G17G28
 -40180159.79347 -31259081.40644  22899095.1254                   22899095.5004
 -51990079.85548 -40461586.66846  20885302.7034                   20885298.7384
 -23131799.52348 -17982046.66845  22483953.2814                   22483951.3244
 -40164695.48848 -31252680.63346  21323635.5554                   21323634.0634
 -73874549.57448 -57369221.26246  20906050.2034                   20906048.9694
 -11616605.27747  -9007377.43744  23431357.8984                   23431359.2584
 -92870213.17247 -72322163.48445  22671792.1094                   22671789.6564
 -80883320.13345 -63027735.27742  24218385.2274                   24218386.8914
 11  8 14  0 11 30.0000000  0  8G09G02G12G10G04G05G17G28
 -40220405.46547 -31290441.71944  22891436.6254                   22891436.8954
 -52113298.38348 -40557601.08646  20861855.0554                   20861851.5824
 -23315034.84048 -18124827.39545  22449084.6564                   22449082.4064
 -40307381.14148 -31363864.21546  21296483.5634                   21296482.0394
 -73913123.50048 -57399278.87146  20898710.2034                   20898708.5704
 -11821073.41447  -9166703.05145  23392448.3834                   23392449.9064
 -92926636.98447 -72366130.09845  22661054.6484                   22661052.8134
 -80884065.59446 -63028316.23043  24218243.6254                   24218244.4574
 11  8 14  0 12  0.0000000  0  8G09G02G12G10G04G05G17G28
 -40260128.18747 -31321394.56645  22883877.8134                   22883878.5124
 -52236031.44948 -40653237.22346  20838499.8364                   20838496.1994
 -23497875.30147 -18267300.42645  22414290.9224                   22414289.0164
 -40449389.73048 -31474520.21546  21269460.1174                   21269458.6334
 -73951271.39148 -57429004.50846  20891450.5084                   20891449.3404
 -12025309.98047  -9325848.21544  23353583.3984                   23353585.0744
 -92982811.86747 -72409902.75845  22650364.6254                   22650363.2624
 -80884465.23846 -63028627.77743  24218167.2664                   24218168.4264
 11  8 14  0 12 30.0000000  0  8G09G02G12G10G04G05G17G28
 -40299336.38747 -31351946.46544  22876416.6804                   22876417.0594
 -52358284.81648 -40748499.57046  20815236.0704                   20815231.9224
 -23680323.59048 -18409467.86745  22379572.2974                   22379570.3484
 -40590723.98848 -31584650.76646  21242565.2424                   21242563.4494
 -73989000.71148 -57458403.98846  20884271.1804                   20884269.6684
 -12229317.24247  -9484814.70345  23314762.2194                   23314763.5354
 -93038742.78547 -72453485.30145  22639721.1804                   22639720.2664
 -80884526.16846 -63028675.30142  24218156.1254                   24218156.9534
 11  8 14  0 13  0.0000000  0  8G09G02G12G10G04G05G17G28
 -40338037.39847 -31382103.16845  22869052.1484                   22869053.2464
 -52480062.92648 -40843391.57846  20792062.3984                   20792058.3244
 -23862380.92647 -18551330.67645  22344927.6414                   22344925.9104
 -40731385.97348 -31694257.47346  21215798.0634                   21215796.5864
 -74026317.94548 -57487482.36346  20877170.0084                   20877168.5474
 -12433096.41447  -9643603.47345  23275984.1094                   23275985.6764
 -93094432.96547 -72496880.28945  22629124.5314                   22629122.5824
 -80884254.22746 -63028463.42243  24218207.4694                   24218209.0824
 11  8 14  0 13 30.0000000  0  8G09G02G12G10G04G05G17G28
 -40376236.80947 -31411869.01245  22861783.2274                   22861783.8364
 -52601368.96948 -40937915.75046  20768978.5704                   20768974.7234
 -24044047.50048 -18692888.98045  22310357.6564                   22310355.4144
 -40871376.18448 -31803340.71146  21189158.4614                   21189157.3404
 -74063227.84048 -57516243.33246  20870146.3364                   20870144.6954
 -12636646.81647  -9802213.94145  23237250.0164                   23237251.0234
 -93149884.39147 -72540089.21545  22618572.2194                   22618570.6454
 -80883654.27346 -63027996.03943  24218321.8594                   24218322.6094
 11  8 14  0 14  0.0000000  0  8G09G02G12G10G04G05G17G28
 -40413938.65647 -31441247.13345  22854608.9614                   22854609.2464
 -52722204.10248 -41032072.97346  20745984.2504                   20745979.9024
 -24225320.80947 -18834140.84845  22275862.2664                   22275860.7584
 -41010692.99648 -31911899.23846  21162647.2664                   21162646.1334
 -74099733.40248 -57544689.22746  20863199.4694                   20863197.7664
 -12839966.23047  -9960644.45745  23198559.0314                   23198559.6994
 -93205096.57047 -72583111.71545  22608065.5004                   22608064.0004
 -80882728.58646 -63027274.81643  24218498.1024                   24218499.1054
 11  8 14  0 14 30.0000000  0  8G09G02G12G10G04G05G17G28
 -40451147.50447 -31470241.10945  22847527.9534                   22847528.9344
 -52842570.53548 -41125864.98046  20723079.0394                   20723074.8754
 -24406200.35247 -18975085.87945  22241442.2114                   22241440.4454
 -41149336.14848 -32019932.82446  21136264.8054                   21136263.5084
 -74135838.52748 -57572823.10546  20856329.0234                   20856327.2664
 -13043053.25447 -10118893.89545  23159912.6484                   23159913.9884
 -93260070.72347 -72625948.76245  22597604.3444                   22597602.6844
 -80881480.80146 -63026302.62943  24218735.6094                   24218736.5314
 11  8 14  0 15  0.0000000  0  8G09G02G12G10G04G05G17G28
 -40487868.06247 -31498854.59445  22840540.9304                   22840541.0514
 -52962470.63348 -41219293.60546  20700262.7424                   20700258.9144
 -24586684.76248 -19115723.02745  22207097.0784                   22207095.2854
 -41287305.09048 -32127441.07046  21110009.9304                   21110008.4964
 -74171546.90648 -57600647.82446  20849534.1094                   20849532.4064
 -13245906.34447 -10276961.03545  23121310.7424                   23121311.8524
 -93314808.08647 -72668601.28545  22587188.4064                   22587186.6484
 -80879914.33646 -63025082.11743  24219033.5784                   24219035.4534
 11  8 14  0 15 30.0000000  0  8G09G02G12G10G04G05G17G28
 -40524103.96947 -31527090.43444  22833645.5864                   22833646.2154
 -53081905.42248 -41312359.64546  20677535.4064                   20677531.1724
 -24766771.57848 -19256050.35545  22172827.8134                   22172825.5274
 -41424598.36348 -32234422.81246  21083884.1024                   21083882.3594
 -74206861.60948 -57628165.78946  20842813.8984                   20842812.0394
 -13448523.02047 -10434843.95745  23082754.2114                   23082755.3714
 -93369308.33247 -72711069.04345  22576817.4924                   22576815.5234
 -80878031.85946 -63023615.39543  24219391.3054                   24219394.1954
 11  8 14  0 16  0.0000000  0  8G09G02G12G10G04G05G17G28
 -40559859.80947 -31554952.20344  22826841.0634                   22826842.1174
 -53200876.83648 -41405064.62546  20654895.7664                   20654892.0234
 -24946460.23847 -19396067.43045  22138634.0864                   22138632.1524
 -41561214.95348 -32340877.26646  21057886.4924                   21057885.1024
 -74241786.20348 -57655379.77046  20836167.9064                   20836165.8404
 -13650901.51647 -10592541.31245  23044242.4224                   23044243.7774
 -93423572.12147 -72753352.54345  22566491.1094                   22566490.2774
 -80875836.33646 -63021904.69943  24219810.1484                   24219811.5864
 11  8 14  0 16 30.0000000  0  8G09G02G12G10G04G05G17G28
 -40595142.87547 -31582445.57845  22820127.0314                   22820127.9734
 -53319389.59448 -41497412.19946  20632343.4384                   20632339.0944
 -25125752.22747 -19535775.43445  22104515.8444                   22104513.9774
 -41697157.21548 -32446806.27346  21032017.6644                   21032016.5044
 -74276327.30548 -57682294.93046  20829594.8754                   20829593.4264
 -13853043.30947 -10750054.21545  23005776.2894                   23005776.5824
 -93477603.40247 -72795454.86345  22556209.3984                   22556207.8714
 -80873334.14146 -63019955.07443  24220286.6954                   24220287.1764
 11  8 14  0 17  0.0000000  0  8G09G02G12G10G04G05G17G28
 -40629957.08647 -31609573.59845  22813502.6024                   22813503.1994
 -53437445.26648 -41589403.60246  20609878.3594                   20609873.8134
 -25304645.18048 -19675172.49246  22070473.5554                   22070471.6414
 -41832423.64548 -32552208.66046  21006277.0944                   21006276.0234
 -74310487.80948 -57708913.52046  20823094.2274                   20823092.4184
 -14054945.87947 -10907380.73445  22967355.6094                   22967356.0514
 -93531401.68447 -72837375.64545  22545972.3204                   22545970.6644
 -80870527.79346 -63017768.43043  24220820.3984                   24220820.9734
 11  8 14  0 17 30.0000000  0  7G09G02G12G10G04G05G17
 -40664309.64147 -31636341.90244  22806965.2894                   22806965.9384
 -53555048.46548 -41681042.43047  20587499.0164                   20587495.2934
 -25483140.30948 -19814259.55946  22036507.1334                   22036505.2974
 -41967016.39548 -32657086.09846  20980664.9534                   20980663.5124
 -74344273.79748 -57735240.27046  20816664.9304                   20816663.7624
 -14256610.22347 -11064521.59845  22928979.7114                   22928980.5744
 -93584970.21147 -72879117.39145  22535778.2584                   22535777.0274
 11  8 14  0 18  0.0000000  0  7G09G02G12G10G04G05G17
 -40698205.05547 -31662753.97344  22800515.2664                   22800515.8284
 -53672200.96148 -41772330.05546  20565205.8524                   20565202.0944
 -25661236.65647 -19953035.89546  22002616.5394                   22002614.6564
 -42100934.82848 -32761438.09046  20955181.0634                   20955179.5084
 -74377689.00448 -57761278.10946  20810306.1024                   20810304.4924
 -14458034.38747 -11221475.33245  22890650.1254                   22890650.7034
 -93638309.58647 -72920680.58645  22525628.1954                   22525626.1684
 11  8 14  0 18 30.0000000  0  7G09G02G12G10G04G05G17
 -40731642.91447 -31688809.52744  22794152.4534                   22794153.3404
 -53788900.18048 -41863264.48046  20542998.0704                   20542994.6214
 -25838927.97348 -20091496.63346  21968803.1884                   21968800.6094
 -42234173.75448 -32865260.60246  20929826.4304                   20929825.1024
 -74410732.46948 -57787026.27746  20804018.4064                   20804016.9224
 -14659212.37147 -11378237.22345  22852367.4304                   22852367.7704
 -93691416.34847 -72962062.51245  22515522.8054                   22515520.4774
 11  8 14  0 19  0.0000000  0  7G09G02G12G10G04G05G17
 -39189204.37147 -30486909.44945  23087667.9454                   23087669.3484
 -52329721.68048 -40726242.23046  20820671.0394                   20820667.0084
 -24440784.62948 -19002034.25846  22234861.0004                   22234858.6134
 -40791305.70748 -31740947.80146  21204395.2344                   21204393.9144
 -72867983.98448 -56584884.61346  21097593.6334                   21097591.9414
 -13284713.04347 -10307198.62145  23113925.7974                   23113926.0204
 -92168866.55147 -71775660.10245  22805253.8204                   22805252.3554
 11  8 14  0 19 30.0000000  0  7G09G02G12G10G04G05G17
 -39221734.73047 -30512257.84844  23081478.5474                   23081479.2114
 -52445513.72748 -40816469.76646  20798636.2664                   20798632.5824
 -24617655.72748 -19139855.87546  22201203.2424                   22201200.9344
 -40923177.53948 -31843705.03946  21179300.7814                   21179299.7774
 -72900287.90248 -56610056.50446  21091446.4224                   21091445.2034
 -13485386.77347 -10463567.60245  23075738.1804                   23075738.9844
 -92221502.93047 -71816675.48845  22795237.2814                   22795235.8594
 11  8 14  0 20  0.0000000  0  7G09G02G12G10G04G05G17
 -39253820.82847 -30537260.09444  23075372.9534                   23075373.5824
 -52560857.61348 -40906348.08246  20776687.2894                   20776683.1254
 -24794117.39147 -19277358.45746  22167623.6254                   22167621.7344
 -41054367.73448 -31945931.14546  21154335.9064                   21154334.5984
 -72932230.27748 -56634946.67646  21085368.3524                   21085366.3834
 -13685807.93447 -10619739.77045  23037599.2584                   23037599.9224
 -92273908.01647 -71857510.64145  22785265.5234                   22785263.6994
 11  8 14  0 20 30.0000000  0  7G09G02G12G10G04G05G17
 -39285472.29747 -30561923.64144  23069349.6884                   23069350.4884
 -52675760.67648 -40995882.90647  20754821.7114                   20754817.6134
 -24970172.84048 -19414544.50046  22134121.8284                   22134119.3554
 -41184880.76248 -32047629.56246  21129500.3284                   21129498.7734
 -72963819.26248 -56659561.47746  21079356.9454                   21079355.5314
 -13885980.45747 -10775718.18445  22999507.6644                   22999508.0514
 -92326086.92647 -71898169.55145  22775335.6724                   22775333.8134
 11  8 14  0 21  0.0000000  0  7G09G02G12G10G04G05G17
 -39316688.55147 -30586248.09045  23063409.8364                   23063409.8984
 -52790219.96548 -41085071.92246  20733040.8444                   20733036.8444
 -25145816.17247 -19551409.42246  22100697.7424                   22100695.8594
 -41314710.99248 -32148795.94946  21104794.5084                   21104792.8484
 -72995053.80148 -56683900.09446  21073413.1564                   21073411.7384
 -14085897.25447 -10931497.35245  22961464.5004                   22961464.8594
 -92378035.54347 -71938649.01645  22765450.2274                   22765448.5354
 11  8 14  0 21 30.0000000  0  7G09G02G12G10G04G05G17
 -39347477.68747 -30610239.70744  23057550.9844                   23057551.7304
 -52904241.07448 -41173919.50846  20711343.2584                   20711339.4144
 -25321049.51247 -19687954.87146  22067352.1644                   22067349.7504
 -41443861.82848 -32249432.93046  21080217.8364                   21080216.3754
 -73025940.84848 -56707967.93046  21067535.6094                   21067533.9804
 -14285560.09447 -11087078.61745  22923469.9454                   22923469.9574
 -92429758.04747 -71978952.29745  22755608.4144                   22755606.6954
 11  8 14  0 22  0.0000000  0  7G09G02G12G10G04G05G17
 -39377847.60547 -30633904.65244  23051770.6174                   23051772.0594
 -53017829.46148 -41262429.91046  20689728.3754                   20689724.1024
 -25495874.97747 -19824182.48046  22034083.6644                   22034081.4804
 -41572336.14848 -32349542.75446  21055769.6564                   21055768.5664
 -73056487.15648 -56731770.14146  21061722.6804                   21061721.1334
 -14484970.96947 -11242463.55145  22885523.2114                   22885523.2114
 -92481258.32847 -72019082.41045  22745807.8524                   22745806.5984
 11  8 14  0 22 30.0000000  0  7G09G02G12G10G04G05G17
 -39407800.46547 -30657244.64144  23046071.8204                   23046072.4654
 -53130984.46148 -41350602.60546  20668195.5864                   20668191.3014
 -25670288.87547 -19960089.40246  22000893.9694                   22000891.8054
 -41700130.91048 -32449123.06246  21031451.2664                   21031449.8444
 -73086693.89858 -56755307.77356  21055974.3674                   21055973.4224
 -14684125.62947 -11397648.84445  22847625.1094                   22847625.7544
 -92532535.02047 -72059038.32045  22736050.3674                   22736048.8364
 11  8 14  0 23  0.0000000  0  7G09G02G12G10G04G05G17
 -39437344.27047 -30680265.87544  23040449.4064                   23040450.6254
 -53243711.64548 -41438441.94146  20646744.1094                   20646740.2194
 -25844293.04747 -20095677.05146  21967781.8204                   21967779.6844
 -41827249.54748 -32548176.51246  21007261.2664                   21007260.2704
 -73116569.08648 -56778587.15646  21050289.3754                   21050288.0004
 -14883025.70747 -11552635.75845  22809775.6564                   22809775.8794
 -92583592.25847 -72098823.18045  22726334.3204                   22726332.7504
 11  8 14  0 23 30.0000000  0  7G09G02G12G10G04G05G17
 -39466487.51247 -30702974.97344  23034903.5944                   23034905.1954
 -53356017.19548 -41525952.73446  20625373.1484                   20625369.3364
 -26017889.91048 -20230947.31246  21934747.5704                   21934745.6414
 -41953694.96548 -32646705.37546  20983199.6644                   20983198.2274
 -73146119.21548 -56801613.23846  21044666.1334                   21044665.1134
 -15081673.19547 -11707425.84845  22771974.4224                   22771974.0044
 -92634434.09447 -72138440.23845  22716659.0704                   22716657.3714
 11  8 14  0 24  0.0000000  0  7G09G02G12G10G04G05G17
 -39495231.30947 -30725372.83644  23029434.5474                   23029435.4414
 -53467899.55148 -41613133.77046  20604082.5864                   20604078.2304
 -26191075.10947 -20365896.80146  21901791.4144                   21901789.4144
 -42079463.63348 -32744706.89546  20959266.6884                   20959265.3244
 -73175344.24248 -56824386.00846  21039104.9224                   21039103.6564
 -15280063.04747 -11862015.19145  22734221.6414                   22734222.1294
 -92685057.71147 -72177887.22745  22707026.4534                   22707024.4734
 11  8 14  0 24 30.0000000  0  7G09G02G12G10G04G05G17
 -39523581.31647 -30747463.80944  23024039.6484                   23024040.2584
 -53579361.50848 -41699987.22746  20582872.3204                   20582868.2814
 -26363848.17647 -20500525.14146  21868913.4694                   21868911.4534
 -42204556.20347 -32842181.58246  20935462.3594                   20935460.9304
 -73204249.10948 -56846909.30146  21033604.8284                   21033603.6454
 -15478194.33247 -12016403.05945  22696518.4614                   22696518.6414
 -92735464.89847 -72217165.59445  22697433.9614                   22697432.6914
 11  8 14  0 25  0.0000000  0  7G09G02G12G10G04G05G17
 -39551541.13747 -30769250.75844  23018718.9844                   23018720.2774
 -53690404.28548 -41786514.04746  20561741.2734                   20561737.5744
 -26536206.56647 -20634830.35246  21836115.1174                   21836112.8014
 -42328971.66848 -32939128.65646  20911786.6024                   20911785.6054
 -73232836.04748 -56869184.84846  21028164.4224                   21028163.1294
 -15676064.46947 -12170587.43445  22658864.9144                   22658864.7974
 -92785655.18747 -72256274.93745  22687883.9924                   22687882.0124
 11  8 14  0 25 30.0000000  0  7G09G02G12G10G04G05G17
 -39579116.67247 -30790738.25044  23013471.2584                   23013471.9104
 -53801031.65648 -41872717.18046  20540689.8054                   20540685.6094
 -26708150.37148 -20768812.50846  21803395.3054                   21803393.0704
 -42452711.10548 -33035548.96146  20888240.2424                   20888238.4774
 -73261110.06248 -56891216.55546  21022784.6724                   21022782.6334
 -15873672.60947 -12324567.64845  22621261.3054                   22621261.1024
 -92835630.44547 -72295216.73045  22678373.7114                   22678371.5554
 11  8 14  0 26  0.0000000  0  7G09G02G12G10G04G05G17
 -39606313.19147 -30811930.39544  23008296.3284                   23008297.4574
 -53911246.11748 -41958598.56247  20519716.3524                   20519712.7584
 -26879678.77348 -20902470.97346  21770754.6414                   21770752.0824
 -42575774.61748 -33131442.58246  20864821.8834                   20864820.1684
 -73289075.27748 -56913007.63346  21017462.6804                   21017461.4844
 -16071018.06647 -12478343.19145  22583707.4534                   22583707.1954
 -92885392.30947 -72333992.25445  22668903.7664                   22668902.4774
 11  8 14  0 26 30.0000000  0  7G09G02G12G10G04G05G17
 -39633134.67647 -30832830.32844  23003192.0474                   23003193.5664
 -54021049.10248 -42044159.31646  20498821.7504                   20498817.7854
 -27050790.24248 -21035804.55946  21738192.8834                   21738190.6884
 -42698161.29748 -33226808.78546  20841532.6564                   20841530.6604
 -73316734.66848 -56934560.41446  21012199.4454                   21012197.9574
 -16268098.78147 -12631912.43745  22546204.5554                   22546204.1174
 -92934940.74647 -72372601.44545  22659475.4454                   22659473.8874
 11  8 14  0 27  0.0000000  0  7G09G02G12G10G04G05G17
 -38084164.65647 -29625840.75044  23297951.4774                   23297952.6914
 -52555018.91048 -40901798.12146  20777798.1954                   20777793.7774
 -25646057.63748 -19941207.69546  22005504.5864                   22005502.7074
 -41244447.22348 -32094044.55146  21118164.9064                   21118163.4574
 -71768670.82448 -55728276.89846  21306785.6414                   21306784.5274
 -14889486.24247 -11557668.75045  22808545.0314                   22808544.8204
 -91408854.66047 -71183443.49245  22949880.0864                   22949878.2774
 11  8 14  0 27 30.0000000  0  7G09G02G12G10G04G05G17
 -38110252.41447 -29646168.92244  23292987.5474                   23292988.9184
 -52664008.19148 -40986724.82446  20757058.3984                   20757054.0204
 -25816333.45347 -20073890.12546  21973102.2504                   21973100.0084
 -41365483.14548 -32188358.21946  21095132.6484                   21095131.0354
 -71795731.89148 -55749363.44546  21301636.4924                   21301634.9264
 -15086034.31647 -11710822.94945  22771143.2664                   22771143.4884
 -91457980.93747 -71221723.75045  22940531.5704                   22940530.6174
 11  8 14  0 28  0.0000000  0  7G09G02G12G10G04G05G17
 -38135977.90647 -29666214.81244  23288091.7894                   23288093.5904
 -52772591.69548 -41071335.34846  20736395.2344                   20736391.4414
 -25986187.53947 -20206243.94146  21940780.0084                   21940777.7424
 -41485841.27748 -32282143.74646  21072229.0084                   21072227.4184
 -71822496.60948 -55770219.06246  21296543.7344                   21296541.8094
 -15282311.24247 -11863765.85545  22733793.0394                   22733793.2344
 -91506894.78147 -71259838.47745  22931223.3834                   22931222.0234
 11  8 14  0 28 30.0000000  0  7G09G02G12G10G04G05G17
 -38161348.14547 -29685983.89144  23283264.6564                   23283265.1914
 -52880773.69948 -41155633.01646  20715808.8674                   20715805.0274
 -26155620.89148 -20338269.90646  21908537.7504                   21908535.5634
 -41605523.60947 -32375402.67646  21049454.2274                   21049452.9384
 -71848970.90648 -55790848.38746  21291505.6254                   21291504.3634
 -15478317.20747 -12016497.64145  22696494.3134                   22696493.8554
 -91555598.62947 -71297789.55945  22921954.9384                   22921954.0314
 11  8 14  0 29  0.0000000  0  7G09G02G12G10G04G05G17
 -38186368.47747 -29705480.30544  23278503.0394                   23278504.0514
 -52988556.57848 -41239619.68046  20695298.6024                   20695294.4024
 -26324632.16447 -20469966.98046  21876376.0864                   21876374.4064
 -41724530.77347 -32468135.50846  21026807.7664                   21026806.6134
 -71875158.75048 -55811254.50046  21286522.3984                   21286520.5474
 -15674051.21947 -12169017.50845  22659247.3984                   22659247.1254
 -91604094.07847 -71335578.28545  22912726.6484                   22912725.7974
 11  8 14  0 29 30.0000000  0  7G09G02G12G10G04G05G17
 -38211043.22747 -29724707.44544  23273807.1804                   23273808.6484
 -53095942.50848 -41323297.02346  20674863.7424                   20674859.4884
 -26493219.74248 -20601333.91846  21844294.9694                   21844292.5594
 -41842862.15648 -32560341.75046  21004290.4924                   21004288.7274
 -71901063.03148 -55831439.64546  21281592.3754                   21281591.1294
 -15869511.45347 -12321324.03145  22622052.6174                   22622051.8794
 -91652381.39547 -71373204.82045  22903538.4384                   22903536.8834
 11  8 14  0 30  0.0000000  0  7G09G02G12G10G04G05G17
 -38235376.74647 -29743668.69144  23269177.3594                   23269178.0554
 -53202933.44148 -41406666.58246  20654504.0944                   20654499.9414
 -26661382.77747 -20732370.01646  21812294.1414                   21812292.4734
 -41960517.71948 -32652021.38746  20981900.9454                   20981899.6994
 -71926687.52048 -55851406.76646  21276716.4454                   21276714.9224
 -16064695.76247 -12473415.56645  22584910.1024                   22584909.9414
 -91700461.14547 -71410669.60245  22894388.9694                   22894388.0004
 11  8 14  0 30 30.0000000  0  7G09G02G12G10G04G05G17
 -38259372.32047 -29762366.60544  23264610.8834                   23264612.4264
 -53309530.17248 -41489728.96946  20634219.3444                   20634215.0704
 -26829118.48447 -20863073.15246  21780375.5864                   21780373.1374
 -42077496.53548 -32743173.69146  20959640.6954                   20959638.8164
 -71952034.30148 -55871157.50446  21271893.1484                   21271891.4494
 -16259601.57047 -12625290.09445  22547820.3364                   22547820.3324
 -91748332.84447 -71447972.27745  22885279.6174                   22885277.9964
 11  8 14  0 31  0.0000000  0  7G09G02G12G10G04G05G17
 -38283035.94546 -29780805.85244  23260108.3984                   23260109.4454
 -53415736.66848 -41572487.27346  20614008.8594                   20614004.8244
 -26996427.07447 -20993443.46546  21748537.9064                   21748535.6684
 -42193799.93448 -32833799.68746  20937509.2034                   20937507.5084
 -71977108.29748 -55890695.68046  21267121.7424                   21267119.6334
 -16454228.30147 -12776947.16445  22510783.6884                   22510783.7344
 -91795998.24647 -71485114.21545  22876209.3834                   22876207.5394
 11  8 14  0 31 30.0000000  0  8G09G02G12G10G04G05G17G25
 -38306369.57047 -29798987.94944  23255667.2194                   23255669.3204
 -53521552.09848 -41654940.85246  20593872.7504                   20593868.9104
 -27163304.41047 -21123477.72746  21716781.9144                   21716779.6214
 -42309425.26248 -32923897.32046  20915506.2664                   20915504.6684
 -72001910.22748 -55910021.85246  21262401.8134                   21262400.2854
 -16648571.17247 -12928383.04345  22473801.8834                   22473801.3794
 -91843455.46947 -71522093.91045  22867178.1804                   22867176.7974
   6005772.29356   4721400.11353  24606197.6094                   24606200.3794
 11  8 14  0 32  0.0000000  0  8G09G02G12G10G04G05G17G25
 -38329379.61746 -29816917.95344  23251288.6644                   23251290.5664
 -53626980.09048 -41737092.52746  20573810.3204                   20573806.6454
 -27329750.84047 -21253176.21946  21685108.2504                   21685105.8914
 -42424373.98448 -33013467.73846  20893632.1804                   20893630.3634
 -72026445.12548 -55929139.96546  21257733.3834                   21257731.6254
 -16842630.17647 -13079597.72345  22436873.2584                   22436872.7544
 -91890706.87947 -71558913.25445  22858186.6884                   22858185.4614
   5806035.68446   4565761.37943  24568188.3054                   24568191.4304
 11  8 14  0 32 30.0000000  0  8G09G02G12G10G04G05G17G25
 -38352076.73447 -29834604.09044  23246970.3204                   23246971.3834
 -53732029.14148 -41818948.92246  20553820.2114                   20553816.6054
 -27495770.75448 -21382542.35946  21653515.8524                   21653513.2344
 -42538652.40648 -33102515.84446  20871885.6564                   20871883.9384
 -72050722.13748 -55948057.11346  21253113.0784                   21253112.2544
 -17036409.60547 -13230594.57045  22399998.5784                   22399997.8444
 -91937758.73047 -71595577.07445  22849233.0314                   22849231.4534
   5606465.10946   4410252.00043  24530211.2974                   24530214.3244
 11  8 14  0 33  0.0000000  0  8G09G02G12G10G04G05G17G25
 -38374465.50447 -29852049.96144  23242709.4064                   23242711.4694
 -53836701.18748 -41900511.54346  20533901.5234                   20533897.8914
 -27661362.89547 -21511575.16046  21622004.5314                   21622002.3754
 -42652260.74248 -33191041.79746  20850266.5314                   20850265.0164
 -72074745.00048 -55966776.23846  21248542.3834                   21248540.3914
 -17229907.82447 -13381372.29345  22363176.5634                   22363176.0234
 -91984611.74647 -71632085.97745  22840317.2114                   22840315.8134
   5407061.58646   4254872.77043  24492266.1804                   24492268.3204
 11  8 14  0 33 30.0000000  0  8G09G02G12G10G04G05G17G25
 -38396548.75046 -29869257.79744  23238507.6644                   23238509.1094
 -53940996.70348 -41981780.76646  20514055.1954                   20514050.9144
 -27826524.66448 -21640272.60246  21590575.4144                   21590573.0274
 -42765197.19948 -33279044.21946  20828775.3364                   20828773.9384
 -72098515.44548 -55985298.68046  21244018.8284                   21244016.9614
 -17423121.14847 -13531928.02045  22326409.1174                   22326408.7624
 -92031264.96947 -71668439.17245  22831439.2274                   22831438.1914
   5207828.28146   4099626.19943  24454353.0314                   24454356.3054
 11  8 14  0 34  0.0000000  0  8G09G02G12G10G04G05G17G25
 -38418329.81647 -29886230.14544  23234363.2344                   23234364.7274
 -54044916.81648 -42062757.45346  20494279.6644                   20494275.3954
 -27991253.24648 -21768632.48846  21559228.3524                   21559226.2304
 -42877460.64548 -33366522.21146  20807412.6564                   20807410.7074
 -72122035.39548 -56003625.92646  21239542.8834                   21239541.3484
 -17616046.74647 -13682259.54345  22289696.6954                   22289696.3954
 -92077717.64147 -71704636.10945  22822600.3204                   22822598.8914
   5008767.77346   3944514.24643  24416472.3524                   24416475.5354
 11  8 14  0 34 30.0000000  0  8G09G02G12G10G04G05G17G25
 -38439811.92246 -29902969.52744  23230275.2814                   23230276.3834
 -54148462.33248 -42143442.25046  20474575.4774                   20474571.4614
 -28155546.28548 -21896652.98846  21527964.5314                   21527962.3954
 -42989050.10948 -33453475.01646  20786177.9064                   20786175.9024
 -72145307.02748 -56021759.69146  21235114.4534                   21235113.2544
 -17808681.33647 -13832364.31645  22253039.7274                   22253039.0274
 -92123968.84847 -71740676.04344  22813798.3914                   22813797.6174
   4809882.52746   3789538.84844  24378626.8594                   24378629.2504
 11  8 14  0 35  0.0000000  0  8G09G02G12G10G04G05G17G25
 -36885580.13347 -28691879.92644  23526035.2344                   23526036.9064
 -52676213.04748 -40996234.99246  20754735.4924                   20754731.6604
 -26743978.14848 -20796729.69546  21796577.1484                   21796575.0084
 -41524543.50848 -32312301.02046  21064864.3524                   21064862.2584
 -70592914.07047 -54812102.85945  21530525.1884                   21530523.5594
 -16425598.14847 -12754637.05145  22516231.3984                   22516231.1764
 -90594598.95747 -70548959.28545  23104828.1484                   23104825.9614
   6186599.41446   4862305.37144  24640606.9924                   24640610.1684
 11  8 14  0 35 30.0000000  0  8G09G02G12G10G04G05G17G25
 -36906479.03547 -28708164.89844  23522058.2814                   23522059.6294
 -52779016.35248 -41076341.43746  20735172.6414                   20735168.5554
 -26907396.62148 -20924068.70746  21765479.3754                   21765477.1804
 -41634786.38348 -32398204.53946  21043885.8364                   21043883.8244
 -70615699.75448 -54829857.95746  21526189.1644                   21526187.8554
 -16617646.33647 -12904284.87145  22479686.0634                   22479685.3444
 -90640450.25047 -70584687.58644  23096103.3754                   23096100.9614
   5988068.06346   4707605.70744  24602828.0164                   24602830.2504
 11  8 14  0 36  0.0000000  0  8G09G02G12G10G04G05G17G25
 -36927092.41047 -28724227.39844  23518136.1334                   23518137.5904
 -52881450.80148 -41156160.46146  20715679.9454                   20715675.8284
 -27070375.03548 -21051064.81646  21734465.5084                   21734463.5004
 -41744355.59448 -32483583.12146  21023035.1954                   21023033.8364
 -70638246.70748 -54847427.04746  21521898.7034                   21521897.1604
 -16809397.52747 -13053701.28945  22443196.9844                   22443195.9344
 -90686101.64547 -70620260.12545  23087415.6884                   23087415.0394
   5789716.41047   4553046.04344  24565082.8204                   24565085.0204
 11  8 14  0 36 30.0000000  0  8G09G02G12G10G04G05G17G25
 -36947420.76646 -28740067.81244  23514268.1414                   23514269.5314
 -52983515.01248 -41235690.99246  20696257.6024                   20696253.8794
 -27232908.15248 -21177713.93046  21703536.5554                   21703534.2504
 -41853247.71948 -32568434.10946  21002313.9694                   21002312.4454
 -70660554.32048 -54864809.63345  21517653.5704                   21517652.5514
 -17000846.35547 -13202882.08245  22406765.1094                   22406764.4654
 -90731549.86347 -70655674.34045  23078767.4384                   23078765.6994
   5591549.75447   4398630.54344  24527373.3524                   24527375.3484
 11  8 14  0 37  0.0000000  0  8G09G02G12G10G04G05G17G25
 -36967466.88747 -28755688.28144  23510453.6564                   23510455.1484
 -53085209.00048 -41314933.03546  20676905.9224                   20676902.0944
 -27394992.86748 -21304013.64546  21672692.7424                   21672690.3674
 -41961460.90648 -32652756.05946  20981721.3284                   20981719.7194
 -70682623.86748 -54882006.71546  21513454.1334                   21513452.6334
 -17191988.90647 -13351824.20345  22370391.3524                   22370390.9224
 -90776793.51247 -70690929.14845  23070157.9924                   23070156.6764
   5393571.45747   4244361.75844  24489698.8984                   24489701.2814
 11  8 14  0 37 30.0000000  0  8G09G02G12G10G04G05G17G25
 -36987236.41847 -28771093.24244  23506690.8984                   23506693.5234
 -53186536.13748 -41393889.22346  20657623.7974                   20657619.9264
 -27556628.72748 -21429963.60546  21641934.6414                   21641932.1604
 -42068996.67248 -32736550.14546  20961258.1804                   20961256.3324
 -70704459.69148 -54899021.68446  21509298.7664                   21509297.0554
 -17382824.78547 -13500527.38345  22334076.7034                   22334076.5514
 -90821834.07047 -70726025.68745  23061587.0634                   23061585.3134
   5195781.79347   4090239.96944  24452061.0784                   24452063.5784
 11  8 14  0 38  0.0000000  0  8G09G02G12G10G04G05G17G25
 -37006734.81246 -28786286.92644  23502981.0234                   23502982.8834
 -53287499.60548 -41472562.02346  20638411.1024                   20638407.3954
 -27717815.28148 -21555563.46946  21611261.4844                   21611258.6994
 -42175856.42248 -32819817.46546  20940923.4614                   20940921.7194
 -70726066.07848 -54915857.85946  21505187.3524                   21505185.8054
 -17573352.82047 -13648990.68445  22297820.6564                   22297819.6724
 -90866673.25847 -70760965.32444  23053054.2424                   23053052.8754
   4998181.05947   3936265.38744  24414458.6024                   24414460.9614
 11  8 14  0 38 30.0000000  0  8G09G02G12G10G04G05G17G25
 -37025964.01647 -28801270.84844  23499321.8984                   23499323.8134
 -53388098.74248 -41550950.93746  20619267.7424                   20619264.0394
 -27878548.73048 -21680810.25846  21580674.8364                   21580672.9344
 -42282037.25048 -32902555.76646  20920717.7424                   20920716.3674
 -70747443.55548 -54932515.67245  21501119.1954                   21501117.7854
 -17763568.23047 -13797210.37146  22261623.8134                   22261622.8244
 -90911308.61347 -70795746.12944  23044560.0234                   23044559.1764
   4800773.45747   3782441.32844  24376893.2424                   24376895.5514
 11  8 14  0 39  0.0000000  0  8G09G02G12G10G04G05G17G25
 -37044930.53947 -28816050.07844  23495713.1644                   23495714.8714
 -53488337.72748 -41629059.22346  20600193.0784                   20600188.9224
 -28038829.87148 -21805704.61746  21550174.2504                   21550172.2344
 -42387542.10248 -32984767.31646  20900640.8834                   20900639.3094
 -70768597.55148 -54948999.35245  21497093.7974                   21497092.2544
 -17953471.88747 -13945187.13346  22225485.6484                   22225485.4734
 -90955742.75047 -70830370.14145  23036105.3444                   23036104.1724
   4603558.50046   3628767.35544  24339364.4454                   24339366.3364
 11  8 14  0 39 30.0000000  0  8G09G02G12G10G04G05G17G25
 -37063634.69947 -28830624.89844  23492153.8754                   23492155.4694
 -53588214.24248 -41706885.05946  20581187.7424                   20581183.3324
 -28198653.02748 -21930242.10946  21519760.6644                   21519759.0554
 -42492366.80548 -33066448.88746  20880693.1644                   20880691.4144
 -70789526.88348 -54965307.96145  21493111.2114                   21493109.8324
 -18143057.26247 -14092915.89545  22189409.0704                   22189408.0744
 -90999972.02747 -70864834.52745  23027688.3134                   23027686.9844
   4406541.82046   3475247.85243  24301873.3834                   24301874.9264
 11  8 14  0 40  0.0000000  0  8G09G02G12G10G04G05G17G25
 -37082081.49646 -28844999.14144  23488642.8914                   23488645.0514
 -53687731.15248 -41784430.68446  20562249.6884                   20562245.5044
 -28358017.60548 -22054422.27746  21489435.0314                   21489432.4104
 -42596512.66048 -33147601.48446  20860874.8284                   20860873.4694
 -70810235.44947 -54981444.54745  21489170.4534                   21489169.1644
 -18332323.24247 -14240395.76646  22153392.2814                   22153392.5664
 -91043998.05147 -70899140.54745  23019310.5084                   23019308.4844
   4209724.21146   3321883.53943  24264420.0864                   24264421.8484
 11  8 14  0 40 30.0000000  0  8G09G02G12G10G04G05G17G25
 -37100276.58647 -28859177.25444  23485180.9694                   23485182.7734
 -53786892.05948 -41861698.90646  20543380.0314                   20543375.7464
 -28516923.26648 -22178244.84446  21459196.0864                   21459194.1024
 -42699981.15248 -33228226.27046  20841185.7504                   20841184.0744
 -70830727.50048 -54997412.42245  21485271.1174                   21485269.8674
 -18521268.91847 -14387626.05145  22117438.0394                   22117437.1684
 -91087822.14147 -70933289.23845  23010971.0084                   23010969.7034
   4013105.99246   3168674.56643  24227005.2114                   24227006.5084
 11  8 14  0 41  0.0000000  0  8G09G02G12G10G04G05G17G25
 -37118222.62147 -28873161.29344  23481766.1254                   23481768.3874
 -53885697.01248 -41938689.75846  20524578.1414                   20524573.7344
 -28675366.82447 -22301707.35246  21429045.2974                   21429042.8794
 -42802770.75048 -33308322.04746  20821625.4454                   20821623.3634
 -70851004.27048 -55013212.53946  21481412.1724                   21481411.2424
 -18709890.66447 -14534603.93046  22081543.9844                   22081543.3914
 -91131442.93447 -70967279.48845  23002670.2424                   23002669.3164
   3816690.60546   3015623.66043  24189627.7734                   24189629.6764
 11  8 14  0 41 30.0000000  0  8G09G02G12G10G04G05G17G25
 -37135922.41847 -28886953.48044  23478398.2274                   23478400.1564
 -53984146.54748 -42015403.68046  20505843.6884                   20505839.5124
 -28833345.51248 -22424807.61746  21398983.0084                   21398980.5944
 -42904880.78548 -33387888.28546  20802194.2974                   20802192.9774
 -70871067.36748 -55028846.16846  21477594.5234                   21477593.3984
 -18898185.05547 -14681326.72745  22045712.9534                   22045712.2974
 -91174859.33247 -71001110.49245  22994408.9304                   22994407.0554
   3620480.98846   2862733.10943  24152289.9774                   24152292.2194
 11  8 14  0 42  0.0000000  0  8G09G02G12G10G04G05G17G25
 -37153383.43747 -28900559.57444  23475075.7344                   23475077.4144
 -54082245.51248 -42091844.41046  20487175.9924                   20487171.8484
 -28990860.88747 -22547546.87546  21369009.1484                   21369006.8484
 -43006314.12147 -33466927.23446  20782892.2664                   20782890.7304
 -70890922.91848 -55044318.05145  21473816.2974                   21473814.9344
 -19086153.20347 -14827795.29746  22009943.2344                   22009942.5514
 -91218074.66047 -71034784.83245  22986185.0004                   22986183.8164
   3424475.96546   2710002.00043  24114991.3984                   24114993.7234
 11  8 14  0 42 30.0000000  0  8G09G02G12G10G04G05G17G25
 -37170607.55947 -28913981.08244  23471797.5704                   23471800.0084
 -54179993.62948 -42168011.77346  20468575.4454                   20468571.3484
 -29147908.43448 -22669921.58646  21339123.6954                   21339121.5704
 -43107068.85248 -33545437.39546  20763719.5634                   20763717.9144
 -70910571.10948 -55059628.37545  21470077.2664                   21470076.0634
 -19273790.25047 -14974005.87546  21974237.0944                   21974236.2074
 -91261086.57047 -71068300.66845  22978000.0164                   22977999.1994
   3228679.64846   2557433.55943  24077733.1564                   24077735.3954
 11  8 14  0 43  0.0000000  0  8G09G02G12G10G04G05G17G25
 -35612179.75846 -27699621.88344  23768357.0084                   23768359.0164
 -52701970.62948 -41016305.52747  20749833.5234                   20749829.7624
 -27729063.30947 -21564328.00046  21609121.1564                   21609118.7624
 -41631723.27747 -32395817.43746  21044468.2974                   21044466.3754
 -69354595.58248 -53847179.93745  21766169.7274                   21766168.6374
 -17885669.69547 -13892353.40246  22238387.8054                   22238386.4454
 -89728475.61747 -69874058.43044  23269646.3444                   23269645.3834
   4608519.05147   3632633.16444  24340307.9384                   24340309.5554
 11  8 14  0 43 30.0000000  0  8G09G02G12G10G04G05G17G25
 -35628942.63347 -27712683.97344  23765166.8054                   23765169.0474
 -52799022.35948 -41091930.23847  20731365.4224                   20731361.2584
 -27885171.68048 -21685970.88746  21579414.6334                   21579412.0664
 -41731121.71548 -32473270.75046  21025553.3524                   21025551.4454
 -69373837.82848 -53862173.92245  21762507.6804                   21762506.6954
 -18072638.87947 -14038043.57845  22202808.6174                   22202807.8554
 -89771081.97347 -69907258.23845  23261538.7584                   23261537.2344
   4413145.52047   3480394.17244  24303129.2734                   24303131.6024
 11  8 14  0 44  0.0000000  0  8G09G02G12G10G04G05G17G25
 -35645482.37147 -27725572.20344  23762019.6954                   23762022.3054
 -52895729.88348 -41167286.74647  20712962.5704                   20712958.4804
 -28040808.96947 -21807246.71146  21549797.8204                   21549795.5864
 -41829843.59847 -32550196.87546  21006767.4924                   21006765.4734
 -69392882.37948 -53877013.84445  21758884.0634                   21758882.9964
 -18259271.94947 -14183471.84046  22167293.7814                   22167292.5354
 -89813486.92247 -69940301.13345  23253469.5164                   23253467.7734
   4217984.97747   3328321.12144  24265991.6644                   24265993.7424
 11  8 14  0 44 30.0000000  0  8G09G02G12G10G04G05G17G25
 -35661800.36747 -27738287.61343  23758914.4534                   23758916.7704
 -52992092.32848 -41242374.35946  20694625.2734                   20694621.3554
 -28195971.10547 -21928152.28546  21520271.6564                   21520269.2274
 -41927886.46947 -32626593.89546  20988110.1484                   20988108.6174
 -69411729.59448 -53891700.00045  21755297.4694                   21755296.4534
 -18445564.32847 -14328634.64546  22131842.7734                   22131842.1294
 -89855688.12147 -69973185.23844  23245438.5394                   23245437.3284
   4023041.83647   3176417.49644  24228894.9694                   24228897.4454
 11  8 14  0 45  0.0000000  0  8G09G02G12G10G04G05G17G25
 -35677902.85247 -27750835.12144  23755851.1564                   23755852.7464
 -53088113.89848 -41317196.36346  20676352.9924                   20676348.6994
 -28350658.57447 -22048687.97346  21490835.6954                   21490833.1724
 -42025252.93048 -32702463.84446  20969582.0084                   20969580.3284
 -69430384.22348 -53906236.09045  21751747.4924                   21751746.3054
 -18631515.60247 -14473531.64146  22096457.5704                   22096457.1214
 -89897687.70347 -70005912.26244  23237446.2344                   23237445.5554
   3828315.86747   3024683.09844  24191839.0314                   24191841.9104
 11  8 14  0 45 30.0000000  0  8G09G02G12G10G04G05G17G25
 -35693794.18047 -27763218.07844  23752826.6884                   23752828.7814
 -53183796.54348 -41391754.24646  20658145.0394                   20658140.9574
 -28504870.10948 -22168852.80146  21461489.9224                   21461487.1724
 -42121943.94147 -32777807.46946  20951182.3834                   20951180.7814
 -69448849.41048 -53920624.55145  21748234.1804                   21748232.6724
 -18817124.01647 -14618161.48846  22061137.7114                   22061136.3094
 -89939486.32047 -70038482.66444  23229492.8054                   23229491.3484
   3633808.66047   2873119.15244  24154825.7114                   24154828.2344
 11  8 14  0 46  0.0000000  0  8G09G02G12G10G04G05G17G25
 -35709477.97347 -27775439.32043  23749843.0084                   23749844.1724
 -53279141.36348 -41466048.91046  20640001.8524                   20639997.7544
 -28658603.49247 -22288645.04746  21432235.4694                   21432233.2074
 -42217959.18447 -32852624.52346  20932911.2274                   20932909.3444
 -69467127.30948 -53934867.07845  21744755.7734                   21744754.6804
 -19002386.98447 -14762522.14546  22025882.9844                   22025882.4924
 -89981083.44947 -70070896.04344  23221577.2974                   23221575.1994
   3439522.65647   2721727.57844  24117854.5704                   24117856.3244
 11  8 14  0 46 30.0000000  0  8G09G02G12G10G04G05G17G25
 -35724960.22347 -27787503.52743  23746896.0864                   23746898.1764
 -53374152.23848 -41540083.34046  20621921.4614                   20621917.7704
 -28811858.96147 -22408064.87946  21403072.0314                   21403069.6294
 -42313300.78948 -32926916.66046  20914768.4614                   20914766.5984
 -69485222.32048 -53948967.09445  21741312.8984                   21741311.3914
 -19187304.11347 -14906613.32046  21990694.2274                   21990693.5434
 -90022481.18047 -70103154.06644  23213699.1484                   23213697.3754
   3245457.79747   2570508.31344  24080925.2664                   24080927.6254
 11  8 14  0 47  0.0000000  0  8G09G02G12G10G04G05G17G25
 -35740240.99647 -27799410.73043  23743988.3364                   23743990.7344
 -53468826.59448 -41613855.55947  20603905.7734                   20603901.6294
 -28964630.73448 -22527107.81246  21374000.4224                   21373998.0394
 -42407965.09048 -33000681.03546  20896754.4064                   20896752.8094
 -69503133.04748 -53962923.50045  21737904.0164                   21737903.0124
 -19371868.89147 -15050429.94146  21955572.8914                   21955571.7154
 -90063675.41447 -70135253.50044  23205859.9774                   23205859.0314
   3051620.25847   2419466.19944  24044038.7034                   24044041.1414
 11  8 14  0 47 30.0000000  0  8G09G02G12G10G04G05G17G25
 -35755326.85246 -27811166.06244  23741116.9144                   23741119.9574
 -53563168.94948 -41687369.06246  20585952.9144                   20585948.9774
 -29116919.92647 -22645774.68746  21345020.8834                   21345018.7234
 -42501955.40247 -33073920.22346  20878868.6724                   20878866.8714
 -69520864.97348 -53976740.58645  21734529.8284                   21734528.5434
 -19556081.98847 -15193972.52746  21920518.1564                   21920517.1684
 -90104669.14147 -70167196.66044  23198059.0234                   23198057.5864
   2858009.39147   2268600.69144  24007196.0004                   24007198.2734
 11  8 14  0 48  0.0000000  0  8G09G02G12G10G04G05G17G25
 -35770220.69546 -27822771.74244  23738283.0704                   23738285.9494
 -53657180.03948 -41760624.43446  20568063.4534                   20568059.3164
 -29268723.73048 -22764063.35246  21316133.3984                   21316131.2424
 -42595270.72748 -33146633.44546  20861111.2504                   20861109.2074
 -69538419.34448 -53990419.32445  21731188.9534                   21731187.7194
 -19739940.23047 -15337238.59846  21885531.0704                   21885529.7934
 -90145461.15647 -70198982.67244  23190296.7734                   23190295.5314
   2664628.19547   2117914.12544  23970396.4844                   23970398.5124
 11  8 14  0 48 30.0000000  0  8G09G02G12G10G04G05G17G25
 -35784925.82847 -27834230.40244  23735485.2584                   23735487.8094
 -53750860.83648 -41833622.44146  20550236.5164                   20550232.3674
 -29420039.89548 -22881972.03546  21287338.8834                   21287336.6334
 -42687910.74647 -33218820.45346  20843482.5634                   20843480.7424
 -69555798.02048 -54003961.14545  21727882.3204                   21727880.9024
 -19923440.42647 -15480225.68046  21850612.0554                   21850611.0704
 -90186050.92647 -70230611.05544  23182572.9064                   23182571.6884
   2471479.52347   1967408.75444  23933641.4224                   23933643.6804
 11  8 14  0 49  0.0000000  0  8G09G02G12G10G04G05G17G25
 -35799444.93047 -27845544.08644  23732723.1724                   23732725.1914
 -53844211.66048 -41906363.32846  20532472.3594                   20532468.5904
 -29570865.52347 -22999498.48846  21258637.9454                   21258635.5474
 -42779874.61747 -33290480.58646  20825982.0634                   20825980.4534
 -69573002.35248 -54017367.13745  21724608.3984                   21724606.3954
 -20106578.71147 -15622930.74646  21815761.9144                   21815760.8984
 -90226437.20347 -70262080.90645  23174888.2194                   23174887.2504
   2278566.73447   1817087.20344  23896931.5234                   23896933.1374
 11  8 14  0 49 30.0000000  0  8G09G02G12G10G04G05G17G25
 -35813783.16847 -27856716.83244  23729993.9304                   23729996.5944
 -53937235.35548 -41978849.30546  20514770.8364                   20514766.8834
 -29721199.93748 -23116642.16446  21230029.9614                   21230027.5704
 -42871164.40248 -33361615.46146  20808610.3754                   20808608.5594
 -69590035.91448 -54030640.03545  21721366.6954                   21721365.7584
 -20289354.52347 -15765353.36746  21780980.7344                   21780979.5044
 -90266620.74247 -70293392.75044  23167240.8984                   23167239.6254
   2085890.68447   1666950.10244  23860266.3054                   23860268.0204
 11  8 14  0 50  0.0000000  0  8G09G02G12G10G04G05G17G25
 -35827947.16847 -27867753.80944  23727298.4064                   23727301.2774
 -54029936.50448 -42051083.94546  20497130.0004                   20497125.7584
 -29871044.46548 -23233404.11746  21201515.3984                   21201513.4924
 -42961783.26248 -33432227.52346  20791366.3364                   20791364.5234
 -69606904.13348 -54043784.10945  21718157.0164                   21718155.7584
 -20471768.18047 -15907493.80546  21746268.8914                   21746267.7034
 -90306605.36747 -70324549.59444  23159632.9534                   23159630.9534
   1893450.59446   1516996.86743  23823646.4924                   23823647.6054
 11  8 14  0 50 30.0000000  0  8G09G02G12G10G04G05G17G25
 -35841939.60947 -27878657.11744  23724636.0554                   23724638.6094
 -54122315.77748 -42123067.78546  20479551.0474                   20479546.7114
 -30020395.63748 -23349781.63346  21173094.6884                   21173092.5944
 -43051730.44948 -33502316.22346  20774250.0634                   20774248.2814
 -69623608.17648 -54056800.25845  21714978.5944                   21714976.9104
 -20653815.96547 -16049349.13746  21711625.7274                   21711625.2274
 -90346389.20747 -70355549.99245  23152062.2734                   23152060.4344
   1701249.77747   1367230.10244  23787071.1954                   23787073.0984
 11  8 14  0 51  0.0000000  0  8G09G02G12G10G04G05G17G25
 -35855760.07447 -27889426.41844  23722006.7664                   23722008.9924
 -54214370.10948 -42194798.42246  20462033.7274                   20462029.4734
 -30169248.04348 -23465770.50446  21144769.6724                   21144767.1294
 -43141001.68048 -33571878.19146  20757261.9144                   20757260.2584
 -69640146.05548 -54069686.92645  21711831.1094                   21711830.3484
 -20835491.35547 -16190914.29346  21677054.5784                   21677053.4104
 -90385968.03547 -70386390.64144  23144530.2114                   23144529.2854
   1509294.97347   1217655.03944  23750543.9534                   23750545.5044
 11  8 14  0 51 30.0000000  0  8G09G02G12G10G04G05G17G25
 -34293993.22747 -26672465.32844  24019200.7034                   24019203.4064
 -52730679.49248 -41038675.84446  20744370.5004                   20744366.3204
 -28742176.13748 -22353766.41446  21416331.6804                   21416329.8674
 -41654175.93048 -32413312.64846  21040195.4304                   21040193.4414
 -68081100.82848 -52854846.50045  22008508.0004                   22008506.2544
 -19441367.15248 -15104583.66846  21942347.7894                   21942346.0864
 -88849921.71947 -69189471.43044  23436830.5164                   23436827.7074
   2893013.35247   2295877.27044  24013856.4064                   24013858.4224
 11  8 14  0 52  0.0000000  0  8G09G02G12G10G04G05G17G25
 -34307483.37147 -26682977.21144  24016633.8754                   24016636.1524
 -52822091.28548 -41109905.80146  20726975.6954                   20726971.4844
 -28890027.66048 -22468975.37546  21388197.5944                   21388194.7194
 -41742099.22748 -32481824.28946  21023463.6024                   21023462.3524
 -68097315.70748 -52867481.48045  22005422.4694                   22005421.0984
 -19622292.73048 -15245564.57046  21907918.3054                   21907916.7854
 -88889092.42247 -69219994.09845  23429376.7734                   23429375.4384
   2701554.73047   2146688.85244  23977422.8674                   23977425.0044
 11  8 14  0 52 30.0000000  0  8G09G02G12G10G04G05G17G25
 -34320817.34047 -26693367.40244  24014096.9774                   24014099.1054
 -52913187.13348 -41180889.56246  20709640.4924                   20709636.3444
 -29037379.25448 -22583794.78946  21360156.5314                   21360154.1604
 -41829352.61348 -32549813.91046  21006860.5554                   21006858.5634
 -68113375.62148 -52879995.71945  22002366.0474                   22002364.9614
 -19802843.26247 -15386253.22346  21873560.8364                   21873559.1644
 -88928062.17647 -69250360.11344  23421959.9304                   23421959.2894
   2510344.32047   1997693.84444  23941037.2114                   23941038.9924
 11  8 14  0 53  0.0000000  0  8G09G02G12G10G04G05G17G25
 -34333997.96947 -26703638.16444  24011589.0554                   24011591.2974
 -53003967.74248 -41251627.69146  20692365.6024                   20692361.5864
 -29184228.35948 -22698222.65246  21332212.1254                   21332209.6334
 -41915935.68048 -32617281.20746  20990384.2344                   20990382.5204
 -68129282.22348 -52892390.48845  21999339.0004                   21999338.0474
 -19983015.34047 -15526646.97746  21839274.3364                   21839273.1994
 -88966830.34847 -69280569.13744  23414583.6564                   23414582.8554
   2319385.14847   1848894.59444  23904697.9224                   23904700.0594
 11  8 14  0 53 30.0000000  0  8G09G02G12G10G04G05G17G25
 -34347028.67647 -26713792.07444  24009108.7734                   24009111.7384
 -53094434.54348 -41322121.29346  20675149.9064                   20675145.8834
 -29330572.76648 -22812257.24646  21304363.6884                   21304361.3524
 -42001848.74248 -32684226.42246  20974035.6884                   20974033.5984
 -68145037.45348 -52904667.31245  21996341.6724                   21996339.9414
 -20162806.23848 -15666743.71546  21805062.0084                   21805060.4024
 -89005396.16847 -69310620.43444  23407243.8364                   23407243.0554
   2128679.78547   1700293.10544  23868408.3594                   23868410.0824
 11  8 14  0 54  0.0000000  0  8G09G02G12G10G04G05G17G25
 -34359913.32447 -26723832.19944  24006657.9384                   24006659.3444
 -53184589.45748 -41392371.85546  20657993.8914                   20657989.9774
 -29476411.34848 -22925897.68446  21276611.7894                   21276609.1454
 -42087092.60248 -32750650.18746  20957814.1564                   20957812.2154
 -68160643.66848 -52916828.02045  21993371.0554                   21993369.9104
 -20342213.76248 -15806541.71546  21770921.4144                   21770920.2894
 -89043759.86347 -69340514.24244  23399943.5784                   23399943.0944
   1938230.22347   1551890.92644  23832167.0864                   23832168.3594
 11  8 14  0 54 30.0000000  0  8G09G02G12G10G04G05G17G25
 -34372657.82047 -26733763.10244  24004232.2894                   24004235.2194
 -53274435.71148 -41462381.90647  20640897.0004                   20640892.7384
 -29621744.03548 -23039143.91846  21248955.7274                   21248953.3874
 -42171669.46148 -32816554.21146  20941719.6094                   20941717.7774
 -68176105.07848 -52928875.89845  21990429.7424                   21990427.8444
 -20521237.56247 -15946040.70746  21736854.4384                   21736853.0274
 -89081923.09447 -69370251.85944  23392681.7344                   23392680.0274
   1748036.98447   1403688.48844  23795974.0394                   23795975.7074
 11  8 14  0 55  0.0000000  0  8G09G02G12G10G04G05G17G25
 -34385265.55947 -26743587.42644  24001833.6334                   24001835.8524
 -53363974.60548 -41532152.45746  20623858.2274                   20623854.3284
 -29766568.96948 -23151994.50846  21221396.3134                   21221394.3134
 -42255579.71948 -32881938.80546  20925752.2034                   20925750.3164
 -68191423.87548 -52940812.64145  21987513.6564                   21987512.5944
 -20699875.08248 -16085238.70746  21702860.9454                   21702859.0784
 -89119885.82447 -69399833.23844  23385457.0394                   23385456.9654
   1558102.48047   1255687.64144  23759831.3754                   23759832.3014
 11  8 14  0 55 30.0000000  0  8G09G02G12G10G04G05G17G25
 -34397742.48447 -26753309.80144  23999458.4924                   23999461.3954
 -53453210.22348 -41601686.69146  20606877.1334                   20606873.0634
 -29910886.63348 -23264449.82046  21193933.8984                   21193931.3164
 -42338826.67248 -32946806.53946  20909910.7504                   20909908.7774
 -68206604.41048 -52952641.65245  21984625.7344                   21984624.6294
 -20878126.15248 -16224135.57046  21668940.6644                   21668939.2074
 -89157650.55547 -69429260.30544  23378270.9384                   23378270.0084
   1368426.66047   1107888.35244  23723737.1804                   23723738.6604
 11  8 14  0 56  0.0000000  0  8G09G02G12G10G04G05G17G25
 -34410092.92247 -26762933.61743  23997108.5784                   23997111.9654
 -53542144.60548 -41670986.19146  20589953.9924                   20589949.4844
 -30054696.30948 -23376509.29746  21166567.8674                   21166565.1484
 -42421411.41048 -33011158.26646  20894195.4774                   20894193.5944
 -68221649.56647 -52964365.16845  21981762.2584                   21981761.0554
 -21055989.10247 -16362730.00846  21635094.4454                   21635092.8984
 -89195217.25447 -69458533.08644  23371122.8364                   23371121.5474
   1179011.16047    960291.90244  23687692.1484                   23687693.4774
 11  8 14  0 56 30.0000000  0  8G09G02G12G10G04G05G17G25
 -34422317.70746 -26772459.52043  23994782.1564                   23994785.3754
 -53630776.19148 -41740049.74246  20573087.6414                   20573083.3554
 -30197993.14148 -23488169.15646  21139299.1804                   21139296.8594
 -42503331.59848 -33074992.15646  20878606.2504                   20878604.5204
 -68236558.52347 -52975982.56245  21978925.3204                   21978924.0354
 -21233458.46548 -16501017.75046  21601322.7114                   21601321.3444
 -89232582.95346 -69487649.25044  23364011.6724                   23364011.3554
    989861.32447    812902.48444  23651697.9694                   23651699.7584
 11  8 14  0 57  0.0000000  0  8G09G02G12G10G04G05G17G25
 -34434418.97746 -26781889.15644  23992479.4224                   23992482.2154
 -53719105.06248 -41808877.41046  20556278.9844                   20556274.9574
 -30340773.81248 -23599426.80946  21112129.0004                   21112126.6604
 -42584586.28948 -33138307.48446  20863143.8524                   20863142.0944
 -68251332.02747 -52987494.40245  21976113.4924                   21976112.9654
 -21410530.38347 -16638995.78946  21567627.1094                   21567625.9494
 -89269745.94547 -69516607.43444  23356940.0004                   23356939.2854
    800980.96547    665723.01644  23615755.1724                   23615757.0704
 11  8 14  0 57 30.0000000  0  8G09G02G12G10G04G05G17G25
 -34446403.01646 -26791227.44543  23990198.6334                   23990202.1414
 -53807135.75048 -41877472.72747  20539527.6174                   20539523.2854
 -30483039.47748 -23710283.16046  21085056.6644                   21085053.9574
 -42665179.41848 -33201107.30546  20847807.7664                   20847805.6764
 -68265974.73448 -52998904.32845  21973327.4224                   21973326.7234
 -21587205.21548 -16776664.42246  21534007.2974                   21534005.6684
 -89306709.21946 -69545410.00844  23349905.6254                   23349904.8404
    612369.62147    518753.18844  23579864.2274                   23579865.5234
 11  8 14  0 58  0.0000000  0  8G09G02G12G10G04G05G17G25
 -34458271.97346 -26800476.07844  23987940.8834                   23987943.7274
 -53894867.87548 -41945835.39846  20522832.7344                   20522828.2934
 -30624786.91848 -23820735.69546  21058083.3364                   21058080.5634
 -42745109.72348 -33263390.64546  20832597.4144                   20832595.3014
 -68280487.41448 -53010212.93045  21970566.1094                   21970564.7854
 -21763479.32048 -16914020.80146  21500463.2894                   21500461.7194
 -89343470.93747 -69574055.48444  23342910.8674                   23342910.2304
    424031.26647    371996.07844  23544024.4924                   23544025.8284
 11  8 14  0 58 30.0000000  0  8G09G02G12G10G04G05G17G25
 -34470029.93746 -26809638.17644  23985703.5474                   23985706.2344
 -53982303.44948 -42013967.00046  20506194.1174                   20506189.9844
 -30766014.93748 -23930783.48446  21031208.2584                   21031205.7704
 -42824378.21948 -33325158.28146  20817513.2194                   20817511.5044
 -68294872.41047 -53021422.03545  21967828.1094                   21967827.6564
 -21939350.69947 -17051063.37146  21466995.8204                   21466994.2304
 -89380031.25847 -69602544.03144  23335952.7504                   23335952.3634
    235967.90247    225453.24244  23508236.2814                   23508238.5984
 11  8 14  0 59  0.0000000  0  8G09G02G12G10G04G05G17G25
 -34481680.95346 -26818716.99243  23983485.7734                   23983488.9494
 -54069444.75848 -42081869.28946  20489611.7274                   20489607.6374
 -30906722.50448 -24040425.72346  21004432.4304                   21004429.8484
 -42902986.37148 -33386411.36746  20802554.4844                   20802552.3524
 -68309132.43447 -53032533.75045  21965115.2194                   21965113.8954
 -22114817.26648 -17187790.49246  21433606.0004                   21433604.4454
 -89416390.84846 -69630876.17244  23329033.6094                   23329033.4304
     48181.20347     79126.00444  23472502.4454                   23472503.5004
 11  8 14  0 59 30.0000000  0  8G09G02G12G10G04G05G17G25
 -34493227.37146 -26827714.26643  23981289.6024                   23981292.1724
 -54156291.64148 -42149542.17247  20473085.2274                   20473081.1524
 -31046906.37948 -24149659.87546  20977756.3594                   20977753.7774
 -42980933.94548 -33447149.71546  20787721.5634                   20787719.7894
 -68323268.18447 -53043548.63345  21962425.1484                   21962424.2114
 -22289875.52047 -17324199.45346  21400293.3984                   21400291.4884
 -89452548.19147 -69659050.73444  23322153.8204                   23322152.7504
   -139325.06647    -66982.72744  23436820.3834                   23436822.2424
 11  8 14  1  0  0.0000000  0  8G09G02G12G10G04G05G17G25
 -32929255.39546 -25609034.90243  24278902.9224                   24278905.9964
 -52667425.77048 -40989386.92646  20756406.7814                   20756402.7034
 -29611143.18448 -23030883.32446  21250972.9304                   21250970.2774
 -41482801.96148 -32279774.12946  21072806.5634                   21072804.7384
 -66761864.41447 -51826870.38745  22259550.5864                   22259549.4884
 -20889099.84848 -16232685.87946  21666851.7114                   21666850.9104
 -87913084.67247 -68459468.77044  23615104.4144                   23615103.0784
   1248874.85247   1014731.57044  23700986.3134                   23700988.3054
 11  8 14  1  0 30.0000000  0  8G09G02G12G10G04G05G17G25
 -32940605.57446 -25617879.28943  24276744.0084                   24276746.1844
 -52753690.35548 -41056606.06646  20739991.3914                   20739987.0474
 -29750277.02748 -23139299.27346  21224496.8284                   21224493.7774
 -41559432.86348 -32339486.50446  21058224.3134                   21058222.4144
 -66775760.21547 -51837698.29745  22256906.7194                   22256904.9574
 -21063336.14548 -16368454.35946  21633695.7194                   21633694.6334
 -87948839.07847 -68487329.35544  23608300.3054                   23608299.4454
   1061934.50847    869063.83244  23665412.4304                   23665413.6484
 11  8 14  1  1  0.0000000  0  8G09G02G12G10G04G05G17G25
 -32951863.49246 -25626651.80543  24274601.0314                   24274603.9144
 -52839666.78948 -41123600.66846  20723630.6174                   20723626.6094
 -29888883.93748 -23247304.60946  21198120.6174                   21198118.3134
 -41635406.98448 -32398687.10246  21043766.6334                   21043764.3164
 -66789539.29347 -51848435.26245  22254284.3054                   22254283.1334
 -21237158.57848 -16503900.35246  21600618.5864                   21600616.6174
 -87984392.44147 -68515033.23844  23601535.1804                   23601534.2344
    875280.12147    723618.91844  23629893.2664                   23629894.8674
 11  8 14  1  1 30.0000000  0  8G09G02G12G10G04G05G17G25
 -32963032.69146 -25635355.23043  24272475.9534                   24272478.8594
 -52925356.44548 -41190371.81246  20707324.0944                   20707320.1484
 -30026962.39548 -23354898.17646  21171845.1484                   21171842.6454
 -41710725.50448 -32457376.84446  21029434.3364                   21029432.1884
 -66803204.10547 -51859083.17245  22251683.1564                   22251682.1804
 -21410564.89547 -16639022.09046  21567620.4064                   21567618.6914
 -88019744.69547 -68542580.44544  23594808.0944                   23594805.9414
    688914.01247    578398.64844  23594428.5084                   23594430.7734
 11  8 14  1  2  0.0000000  0  8G09G02G12G10G04G05G17G25
 -32974117.70746 -25643993.03143  24270366.2424                   24270369.3634
 -53010761.82848 -41256921.44146  20691072.1174                   20691067.5664
 -30164511.66048 -23462079.37546  21145670.2664                   21145668.1174
 -41785390.20747 -32515557.10946  21015225.9454                   21015224.2344
 -66816757.37147 -51869644.16845  22249104.6724                   22249103.3954
 -21583553.62148 -16773818.44146  21534701.3364                   21534699.7894
 -88054896.50447 -68569971.48044  23588118.5704                   23588117.2734
    502837.70747    433404.20344  23559020.0704                   23559021.4804
 11  8 14  1  2 30.0000000  0  8G09G02G12G10G04G05G17G25
 -32985118.65646 -25652565.32043  24268273.5234                   24268276.3954
 -53095880.86748 -41323247.95346  20674874.4304                   20674870.3594
 -30301526.69548 -23568844.30146  21119597.1484                   21119594.5944
 -41859398.24648 -32573225.69546  21001142.6094                   21001140.6524
 -66830197.64147 -51880117.12145  22246547.0704                   22246545.7584
 -21756118.87548 -16908284.81246  21501863.1564                   21501861.8914
 -88089844.26647 -68597203.46944  23581467.6884                   23581466.7234
    317057.08647    288640.13344  23523667.1254                   23523668.9414
 11  8 14  1  3  0.0000000  0  8G09G02G12G10G04G05G17G25
 -32996043.80947 -25661078.59443  24266194.7814                   24266197.4414
 -53180719.66048 -41389356.09846  20658730.3594                   20658726.0824
 -30438010.70748 -23675195.43746  21093625.3914                   21093622.6954
 -41932755.58648 -32630387.24646  20987183.1094                   20987181.2274
 -66843531.47347 -51890507.12545  22244009.4844                   22244008.5474
 -21928263.19148 -17042423.17246  21469105.2974                   21469103.9494
 -88124592.76646 -68624280.24244  23574855.3444                   23574854.2154
    131569.78547    144104.65244  23488370.3134                   23488371.5594
 11  8 14  1  3 30.0000000  0  8G09G02G12G10G04G05G17G25
 -33006894.13747 -25669533.59443  24264130.1724                   24264132.9844
 -53265276.98848 -41455244.92246  20642639.3674                   20642635.0864
 -30573959.62948 -23781129.62146  21067755.0004                   21067752.5204
 -42005460.43748 -32687040.35946  20973347.8284                   20973346.2154
 -66856758.20747 -51900813.67245  22241493.0004                   22241492.1094
 -22099981.49248 -17176229.57046  21436428.3134                   21436427.0004
 -88159138.98047 -68651199.37944  23568281.7584                   23568280.4654
    -53619.12947      -198.34444  23453130.0944                   23453130.9654
 11  8 14  1  4  0.0000000  0  8G09G02G12G10G04G05G17G25
 -33017672.64147 -25677932.66443  24262078.9614                   24262081.5784
 -53349554.07448 -41520915.36346  20626602.4384                   20626598.1804
 -30709371.52348 -23886645.34846  21041986.8134                   21041984.1254
 -42077513.67648 -32743185.73846  20959636.3674                   20959634.2304
 -66869879.65247 -51911038.16845  22238995.6804                   22238994.4414
 -22271271.45748 -17309702.20746  21403833.0704                   21403831.7814
 -88193482.68747 -68677960.73444  23561746.4064                   23561744.9804
   -238506.94547   -144266.73444  23417946.7034                   23417948.0474
 11  8 14  1  4 30.0000000  0  8G09G02G12G10G04G05G17G25
 -33028384.85946 -25686280.07843  24260040.9144                   24260043.4654
 -53433554.25848 -41586370.04746  20610617.6024                   20610613.5124
 -30844246.55948 -23991742.73846  21016320.9844                   21016318.1954
 -42148918.36348 -32798825.73446  20946048.6174                   20946046.8984
 -66882899.51647 -51921183.51645  22236518.0394                   22236516.9414
 -22442132.40248 -17442840.53946  21371319.3364                   21371317.5634
 -88227625.57447 -68704565.58644  23555249.8834                   23555247.8594
   -423093.23447   -288100.13744  23382820.7974                   23382822.3634
 11  8 14  1  5  0.0000000  0  8G09G02G12G10G04G05G17G25
 -33039036.82046 -25694580.58643  24258014.1414                   24258016.6214
 -53517281.99648 -41651612.43446  20594684.7034                   20594680.4264
 -30978585.95748 -24096422.76246  20990757.0704                   20990754.5554
 -42219677.81248 -32853962.95746  20932583.4614                   20932581.7114
 -66895822.39147 -51931253.30145  22234058.8524                   22234057.5864
 -22612564.58648 -17575644.78546  21338887.0234                   21338885.5704
 -88261569.89847 -68731015.71944  23548790.0164                   23548789.0204
   -607378.08247   -431698.64544  23347753.5084                   23347754.1644
 11  8 14  1  5 30.0000000  0  8G09G02G12G10G04G05G17G25
 -33049628.39846 -25702834.03943  24255998.4454                   24256002.0474
 -53600734.39848 -41716640.27046  20578804.0234                   20578800.1604
 -31112384.44148 -24200681.30946  20965295.9384                   20965293.0824
 -42289789.43448 -32908595.37546  20919241.7974                   20919240.3324
 -66908646.57447 -51941246.17645  22231618.7114                   22231617.5274
 -22782562.20348 -17708110.38746  21306537.2894                   21306536.0164
 -88295312.59447 -68757308.75044  23542368.9454                   23542366.6764
   -791355.38747   -575057.53945  23312743.0234                   23312744.4144
 11  8 14  1  6  0.0000000  0  8G09G02G12G10G04G05G17G25
 -33060162.54746 -25711042.75843  24253994.4534                   24253997.7664
 -53683912.80548 -41781454.61346  20562975.6954                   20562971.7034
 -31245640.04748 -24304516.82046  20939938.1484                   20939935.7624
 -42359254.13748 -32962723.71546  20906023.3054                   20906021.2304
 -66921373.13747 -51951162.99245  22229196.8594                   22229196.0044
 -22952122.43048 -17840235.18446  21274271.2424                   21274269.4384
 -88328852.53947 -68783443.78544  23535986.5944                   23535985.3364
   -975022.19947   -718174.48044  23277792.2734                   23277793.6564
 11  8 14  1  6 30.0000000  0  8G09G02G12G10G04G05G17G25
 -33070645.04346 -25719211.25443  24251999.7034                   24252003.1724
 -53766820.79348 -41846058.22746  20547199.0084                   20547194.9694
 -31378353.74648 -24407930.08646  20914683.4694                   20914681.0704
 -42428075.00848 -33016350.35546  20892927.1884                   20892924.9964
 -66934006.37947 -51961007.09445  22226793.0554                   22226791.6024
 -23121245.16448 -17972019.07446  21242088.3984                   21242086.6884
 -88362191.74647 -68809422.39544  23529642.2034                   23529640.8794
  -1158378.44547   -861049.41045  23242900.8984                   23242902.0434
 11  8 14  1  7  0.0000000  0  8G09G02G12G10G04G05G17G25
 -33081075.79746 -25727339.44144  24250014.9304                   24250018.2854
 -53849456.54348 -41910449.71146  20531473.7504                   20531469.6604
 -31510520.90648 -24510917.47746  20889533.0164                   20889530.3014
 -42496250.04348 -33069473.75046  20879953.7424                   20879951.5004
 -66946544.84047 -51970777.34445  22224407.1804                   22224405.9104
 -23289925.15247 -18103457.97746  21209989.5084                   21209988.0434
 -88395327.04347 -68835242.12144  23523336.6484                   23523335.8054
  -1341418.42647  -1003677.89144  23208069.4304                   23208070.4454
 11  8 14  1  7 30.0000000  0  8G09G02G12G10G04G05G17G25
 -33091457.73046 -25735429.59844  24248039.8284                   24248043.3674
 -53931821.03148 -41974629.82046  20515800.4534                   20515796.4924
 -31642139.00048 -24613477.02746  20864486.9534                   20864484.3204
 -42563780.07048 -33122094.53546  20867103.1024                   20867101.0514
 -66958989.98047 -51980474.85945  22222038.8284                   22222037.8554
 -23458159.42248 -18234549.55946  21177975.4454                   21177973.8834
 -88428257.56646 -68860902.27744  23517070.6644                   23517069.1914
  -1524139.14147  -1146057.60544  23173298.5394                   23173300.2464
 11  8 14  1  8  0.0000000  0  8G09G02G12G10G04G05G17G25
 -33101797.07046 -25743486.57443  24246072.2894                   24246076.0784
 -54013918.39848 -42038601.77746  20500177.9064                   20500173.6804
 -31773209.28548 -24715609.72346  20839545.2584                   20839542.5354
 -42630668.89548 -33174215.69146  20854374.4774                   20854372.7774
 -66971346.11347 -51990103.03945  22219687.6564                   22219686.6644
 -23625948.52748 -18365294.26646  21146046.2274                   21146044.5474
 -88460986.28146 -68886405.20744  23510842.0234                   23510841.3634
  -1706540.81647  -1288188.71145  23138589.7814                   23138589.8014
 11  8 14  1  8 30.0000000  0  8G09G02G12G10G04G05G17G25
 -31536676.39846 -24523912.32043  24543904.5864                   24543909.1054
 -52520326.91848 -40874764.25046  20784398.6884                   20784394.8284
 -30328306.13748 -23589711.17646  21114500.9224                   21114498.6604
 -41121494.98448 -31998236.00846  21141561.0004                   21141559.4454
 -65408194.41447 -50772062.77045  22517145.2424                   22517144.3914
 -22217864.13748 -17268085.59846  21413995.5234                   21413993.9734
 -86918091.51247 -67684149.51244  23804445.4144                   23804444.4614
   -313194.65247   -202464.37945  23403733.5084                   23403734.8484
 11  8 14  1  9  0.0000000  0  8G09G02G12G10G04G05G17G25
 -31546937.78946 -24531908.50443  24541952.4384                   24541956.1644
 -52601891.37148 -40938320.95346  20768877.3594                   20768873.3054
 -30458274.65248 -23690985.34046  21089768.7034                   21089766.1724
 -41187102.05148 -32049358.39546  21129076.5314                   21129074.0314
 -65420375.31247 -50781554.39845  22514827.3204                   22514826.4574
 -22384753.11348 -17398128.89846  21382237.8054                   21382236.4344
 -86950412.99247 -67709335.12144  23798294.8834                   23798294.1764
   -494948.26647   -344090.50444  23369146.9144                   23369147.9654
 11  8 14  1  9 30.0000000  0  8G09G02G12G10G04G05G17G25
 -31557170.21147 -24539882.12143  24540005.9694                   24540009.3244
 -52683196.33648 -41001675.45746  20753405.9384                   20753401.5904
 -30587694.82448 -23791832.23046  21065141.0004                   21065138.3874
 -41252074.85948 -32099986.53546  21116712.0314                   21116710.2074
 -65432476.27047 -50790983.72745  22512524.5784                   22512523.8054
 -22551193.58248 -17527822.73046  21350564.9384                   21350563.3794
 -86982535.64546 -67734365.76644  23792181.5864                   23792180.5124
   -676378.92647   -485464.98044  23334622.0234                   23334623.3484
 11  8 14  1 10  0.0000000  0  8G09G02G12G10G04G05G17G25
 -31567373.21146 -24547832.80143  24538064.1094                   24538068.2304
 -52764239.16448 -41064825.69146  20737983.6254                   20737979.7194
 -30716561.43748 -23892247.78546  21040618.5704                   21040616.1094
 -41316410.84048 -32150118.45346  21104469.3914                   21104467.2034
 -65444494.94147 -50800348.93445  22510237.9384                   22510236.0634
 -22717179.64848 -17657162.46546  21318979.0004                   21318977.3754
 -87014455.38747 -67759238.30144  23786108.3524                   23786106.6294
   -857480.34047   -626582.90244  23300159.6484                   23300160.9024
 11  8 14  1 10 30.0000000  0  8G09G02G12G10G04G05G17G25
 -31577549.84046 -24555762.90244  24536127.7974                   24536131.7154
 -52845021.18048 -41127772.70346  20722611.6484                   20722607.4804
 -30844872.73048 -23992230.60546  21016201.6884                   21016198.9734
 -41380111.37548 -32199755.22746  21092347.6724                   21092345.6684
 -65456432.80147 -50809651.17245  22507966.0234                   22507965.1024
 -22882708.70748 -17786146.09846  21287479.6024                   21287478.0984
 -87046171.86747 -67783952.45344  23780072.2424                   23780070.9384
  -1038249.78147   -767442.14144  23265759.9304                   23265761.6254
 11  8 14  1 11  0.0000000  0  8G09G02G12G10G04G05G17G25
 -31587704.90647 -24563676.14843  24534196.0004                   24534199.5084
 -52925545.30548 -41190518.76246  20707288.3364                   20707284.1094
 -30972629.03548 -24091780.97346  20991890.4774                   20991888.0824
 -41443179.17648 -32248898.94546  21080346.0314                   21080344.2234
 -65468293.23447 -50818893.07045  22505709.1094                   22505707.7194
 -23047779.99648 -17914773.02746  21256067.8594                   21256066.0984
 -87077686.27346 -67808509.14844  23774075.7034                   23774074.9844
  -1218686.31647   -908041.98845  23231424.1644                   23231425.3284
 11  8 14  1 11 30.0000000  0  8G09G02G12G10G04G05G17G25
 -31597836.35246 -24571571.02743  24532268.6024                   24532272.1914
 -53005807.67248 -41253060.84846  20692015.0164                   20692010.6374
 -31099823.39148 -24190893.45346  20967685.9144                   20967683.7034
 -41505610.15248 -32297546.43746  21068466.1254                   21068464.1604
 -65480072.53547 -50828071.73445  22503468.0944                   22503466.4614
 -23212385.89148 -18043037.31246  21224744.5164                   21224742.4804
 -87108993.50847 -67832904.41444  23768117.8054                   23768116.7304
  -1398782.19147  -1048376.37944  23197153.0554                   23197154.1414
 11  8 14  1 12  0.0000000  0  8G09G02G12G10G04G05G17G25
 -31607953.09846 -24579454.40243  24530343.4454                   24530347.3554
 -53085815.15648 -41315404.33646  20676789.7894                   20676785.8874
 -31226460.43048 -24289571.63746  20943587.8134                   20943585.5704
 -41567411.36748 -32345703.21146  21056705.7584                   21056703.5084
 -65491778.24647 -50837193.04745  22501240.1414                   22501238.6804
 -23376530.01648 -18170941.77346  21193508.8444                   21193507.3484
 -87140098.74647 -67857142.25044  23762199.7114                   23762197.8754
  -1578540.60247  -1188447.81245  23162946.5554                   23162947.1054
 11  8 14  1 12 30.0000000  0  8G09G02G12G10G04G05G17G25
 -31618055.35546 -24587326.52743  24528420.3444                   24528425.0594
 -53165566.11348 -41377547.93046  20661613.9774                   20661609.3714
 -31352535.40648 -24387811.87146  20919596.6484                   20919593.8244
 -41628581.22747 -32393368.02046  21045065.5864                   21045063.1524
 -65503408.43747 -50846255.51245  22499027.2894                   22499025.4494
 -23540206.81248 -18298482.09046  21162362.1174                   21162360.2664
 -87170999.23047 -67881220.56644  23756318.5704                   23756317.9064
  -1757955.86747  -1328251.85545  23128804.6254                   23128805.5434
 11  8 14  1 13  0.0000000  0  8G09G02G12G10G04G05G17G25
 -31628148.48846 -24595191.52343  24526500.2664                   24526504.1024
 -53245063.85548 -41439494.21546  20646485.8054                   20646481.5204
 -31478049.38748 -24485614.95346  20895711.9144                   20895709.5084
 -41689123.00448 -32440543.40246  21033544.5554                   21033542.8954
 -65514967.27347 -50855262.37945  22496827.1254                   22496826.0594
 -23703416.77348 -18425658.64146  21131304.0314                   21131302.4884
 -87201696.84447 -67905140.79744  23750476.8914                   23750476.4344
  -1937027.66047  -1467788.28545  23094728.1644                   23094729.5234
 11  8 14  1 13 30.0000000  0  8G09G02G12G10G04G05G17G25
 -31638235.79346 -24603051.96943  24524580.5634                   24524584.9024
 -53324309.93748 -41501244.39546  20631405.5554                   20631402.0204
 -31603001.00848 -24582979.82846  20871934.3594                   20871931.7934
 -41749038.19948 -32487230.54746  21022143.3364                   21022141.0204
 -65526456.44547 -50864214.95745  22494641.1094                   22494639.5514
 -23866157.59848 -18552469.62546  21100335.3984                   21100334.1484
 -87232191.12946 -67928902.62144  23744674.2194                   23744673.5044
  -2115753.58647  -1607055.19545  23060717.2344                   23060718.4264
 11  8 14  1 14  0.0000000  0  8G09G02G12G10G04G05G17G25
 -31648320.18046 -24610910.14843  24522661.9384                   24522666.7934
 -53403305.10548 -41562799.07046  20616373.5474                   20616369.6054
 -31727388.48848 -24679905.10946  20848264.3364                   20848261.6804
 -41808328.02048 -32533430.39546  21010860.7734                   21010858.5744
 -65537877.16447 -50873114.18045  22492467.5394                   22492466.2854
 -24028426.56248 -18678912.93046  21069456.7114                   21069455.0514
 -87262482.02046 -67952505.92244  23738909.6484                   23738909.2624
  -2294130.87947  -1746050.44145  23026773.1644                   23026773.6724
 11  8 14  1 14 30.0000000  0  8G09G02G12G10G04G05G17G25
 -31658407.42246 -24618770.51244  24520742.7664                   24520747.0044
 -53482053.70348 -41624161.61346  20601388.2504                   20601383.9384
 -31851213.22348 -24776391.89546  20824701.5784                   20824698.6844
 -41866996.15248 -32579145.79746  20999696.5784                   20999694.4694
 -65549233.50047 -50881963.26645  22490306.5784                   22490305.2624
 -24190224.21148 -18804988.97346  21038667.8364                   21038666.1604
 -87292571.82046 -67975952.53144  23733184.3134                   23733183.6844
  -2472159.43747  -1884773.95745  22992896.1484                   22992896.8284
 11  8 14  1 15  0.0000000  0  8G09G02G12G10G04G05G17G25
 -31668495.34846 -24626631.47743  24518823.3134                   24518827.2934
 -53560551.45348 -41685328.68746  20586450.4844                   20586446.1604
 -31974468.62548 -24872435.03146  20801246.6414                   20801243.9384
 -41925038.79748 -32624373.80146  20988651.5004                   20988649.3164
 -65560521.60247 -50890759.16444  22488158.2584                   22488156.5944
 -24351542.98848 -18930691.85946  21007969.7034                   21007967.9224
 -87322454.73846 -67999237.92644  23727497.5234                   23727496.0514
  -2649831.35547  -2023219.56644  22959085.9384                   22959086.2464
 11  8 14  1 15 30.0000000  0  8G09G02G12G10G04G05G17G25
 -31678588.41046 -24634496.39843  24516902.3284                   24516907.0784
 -53638800.52048 -41746301.98046  20571560.1954                   20571556.0474
 -32097154.68448 -24968034.52346  20777899.9454                   20777897.6844
 -41982458.58248 -32669116.46946  20977724.6954                   20977722.7384
 -65571744.31247 -50899504.13745  22486022.4384                   22486021.3754
 -24512381.60248 -19056020.60546  20977362.8054                   20977361.5634
 -87352132.11346 -68022363.13344  23721850.2814                   23721849.3674
  -2827145.29747  -2161386.23445  22925344.3754                   22925344.8594
 11  8 14  1 16  0.0000000  0  8G09G02G12G10G04G05G17G25
 -31688692.49646 -24642369.95743  24514979.6414                   24514985.1884
 -53716805.10248 -41807084.76646  20556716.4614                   20556712.4224
 -32219272.63348 -25063191.35546  20754662.1024                   20754659.3484
 -42039259.72348 -32713377.07446  20966916.0004                   20966913.9064
 -65582905.71947 -50908201.32844  22483899.1024                   22483897.8914
 -24672741.01648 -19180975.94546  20946847.5084                   20946846.0004
 -87381606.19146 -68045329.94944  23716241.5864                   23716239.9384
  -3004101.43447  -2299274.09845  22891670.4844                   22891671.5314
 11  8 14  1 16 30.0000000  0  8G09G02G12G10G04G05G17G25
 -30123387.91446 -23422652.28543  24812847.8054                   24812853.0204
 -52219141.46548 -40640074.14146  20841712.3134                   20841708.2584
 -30765394.58248 -23930299.33246  21031325.4144                   21031322.9384
 -40520019.46548 -31529553.48446  21256017.7894                   21256015.7154
 -64018584.62547 -49689249.83244  22781578.9224                   22781578.2664
 -23257191.14848 -18077950.02346  21216217.8134                   21216215.9654
 -85835453.28146 -66840535.44543  24010464.8594                   24010463.6094
  -1605268.99647  -1209274.74644  23157859.3054                   23157860.2854
 11  8 14  1 17  0.0000000  0  8G09G02G12G10G04G05G17G25
 -30133519.57046 -23430547.33243  24810919.5944                   24810924.5664
 -52296657.19948 -40700476.00846  20826961.6414                   20826957.6644
 -30886368.91448 -24024565.02046  21008304.7504                   21008302.6994
 -40575584.34848 -31572850.77746  21245443.8134                   21245442.0434
 -64029624.66847 -49697852.46544  22779478.4224                   22779477.4414
 -23416581.91848 -18202150.57846  21185886.8204                   21185885.0124
 -85864517.22346 -66863182.67643  24004933.1484                   24004933.4924
  -1781498.49247  -1346596.39845  23124324.0474                   23124325.2814
 11  8 14  1 17 30.0000000  0  8G09G02G12G10G04G05G17G25
 -30143671.00046 -23438457.74643  24808987.8834                   24808993.3594
 -52373931.62148 -40760689.84446  20812256.8444                   20812252.5004
 -31006771.19948 -24118384.96546  20985393.2734                   20985390.7704
 -40630534.66448 -31615669.18046  21234987.2504                   21234984.8714
 -64040607.45747 -49706410.49244  22777388.4384                   22777387.2114
 -23575486.67648 -18325972.42246  21155647.9844                   21155646.3324
 -85893377.02346 -66885670.84043  23999441.7664                   23999440.5044
  -1957362.18047  -1483633.01645  23090858.4924                   23090859.4144
 11  8 14  1 18  0.0000000  0  8G09G02G12G10G04G05G17G25
 -30153846.79346 -23446387.18043  24807052.7504                   24807057.1994
 -52450967.86748 -40820718.07046  20797597.2274                   20797592.9384
 -31126601.85548 -24211759.48446  20962590.3984                   20962587.7424
 -40684873.82848 -31658011.37146  21224646.7734                   21224644.9024
 -64051536.12547 -49714926.34445  22775309.0864                   22775307.3834
 -23733904.79748 -18449415.06646  21125502.3444                   21125500.3404
 -85922034.53546 -66908001.37143  23993987.7584                   23993987.4344
  -2132859.29347  -1620383.99245  23057462.5474                   23057463.0744
 11  8 14  1 18 30.0000000  0  8G09G02G12G10G04G05G17G25
 -30164048.82046 -23454337.05143  24805110.8284                   24805115.8444
 -52527765.70748 -40880560.53946  20782983.3524                   20782978.7154
 -31245857.78148 -24304686.16446  20939896.3444                   20939894.0784
 -40738601.60548 -31699877.15246  21214423.1024                   21214420.7234
 -64062410.54747 -49723399.93445  22773239.2584                   22773238.4344
 -23891832.71548 -18572475.73846  21095449.3284                   21095447.6804
 -85950487.56646 -66930172.60944  23988574.4144                   23988574.1134
  -2307985.45347  -1756845.90245  23024136.8674                   23024137.8874
 11  8 14  1 19  0.0000000  0  8G09G02G12G10G04G05G17G25
 -30174280.73046 -23462310.20343  24803163.5004                   24803169.3984
 -52604326.74248 -40940218.48846  20768413.9924                   20768409.8634
 -31364538.64848 -24397164.75046  20917312.1414                   20917309.8914
 -40791720.26648 -31741268.29346  21204314.7584                   21204312.3404
 -64073232.94147 -49731832.98445  22771179.8834                   22771179.3834
 -24049268.81248 -18695153.17646  21065490.3364                   21065488.2544
 -85978737.13746 -66952185.24243  23983198.3284                   23983197.7034
  -2482739.02747  -1893017.49645  22990882.6024                   22990883.3324
 11  8 14  1 19 30.0000000  0  8G09G02G12G10G04G05G17G25
 -30184546.15246 -23470309.48043  24801211.0394                   24801215.9144
 -52680652.87948 -40999693.39146  20753889.3284                   20753885.5904
 -31482643.92248 -24489194.81646  20894837.4224                   20894835.1954
 -40844232.17248 -31782186.64546  21194321.9384                   21194319.4344
 -64084004.94947 -49740226.76244  22769130.6884                   22769128.6844
 -24206211.52748 -18817446.16046  21035625.5084                   21035623.0274
 -86006783.38346 -66974039.46543  23977860.9064                   23977860.4734
  -2657117.96147  -2028897.15245  22957699.1334                   22957700.1254
 11  8 14  1 20  0.0000000  0  8G09G02G12G10G04G05G17G25
 -30194848.20746 -23478337.32443  24799250.9224                   24799255.0704
 -52756745.52748 -41058986.35546  20739409.8364                   20739405.8874
 -31600172.64848 -24580775.63346  20872472.6024                   20872470.2194
 -40896139.05548 -31822633.55146  21184444.7664                   21184442.4654
 -64094728.35947 -49748582.67644  22767089.4844                   22767088.4264
 -24362659.27348 -18939353.45346  21005854.1024                   21005852.1174
 -86034626.32446 -66995735.25443  23972563.2274                   23972562.0634
  -2831119.83647  -2164483.02045  22924588.1884                   22924589.2814
 11  8 14  1 20 30.0000000  0  8G09G02G12G10G04G05G17G25
 -30205187.73847 -23486394.29343  24797283.7114                   24797287.5864
 -52832603.55148 -41118096.50046  20724974.3524                   20724970.1724
 -31717121.48048 -24671904.59046  20850217.8364                   20850215.3594
 -40947439.97748 -31862608.28946  21174682.0394                   21174680.3444
 -64105402.30547 -49756900.07044  22765058.6644                   22765057.5664
 -24518607.46148 -19060871.47346  20976178.0864                   20976175.9884
 -86062263.56246 -67017270.76243  23967303.7894                   23967302.3794
  -3004739.97347  -2299771.41445  22891549.0864                   22891550.0634
 11  8 14  1 21  0.0000000  0  8G09G02G12G10G04G05G17G25
 -30215571.36747 -23494485.61343  24795307.5084                   24795311.6604
 -52908231.84048 -41177027.62146  20710582.8754                   20710578.7974
 -31833492.84048 -24762583.56246  20828073.2504                   20828070.6994
 -40998140.59448 -31902115.23846  21165033.9304                   21165032.2234
 -64116031.64547 -49765182.69144  22763035.4064                   22763034.2584
 -24674057.81248 -19182001.57846  20946596.9694                   20946594.7424
 -86089698.73046 -67038648.83244  23962083.9774                   23962082.4774
  -3177979.35247  -2434763.11745  22858582.7034                   22858583.4184
 11  8 14  1 21 30.0000000  0  8G09G02G12G10G04G05G17G25
 -30226001.54747 -23502613.29743  24793323.3524                   24793327.4534
 -52983631.21148 -41235780.35946  20696234.7664                   20696230.3834
 -31949285.21548 -24852811.38346  20806038.6174                   20806036.2814
 -41048241.96948 -31941155.26646  21155499.9384                   21155497.8244
 -64126617.34847 -49773431.29744  22761021.3204                   22761019.7034
 -24829007.64548 -19302741.66846  20917110.6954                   20917108.7814
 -86116930.99646 -67059868.82444  23956900.9224                   23956900.4064
  -3350834.93747  -2569455.76645  22825689.1024                   22825690.5634
 11  8 14  1 22  0.0000000  0  8G09G02G12G10G04G05G17G25
 -30236479.68046 -23510778.29343  24791329.0704                   24791333.7664
 -53058801.30548 -41294354.44546  20681930.4844                   20681926.2894
 -32064496.07048 -24942586.07046  20784114.7734                   20784112.3444
 -41097744.32848 -31979728.52346  21146080.2664                   21146078.1294
 -64137159.24647 -49781645.80544  22759015.7424                   22759014.4184
 -24983453.78148 -19423089.26646  20887720.6724                   20887718.9654
 -86143958.91446 -67080929.55944  23951757.2344                   23951756.2664
  -3523302.77047  -2703846.25445  22792869.7734                   22792870.6334
 11  8 14  1 22 30.0000000  0  8G09G02G12G10G04G05G17G25
 -30247011.55546 -23518985.15243  24789325.4304                   24789330.1564
 -53133745.76648 -41352752.70746  20667668.9384                   20667664.5984
 -32179127.11348 -25031908.96546  20762301.4694                   20762298.7934
 -41146652.30948 -32017838.62546  21136773.4774                   21136771.2664
 -64147661.27747 -49789829.22344  22757016.5554                   22757015.6054
 -25137396.73848 -19543044.77046  20858426.1094                   20858424.1724
 -86170784.96546 -67101832.94944  23946653.5234                   23946651.3404
  -3695382.98847  -2837934.70745  22760123.6724                   22760125.0514
 11  8 14  1 23  0.0000000  0  7G02G12G10G04G05G17G25
 -53208462.38748 -41410973.43746  20653450.9304                   20653446.0784
 -32293173.56648 -25120776.32446  20740598.8984                   20740596.3324
 -41194963.91848 -32055484.02345  21127579.8444                   21127577.7584
 -64158121.44147 -49797980.03144  22755026.0084                   22755024.8714
 -25290831.29348 -19662604.13346  20829228.6094                   20829226.6484
 -86197405.27046 -67122576.09044  23941587.6724                   23941586.0234
  -3867069.60547  -2971716.44545  22727453.1644                   22727454.2154
 11  8 14  1 23 30.0000000  0  7G02G12G10G04G05G17G25
 -53282952.50048 -41469017.67646  20639275.5944                   20639271.7584
 -32406634.59448 -25209187.51646  20719007.9924                   20719005.3874
 -41242680.71547 -32092665.93046  21118499.5944                   21118497.8524
 -64168540.88347 -49806099.12144  22753043.5944                   22753042.5434
 -25443755.07048 -19781765.48446  20800127.9694                   20800126.3284
 -86223820.22347 -67143159.22344  23936561.7424                   23936559.8874
  -4038360.03147  -3105189.45745  22694857.5084                   22694858.1334
 11  8 14  1 24  0.0000000  0  7G02G12G10G04G05G17G25
 -53357217.66848 -41526886.62546  20625143.3594                   20625139.3364
 -32519509.50848 -25297141.99646  20697528.5704                   20697526.1524
 -41289805.07847 -32129386.20745  21109531.9304                   21109530.0234
 -64178921.20747 -49814187.72744  22751068.2894                   22751068.1844
 -25596166.81248 -19900527.84046  20771125.3134                   20771123.2114
 -86250029.49246 -67163582.03544  23931573.0314                   23931572.0594
  -4209252.20747  -3238352.13745  22662337.4304                   22662338.8634
 11  8 14  1 24 30.0000000  0  7G02G12G10G04G05G17G25
 -53431254.00048 -41584577.25846  20611054.8984                   20611050.5124
 -32631792.32848 -25384635.10246  20676161.8834                   20676159.1214
 -41336333.78148 -32165642.33246  21100677.9774                   21100675.9494
 -64189258.68747 -49822242.93444  22749101.3914                   22749100.1994
 -25748059.07848 -20018885.41046  20742220.8134                   20742218.8364
 -86276028.57446 -67183841.07044  23926626.1024                   23926624.8984
  -4379738.55947  -3371198.57845  22629895.0704                   22629895.9574
 11  8 14  1 25  0.0000000  0  7G02G12G10G04G05G17G25
 -51929641.34448 -40414489.45346  20896802.6024                   20896798.3164
 -31168059.35248 -24244063.94546  20954701.2194                   20954698.5044
 -39806847.78548 -30973835.04745  21391729.0554                   21391727.4884
 -62624135.04347 -48602666.07844  23046935.0164                   23046932.7304
 -24324006.07048 -18909233.67246  21013209.2584                   21013207.0514
 -84726397.00047 -65976335.94944  24221511.6254                   24221510.3324
  -2974391.58247  -2276122.94545  22897323.8594                   22897324.6414
 11  8 14  1 25 30.0000000  0  7G02G12G10G04G05G17G25
 -52003224.45348 -40471826.92646  20882799.7504                   20882795.5004
 -31279156.60248 -24330633.23046  20933559.9924                   20933557.3794
 -39852191.50847 -31009167.80945  21383100.8054                   21383098.6024
 -62634391.71147 -48610658.32444  23044982.9224                   23044981.8204
 -24474855.67248 -19026778.77746  20984503.3834                   20984501.6334
 -84751975.79746 -65996267.50044  24216643.1644                   24216642.2114
  -3144059.79747  -2408331.86345  22865037.2664                   22865037.4924
 11  8 14  1 26  0.0000000  0  7G02G12G10G04G05G17G25
 -52076587.07048 -40528992.58246  20868839.4694                   20868835.3134
 -31389664.05548 -24416742.93446  20912531.0234                   20912528.5394
 -39896950.33648 -31044044.80145  21374583.4224                   21374581.5634
 -62644614.26647 -48618623.95744  23043037.7344                   23043036.1454
 -24625185.61348 -19143918.95346  20955896.5394                   20955894.7424
 -84777348.80946 -66016038.67644  24211814.9694                   24211814.8364
  -3313319.82048  -2540222.72745  22832828.1644                   22832828.2194
 11  8 14  1 26 30.0000000  0  7G02G12G10G04G05G17G25
 -52149729.14548 -40585986.39146  20854920.8444                   20854916.5944
 -31499579.35248 -24502391.20346  20891614.8674                   20891612.0124
 -39941124.44948 -31078466.17645  21366177.4454                   21366175.2194
 -62654802.62147 -48626562.95344  23041098.4384                   23041097.1644
 -24774992.21948 -19260651.33246  20927389.3524                   20927387.0944
 -84802514.19947 -66035648.08244  24207025.9694                   24207025.8524
  -3482167.64547  -2671792.37945  22800697.2424                   22800698.1134
 11  8 14  1 27  0.0000000  0  7G02G12G10G04G05G17G25
 -52222651.73848 -40642809.18446  20841044.0634                   20841039.6644
 -31608901.89848 -24587577.59846  20870811.5784                   20870808.8754
 -39984715.68748 -31112433.35246  21357882.2034                   21357880.2774
 -62664957.85947 -48634476.14844  23039166.6804                   23039164.8094
 -24924273.70748 -19376974.53146  20898981.9304                   20898980.1254
 -84827472.62947 -66055096.20343  24202276.7974                   24202276.5234
  -3650600.68048  -2803038.82845  22768644.9694                   22768646.3554
 11  8 14  1 27 30.0000000  0  7G02G12G10G04G05G17G25
 -52295359.18048 -40699464.32046  20827208.7114                   20827204.4574
 -31717634.09848 -24672303.98046  20850120.3444                   20850117.8054
 -40027729.55948 -31145950.63745  21349697.0784                   21349694.8324
 -62675084.65247 -48642367.17244  23037239.3754                   23037238.8364
 -25073031.80948 -19492889.89846  20870674.2974                   20870672.4224
 -84852226.92646 -66074385.27343  24197566.4924                   24197565.2854
  -3818620.07048  -2933962.96545  22736672.3524                   22736672.9924
 11  8 14  1 28  0.0000000  0  7G02G12G10G04G05G17G25
 -52367853.31648 -40755953.24646  20813413.2974                   20813408.8524
 -31825775.43448 -24756569.94946  20829541.7194                   20829538.8984
 -40070168.33248 -31179019.79346  21341620.9144                   21341619.0984
 -62685184.48447 -48650237.18444  23035317.2664                   23035316.3014
 -25221265.53948 -19608396.66046  20842466.2034                   20842464.3834
 -84876777.39146 -66093515.52343  24192894.1254                   24192893.6134
  -3986223.65248  -3064563.07845  22704777.9384                   22704778.9574
 11  8 14  1 28 30.0000000  0  7G02G12G10G04G05G17G25
 -52440137.78948 -40812278.80146  20799657.6334                   20799653.5274
 -31933327.62948 -24840376.84446  20809075.1644                   20809072.8164
 -40112036.39848 -31211644.23446  21333654.1334                   21333651.5044
 -62695261.30547 -48658089.24244  23033399.6484                   23033398.6454
 -25368975.27748 -19723495.11346  20814357.8284                   20814355.8954
 -84901126.62946 -66112488.95343  24188260.7894                   24188260.3204
  -4153411.53148  -3194839.28945  22672963.2114                   22672963.9614
 11  8 14  1 29  0.0000000  0  7G02G12G10G04G05G17G25
 -52512209.81648 -40868438.80946  20785943.1334                   20785938.8204
 -32040286.49248 -24923721.39846  20788721.6484                   20788719.1884
 -40153331.89548 -31243822.52045  21325795.5474                   21325793.7504
 -62705312.31647 -48665921.21544  23031486.6724                   23031485.9884
 -25516155.41048 -19838180.89146  20786350.5314                   20786348.4924
 -84925270.90246 -66131302.68043  24183666.3914                   24183665.5704
  -4320177.47748  -3324786.70745  22641228.7734                   22641229.7034
 11  8 14  1 29 30.0000000  0  7G02G12G10G04G05G17G25
 -52584072.27048 -40924435.51646  20772268.2424                   20772263.9184
 -32146652.96148 -25006604.35246  20768480.7734                   20768478.0474
 -40194058.76248 -31275557.71946  21318045.6954                   21318043.5594
 -62715340.43047 -48673735.34844  23029578.5164                   23029577.7074
 -25662805.91048 -19952453.96146  20758443.7814                   20758441.7194
 -84949212.02346 -66149958.09043  24179110.5084                   24179109.6804
  -4486520.85948  -3454404.86745  22609574.6484                   22609575.6764
 11  8 14  1 30  0.0000000  0  7G02G12G10G04G05G17G25
 -52655727.57048 -40980270.79746  20758632.6254                   20758628.3874
 -32252427.28148 -25089025.87946  20748352.3754                   20748349.8874
 -40234220.05548 -31306852.20746  21310403.3754                   21310401.0784
 -62725347.85947 -48681533.34844  23027673.9224                   23027673.5434
 -25808926.23048 -20066313.91446  20730638.0864                   20730635.9494
 -84972950.71546 -66168455.78543  24174593.2734                   24174592.4964
  -4652440.26248  -3583692.65645  22578001.2584                   22578001.2894
 11  8 14  1 30 30.0000000  0  7G02G12G10G04G05G17G25
 -52727174.28148 -41035943.54746  20745036.5634                   20745032.4304
 -32357606.67248 -25170983.82846  20728337.5474                   20728334.9384
 -40273815.66448 -31337705.91046  21302868.4534                   21302865.9734
 -62735333.55947 -48689314.42244  23025773.9774                   23025772.7734
 -25954512.48048 -20179757.69946  20702933.6024                   20702931.7114
 -84996484.75446 -66186794.00843  24170115.1954                   24170114.6994
  -4817931.01248  -3712646.43745  22546509.2274                   22546509.8754
 11  8 14  1 31  0.0000000  0  7G02G12G10G04G05G17G25
 -52798413.56248 -41091454.65646  20731480.4304                   20731476.3244
 -32462189.87148 -25252477.19946  20708435.9924                   20708433.3524
 -40312847.51648 -31368120.32046  21295440.7894                   21295438.6884
 -62745298.44947 -48697079.28544  23023877.7034                   23023876.5704
 -26099562.73048 -20292783.82846  20675331.4144                   20675329.6024
 -85019814.11746 -66204972.74243  24165675.1024                   24165674.4534
  -4982990.66848  -3841264.29745  22515099.5164                   22515100.0784
 11  8 14  1 31 30.0000000  0  7G02G12G10G04G05G17G25
 -52869449.19548 -41146807.09446  20717962.4694                   20717958.2584
 -32566179.61348 -25333508.14846  20688647.1884                   20688644.7734
 -40351320.43047 -31398099.19946  21288119.6804                   21288117.7894
 -62755246.48847 -48704831.00844  23021984.7894                   23021983.5634
 -26244077.88348 -20405392.98846  20647831.0944                   20647828.6414
 -85042941.53146 -66222994.08243  24161274.2734                   24161273.1254
  -5147619.45347  -3969546.42245  22483771.7504                   22483772.3444
 11  8 14  1 32  0.0000000  0  7G02G12G10G04G05G17G25
 -52940281.86748 -41202001.37546  20704483.6804                   20704479.6524
 -32669574.28148 -25414075.39846  20668972.0704                   20668969.3134
 -40389235.86347 -31427643.67245  21280904.5004                   21280902.3594
 -62765177.74246 -48712569.66044  23020095.0004                   23020094.3754
 -26388055.81248 -20517583.55546  20620432.9534                   20620430.9304
 -85065866.35946 -66240857.58243  24156911.6484                   24156911.3094
  -5311814.23847  -4097490.36345  22452526.3524                   22452526.8094
 11  8 14  1 32 30.0000000  0  7G02G12G10G04G05G17G25
 -53010914.06648 -41257039.43746  20691042.7734                   20691038.6724
 -32772375.27048 -25494180.03946  20649409.6174                   20649407.1484
 -40426597.40248 -31456756.54345  21273794.8444                   21273792.6764
 -62775095.43747 -48720297.77344  23018207.8284                   23018207.0394
 -26531496.81648 -20629355.72346  20593137.2194                   20593135.0704
 -85088590.10546 -66258564.42243  24152587.9534                   24152587.3094
  -5475574.62147  -4225095.80145  22421363.7584                   22421364.4384
 11  8 14  1 33  0.0000000  0  8G29G02G12G10G04G05G17G25
  17074863.39556  13340837.17653  24505487.1954                   24505487.6484
 -53081346.83648 -41311922.09846  20677640.0234                   20677635.6294
 -32874581.51248 -25573821.24246  20629960.6884                   20629957.8094
 -40463407.23448 -31485439.52745  21266790.0704                   21266787.7934
 -62785000.52747 -48728016.02744  23016322.8594                   23016322.2274
 -26674398.79748 -20740707.87946  20565943.7424                   20565941.8244
 -85111112.84446 -66276114.61343  24148302.1024                   24148301.1094
  -5638897.90647  -4352360.65245  22390284.5634                   22390284.9024
 11  8 14  1 33 30.0000000  0  8G29G02G12G10G04G05G17G25
  18478121.78547  14434285.35543  24772518.1174                   24772519.0004
 -51576164.94548 -40139053.07846  20964066.7344                   20964061.7544
 -31400775.37948 -24425400.85946  20910416.6644                   20910413.7234
 -38924252.18448 -30286097.91846  21559681.6024                   21559679.5354
 -61219479.62947 -47508129.64144  23314232.3204                   23314230.9384
 -25241341.73048 -19624039.99646  20838645.2424                   20838643.8014
 -83558019.60546 -65065912.09043  24443845.7034                   24443845.3634
  -4226362.30147  -3251683.52045  22659081.1564                   22659081.6884
 11  8 14  1 34  0.0000000  0  8G29G02G12G10G04G05G17G25
  18305888.94147  14300077.99643  24739743.1414                   24739743.8134
 -51646215.08648 -40193637.58646  20950736.2814                   20950731.8794
 -31501803.65648 -24504124.18446  20891191.6804                   20891189.0824
 -38959977.59047 -30313935.88745  21552883.1254                   21552881.4614
 -61229375.07447 -47515840.42644  23312348.7504                   23312348.0664
 -25383174.27748 -19734558.83646  20811655.4694                   20811653.4844
 -83580152.59446 -65083158.57443  24439634.8054                   24439633.3014
  -4388817.05147  -3378271.59045  22628166.8674                   22628167.4414
 11  8 14  1 34 30.0000000  0  8G29G02G12G10G04G05G17G25
  18133591.60247  14165820.41443  24706956.3364                   24706956.4144
 -51716075.00048 -40248073.87146  20937442.4304                   20937438.1804
 -31602241.52348 -24582387.43746  20872078.7274                   20872075.8324
 -38995163.65247 -30341353.58645  21546187.2504                   21546185.7934
 -61239266.89547 -47523548.34444  23310466.5634                   23310465.2464
 -25524469.19948 -19844658.73846  20784768.2734                   20784765.7734
 -83602090.69546 -65100253.19143  24435459.1644                   24435458.2274
  -4550833.59847  -3504518.21145  22597335.9534                   22597336.5904
 11  8 14  1 35  0.0000000  0  8G29G02G12G10G04G05G17G25
  17961231.76246  14031514.10943  24674157.0394                   24674157.1414
 -51785744.52348 -40302361.80146  20924184.9144                   20924180.6454
 -31702087.59448 -24660189.54746  20853078.2344                   20853075.6524
 -39029811.27347 -30368351.73445  21539594.4064                   21539592.2734
 -61249154.86347 -47531253.29344  23308584.8204                   23308583.8444
 -25665223.75448 -19954337.57846  20757983.2274                   20757981.0634
 -83623832.32847 -65117194.71543  24431322.0084                   24431320.9694
  -4712408.34047  -3630420.55945  22566589.4304                   22566589.8914
 11  8 14  1 35 30.0000000  0  8G29G02G12G10G04G05G17G25
  17788810.39146  13897159.89843  24641346.2344                   24641347.2274
 -51855224.31248 -40356501.87946  20910963.1644                   20910958.8244
 -31801341.12548 -24737529.94946  20834191.4304                   20834188.6484
 -39063922.20747 -30394931.66045  21533103.1804                   21533101.2154
 -61259039.64147 -47538955.73844  23306703.1884                   23306702.5514
 -25805435.91848 -20063593.77346  20731301.6024                   20731299.4414
 -83645377.28947 -65133982.98843  24427222.8834                   24427220.4454
  -4873538.49647  -3755976.45745  22535927.2034                   22535928.0044
 11  8 14  1 36  0.0000000  0  8G29G02G12G10G04G05G17G25
  17616327.32846  13762757.60543  24608524.0164                   24608524.8524
 -51924516.29748 -40410495.62946  20897777.4844                   20897773.0634
 -31900001.91848 -24814408.47346  20815416.8204                   20815413.8954
 -39097499.23847 -30421095.57845  21526713.9844                   21526711.9534
 -61268922.68047 -47546656.84844  23304822.5234                   23304822.3834
 -25945104.78548 -20172426.62546  20704723.6094                   20704721.6254
 -83666726.17246 -65150618.48043  24423159.6884                   24423158.7774
  -5034222.38747  -3881184.64545  22505350.2894                   22505351.0314
 11  8 14  1 36 30.0000000  0  8G29G02G12G10G04G05G17G25
  17443784.91846  13628309.00043  24575690.3204                   24575690.0394
 -51993619.76248 -40464342.48446  20884627.2584                   20884622.8134
 -31998068.25848 -24890823.79746  20796755.4454                   20796752.7344
 -39130543.24648 -30446844.14845  21520425.5554                   21520423.1844
 -61278803.59446 -47554356.29344  23302942.5784                   23302941.6484
 -26084227.57448 -20280833.96146  20678249.4224                   20678247.4614
 -83687877.64546 -65167100.13343  24419135.4144                   24419133.2424
  -5194456.25447  -4006042.14145  22474858.6804                   22474859.5394
 11  8 14  1 37  0.0000000  0  8G29G02G12G10G04G05G17G25
  17271183.76646  13493814.66443  24542845.0784                   24542845.5474
 -52062535.35948 -40518042.94946  20871512.8204                   20871508.6604
 -32095539.67248 -24966775.54746  20778206.9924                   20778204.6994
 -39163056.20747 -30472178.92645  21514238.8364                   21514236.4304
 -61288683.11347 -47562054.65644  23301062.7814                   23301062.3554
 -26222802.56648 -20388814.44146  20651879.5234                   20651877.1604
 -83708831.29746 -65183427.59044  24415147.7114                   24415146.2234
  -5354237.47747  -4130546.93445  22444453.1484                   22444453.5514
 11  8 14  1 37 30.0000000  0  8G29G02G12G10G04G05G17G25
  17098524.03146  13359274.65643  24509988.7894                   24509988.9964
 -52131264.94948 -40571598.47746  20858434.4774                   20858429.6564
 -32192416.26648 -25042263.79346  20759772.1334                   20759769.7974
 -39195041.20748 -30497102.28945  21508152.1884                   21508149.7464
 -61298562.62146 -47569753.01244  23299183.2584                   23299181.7384
 -26360828.89548 -20496367.39846  20625613.8594                   20625611.8404
 -83729587.85946 -65199601.55944  24411197.3204                   24411196.7504
  -5513564.39847  -4254697.71945  22414134.3674                   22414134.5554
 11  8 14  1 38  0.0000000  0  8G29G02G12G10G04G05G17G25
  16925808.47346  13224691.18043  24477122.1024                   24477122.5044
 -52199807.48848 -40625008.24246  20845391.2734                   20845386.4804
 -32288695.55148 -25117286.61346  20741451.0634                   20741447.9734
 -39226498.09448 -30521614.14145  21502166.2274                   21502164.1884
 -61308441.17646 -47577450.63344  23297302.7584                   23297302.0234
 -26498302.80948 -20603489.89846  20599453.4924                   20599451.1564
 -83750145.37546 -65215620.39843  24407285.0314                   24407285.2274
  -5672432.55947  -4378491.03145  22383902.6484                   22383902.9454
 11  8 14  1 38 30.0000000  0  8G29G02G12G10G04G05G17G25
  16753035.63746  13090063.06343  24444244.5634                   24444245.5864
 -52268165.74248 -40678274.40646  20832382.9614                   20832378.4844
 -32384379.00848 -25191845.14846  20723243.1414                   20723240.4344
 -39257431.16447 -30545717.82445  21496279.8594                   21496277.2814
 -61318321.53146 -47585149.61744  23295422.9454                   23295421.7154
 -26635225.01648 -20710182.50047  20573398.1484                   20573395.7854
 -83770505.81247 -65231485.69144  24403412.0394                   24403410.5044
  -5830841.65247  -4501926.61745  22353758.4534                   22353758.5314
 11  8 14  1 39  0.0000000  0  8G29G02G12G10G04G05G17G25
  16580208.02046  12955392.26643  24411356.3204                   24411356.6214
 -52336339.09048 -40731396.49646  20819410.2344                   20819405.2504
 -32479464.52348 -25265937.75446  20705148.7974                   20705145.9614
 -39287841.20347 -30569413.95745  21490492.8284                   21490490.8324
 -61328202.93447 -47592849.44144  23293542.9774                   23293541.0864
 -26771592.35948 -20816442.73446  20547448.0474                   20547445.8054
 -83790667.44946 -65247196.03144  24399574.7274                   24399573.7034
  -5988787.69948  -4625001.39145  22323702.0704                   22323702.3364
 11  8 14  1 39 30.0000000  0  8G29G02G12G10G04G05G17G25
  16407324.68846  12820678.08243  24378457.1884                   24378457.5904
 -52404329.93448 -40784376.37946  20806471.9614                   20806467.6334
 -32573953.68748 -25339565.67646  20687167.9534                   20687165.0904
 -39317731.80147 -30592705.31245  21484805.1094                   21484803.0664
 -61338087.52347 -47600551.76644  23291661.7504                   23291660.9024
 -26907405.23048 -20922270.91446  20521603.5864                   20521601.9774
 -83810631.49646 -65262752.48443  24395775.6254                   24395775.2734
  -6146269.71547  -4747714.59445  22293734.0234                   22293734.9534
 11  8 14  1 40  0.0000000  0  8G29G02G12G10G04G05G17G25
  16234384.94946  12685919.95743  24345548.0164                   24345548.5354
 -52472140.61348 -40837215.87546  20793567.7034                   20793563.2234
 -32667847.25448 -25412729.49646  20669300.6024                   20669297.7074
 -39347106.46548 -30615594.66445  21479215.2034                   21479212.9344
 -61347977.77747 -47608258.47744  23289779.6804                   23289778.6684
 -27042663.10548 -21027666.63346  20495865.0314                   20495862.8834
 -83830399.67646 -65278156.28143  24392013.8134                   24392013.5234
  -6303286.85247  -4870065.54345  22263854.6804                   22263855.4844
 11  8 14  1 40 30.0000000  0  8G29G02G12G10G04G05G17G25
  16061390.68046  12551119.32043  24312628.6094                   24312629.0514
 -52539771.00448 -40889914.88346  20780698.3834                   20780694.0984
 -32761144.22348 -25485428.43746  20651547.0234                   20651544.2154
 -39375966.71547 -30638083.16045  21473722.9224                   21473720.8134
 -61357873.55947 -47615969.50044  23287896.7274                   23287895.2074
 -27177364.08648 -21132628.39847  20470232.4384                   20470229.8204
 -83849970.98846 -65293406.64143  24388290.1414                   24388288.6644
  -6459836.02747  -4992051.86345  22234064.1484                   22234065.0514
 11  8 14  1 41  0.0000000  0  8G29G02G12G10G04G05G17G25
  15888340.75446  12416275.35943  24279698.1254                   24279698.9264
 -52607223.83248 -40942475.52046  20767862.3364                   20767858.0634
 -32853845.77348 -25557663.41046  20633906.6954                   20633903.7344
 -39404316.23447 -30660173.69545  21468328.2974                   21468325.9344
 -61367777.23447 -47623686.69544  23286011.7814                   23286011.5824
 -27311508.17248 -21237156.21947  20444705.7424                   20444703.1684
 -83869347.24246 -65308505.04343  24384601.8134                   24384601.4344
  -6615916.46947  -5113672.93745  22204363.5944                   22204363.8444
 11  8 14  1 41 30.0000000  0  7G29G02G12G10G04G05G25
  15715238.57447  12281390.66443  24246758.5704                   24246758.0784
 -52674497.44548 -40994896.51646  20755060.8834                   20755056.3444
 -32945949.43448 -25629432.48846  20616379.5004                   20616376.8444
 -39432154.88347 -30681866.14145  21463031.1414                   21463028.6294
 -61377687.02046 -47631408.61344  23284126.2584                   23284125.6414
 -27445091.62948 -21341247.19547  20419285.2734                   20419283.0594
  -6771523.38747  -5234925.03545  22174752.4304                   22174753.0204
 11  8 14  1 42  0.0000000  0  7G29G02G12G10G04G05G25
  17117508.65646  13374068.76244  24513600.4924                   24513601.1214
 -51166172.50448 -39819578.36346  21042085.2894                   21042081.1414
 -31462033.71948 -24473134.53146  20898759.5394                   20898756.7624
 -37884066.14547 -29475563.21145  21757622.0004                   21757620.4264
 -59812185.39846 -46411537.25843  23582031.2584                   23582030.4144
 -26002690.78548 -20217298.45347  20693765.1094                   20693762.8444
  -5351231.34448  -4128203.93445  22445024.7114                   22445025.2734
 11  8 14  1 42 30.0000000  0  7G29G02G12G10G04G05G25
  16944304.07047  13239104.24644  24480641.3594                   24480641.5234
 -51233090.59048 -39871722.30546  21029351.0234                   21029346.6524
 -31552940.90648 -24543971.30546  20881460.1724                   20881457.5634
 -37910890.57048 -29496465.34845  21752517.5394                   21752515.5234
 -59822109.94546 -46419270.71944  23580142.8594                   23580142.4964
 -26135148.89148 -20320512.53147  20668559.1254                   20668557.1414
  -5505884.63347  -4248712.96945  22415595.5554                   22415595.7274
 11  8 14  1 43  0.0000000  0  7G29G02G12G10G04G05G25
  16771055.52746  13104105.53144  24447673.2974                   24447673.1644
 -51299825.98448 -39923723.90646  21016651.7504                   21016647.3444
 -31643243.23848 -24614336.75046  20864276.1254                   20864273.7814
 -37937205.22348 -29516970.26245  21747510.6414                   21747508.1844
 -59832037.06646 -46427006.14144  23578254.2274                   23578253.0354
 -26267036.53548 -20423282.09047  20643462.1174                   20643460.2034
  -5660051.59447  -4368843.05146  22386257.9304                   22386258.4224
 11  8 14  1 43 30.0000000  0  7G29G02G12G10G04G05G25
  16597764.56347  12969073.69544  24414696.8984                   24414697.1334
 -51366379.46548 -39975583.73846  21003987.3054                   21003982.9734
 -31732940.31248 -24684230.57446  20847207.6954                   20847204.8874
 -37963011.50448 -29537079.04745  21742599.8364                   21742597.3714
 -59841966.68746 -46434743.53944  23576364.2034                   23576363.7274
 -26398352.12948 -20525605.88747  20618473.0704                   20618470.5514
  -5813729.47348  -4488592.05545  22357014.2584                   22357014.8364
 11  8 14  1 44  0.0000000  0  7G29G02G12G10G04G05G25
  16424428.67247  12834006.87144  24381712.2664                   24381712.2074
 -51432754.64848 -40027304.64546  20991356.3594                   20991352.0634
 -31822035.07448 -24753655.05546  20830253.2424                   20830250.6564
 -37988315.02347 -29556796.07045  21737784.2734                   21737782.4224
 -59851902.64146 -46442485.89544  23574473.5634                   23574472.8054
 -26529097.21148 -20627485.13746  20593593.2584                   20593591.1024
  -5966919.09448  -4607960.59445  22327863.2974                   22327864.0864
 11  8 14  1 44 30.0000000  0  7G29G02G12G10G04G05G25
  16251047.68847  12698904.89544  24348718.3984                   24348718.5204
 -51498953.33248 -40078888.00846  20978759.3284                   20978755.0314
 -31910528.31648 -24822610.81646  20813413.7974                   20813410.7974
 -38013119.43747 -29576124.17245  21733064.2344                   21733062.0234
 -59861846.85247 -46450234.67644  23572581.3914                   23572580.6024
 -26659271.54348 -20728919.65246  20568821.8284                   20568819.6024
  -6119619.28148  -4726947.77045  22298805.5084                   22298805.8054
 11  8 14  1 45  0.0000000  0  7G29G02G12G10G04G05G25
  16077619.19147  12563765.89544  24315716.3364                   24315716.4414
 -51564979.81648 -40130337.19946  20966194.7584                   20966190.6644
 -31998423.44948 -24891100.52346  20796687.8284                   20796684.6254
 -38037430.37147 -29595067.74245  21728437.6644                   21728435.8404
 -59871803.54347 -46457993.16044  23570687.1094                   23570686.0594
 -26788877.27748 -20829911.10546  20544158.9534                   20544156.5164
  -6271831.18448  -4845554.47345  22269840.7274                   22269840.7544
 11  8 14  1 45 30.0000000  0  7G29G02G12G10G04G05G25
  15904143.80147  12428590.32843  24282705.2274                   24282704.7384
 -51630835.53548 -40181653.31646  20953662.6884                   20953658.3874
 -32085720.36748 -24959124.08646  20780076.0314                   20780072.6024
 -38061250.47747 -29613628.85945  21723905.3054                   21723902.9384
 -59881773.34846 -46465761.85944  23568789.3834                   23568788.3794
 -26917913.85248 -20930459.05147  20519603.6564                   20519601.8244
  -6423552.91448  -4963779.23045  22240968.7274                   22240968.9964
 11  8 14  1 46  0.0000000  0  7G29G02G12G10G04G05G25
  15730622.60546  12293379.04744  24249685.1174                   24249685.0554
 -51696520.59848 -40232836.45346  20941163.5164                   20941159.0784
 -32172419.11748 -25026681.55146  20763577.3054                   20763574.5514
 -38084581.78147 -29631809.09845  21719465.6644                   21719463.2234
 -59891756.71146 -46473541.10244  23566889.5864                   23566888.7734
 -27046379.51648 -21030562.13347  20495157.5234                   20495155.1024
  -6574781.82848  -5081619.98045  22212190.9384                   22212191.0274
 11  8 14  1 46 30.0000000  0  7G29G02G12G10G04G05G25
  15557053.90246  12158130.75044  24216655.2584                   24216656.1954
 -51762038.50048 -40283889.32446  20928695.8674                   20928691.3914
 -32258522.07048 -25093774.74646  20747192.6414                   20747189.6334
 -38107429.35548 -29649612.38345  21715117.7814                   21715115.9694
 -59901756.95346 -46481333.51644  23564986.6094                   23564985.9224
 -27174275.58248 -21130221.37147  20470819.6414                   20470817.1804
  -6725518.53148  -5199077.17646  22183506.5864                   22183507.0474
 11  8 14  1 47  0.0000000  0  7G29G02G12G10G04G05G25
  15383437.07046  12022844.97343  24183617.1174                   24183617.4844
 -51827391.43048 -40334813.66846  20916259.5784                   20916255.1764
 -32344030.84048 -25160404.95746  20730920.6954                   20730918.0274
 -38129796.86747 -29667041.61345  21710861.5314                   21710859.2854
 -59911775.90646 -46489140.51244  23563080.2584                   23563079.3794
 -27301602.37148 -21229437.02347  20446590.2424                   20446588.2344
  -6875762.03948  -5316150.05545  22154916.4304                   22154916.8794
 11  8 14  1 47 30.0000000  0  7G29G02G12G10G04G05G25
  15209776.05546  11887524.71943  24150571.3364                   24150571.4064
 -51892577.73448 -40385608.16846  20903855.0474                   20903851.2344
 -32428942.72748 -25226570.05546  20714762.3134                   20714759.6484
 -38151684.38347 -29684096.80945  21706696.4774                   21706694.0474
 -59921811.82046 -46496960.71144  23561170.5944                   23561169.8984
 -27428356.08248 -21328206.10947  20422469.9454                   20422467.7734
  -7025507.68748  -5432835.00046  22126420.8444                   22126421.4304
 11  8 14  1 48  0.0000000  0  7G29G02G12G10G04G05G25
  15036070.70346  11752169.93043  24117516.2274                   24117515.8834
 -51957598.91848 -40436274.00446  20891481.8204                   20891477.3634
 -32513258.72348 -25292270.82846  20698718.0164                   20698715.0124
 -38173094.91047 -29700780.34045  21702621.7584                   21702619.5434
 -59931866.31647 -46504795.39143  23559257.2194                   23559256.1134
 -27554536.96948 -21426528.84447  20398458.2584                   20398456.0944
  -7174754.25448  -5549131.02746  22098020.0164                   22098020.0864
 11  8 14  1 48 30.0000000  0  7G29G02G12G10G04G05G25
  14862321.68246  11616781.12543  24084452.7664                   24084452.1524
 -52022456.17648 -40486812.10546  20879139.8594                   20879135.4024
 -32596979.05948 -25357507.44946  20682786.3054                   20682783.4924
 -38194031.29347 -29717094.39145  21698637.8754                   21698635.4414
 -59941940.00047 -46512645.00843  23557339.9224                   23557338.7154
 -27680143.95748 -21524404.39547  20374555.6724                   20374553.9924
  -7323499.85548  -5665036.67246  22069714.5394                   22069715.1024
 11  8 14  1 49  0.0000000  0  7G29G02G12G10G04G05G25
  14688527.70746  11481357.29343  24051380.7584                   24051380.6884
 -52087152.38348 -40537224.70346  20866828.4384                   20866824.2114
 -32680105.83248 -25422281.55146  20666967.8674                   20666965.1254
 -38214498.45347 -29733042.82445  21694743.0314                   21694741.2074
 -59952035.90247 -46520511.92644  23555419.2504                   23555418.3164
 -27805178.35248 -21621833.75847  20350762.8914                   20350760.5124
  -7471744.67248  -5780552.08245  22041504.7274                   22041505.0554
 11  8 14  1 49 30.0000000  0  7G29G02G12G10G04G05G25
  14514691.37546  11345900.43443  24018300.2504                   24018300.3094
 -52151686.86348 -40587511.28146  20854548.2114                   20854543.7504
 -32762637.66448 -25486592.06246  20651262.3594                   20651260.0274
 -38234496.93447 -29748626.05945  21690937.5784                   21690935.2544
 -59962152.57047 -46528395.03543  23553493.9224                   23553493.0664
 -27929637.19548 -21718814.64847  20327079.0004                   20327077.1564
  -7619484.81648  -5895674.23446  22013390.8054                   22013391.4534
 11  8 14  1 50  0.0000000  0  7G29G02G12G10G04G05G25
  14340810.63746  11210409.00043  23985212.0314                   23985211.7854
 -52216063.28148 -40637674.70346  20842297.6094                   20842293.4734
 -32844578.14548 -25550441.77746  20635670.0864                   20635667.2544
 -38254032.00447 -29763848.18745  21687219.7584                   21687217.8524
 -59972293.85247 -46536297.34044  23551563.7504                   23551563.1094
 -28053522.69948 -21815348.77747  20303504.4384                   20303501.6564
  -7766721.30948  -6010403.92646  21985372.0004                   21985372.7194
 11  8 14  1 50 30.0000000  0  7G29G02G12G10G04G05G25
  14166888.44546  11074885.25043  23952116.1804                   23952115.4024
 -52280280.28948 -40687713.89846  20830077.2814                   20830073.3484
 -32925925.14548 -25613829.04346  20620190.1414                   20620187.0394
 -38273104.39147 -29778709.78945  21683590.5394                   21683588.5864
 -59982458.39147 -46544217.75044  23549629.2974                   23549628.9924
 -28176831.98448 -21911433.90247  20280039.4844                   20280036.9144
  -7913450.04348  -6124737.94146  21957450.7814                   21957451.4494
 11  8 14  1 51  0.0000000  0  7G29G02G12G10G04G05G25
  15568349.14846  12166932.58643  24218804.7194                   24218805.0784
 -50768919.30148 -39510029.98846  21117679.9614                   21117675.5904
 -31431258.79748 -24449153.96546  20904615.4304                   20904612.7304
 -36716298.19547 -28565614.05145  21979840.7814                   21979838.8594
 -58417228.90647 -45324558.39543  23847483.1174                   23847481.6804
 -26724142.69948 -20779468.19547  20556476.7504                   20556475.0274
  -6484246.75048  -5011072.96946  22229419.0944                   22229419.5124
 11  8 14  1 51 30.0000000  0  7G29G02G12G10G04G05G25
  15394342.96546  12031343.41044  24185692.5784                   24185692.7774
 -50832824.34048 -39559826.10546  21105519.0164                   21105514.6844
 -31511423.63348 -24511620.07446  20889360.6174                   20889357.9734
 -36734456.34047 -28579763.25445  21976385.2504                   21976383.4264
 -58427445.68446 -45332519.52043  23845538.3204                   23845537.9384
 -26846300.95748 -20874656.41847  20533230.9384                   20533228.9654
  -6629958.15648  -5124614.26646  22201690.9224                   22201691.5234
 11  8 14  1 52  0.0000000  0  7G29G02G12G10G04G05G25
  15220297.79746  11895723.84844  24152572.6024                   24152573.0204
 -50896572.77348 -39609500.19146  21093388.2424                   21093383.9414
 -31590996.44148 -24573624.85946  20874218.5004                   20874215.6914
 -36752159.96947 -28593558.29345  21973016.6094                   21973014.6054
 -58437687.79346 -45340500.39543  23843589.0394                   23843588.5784
 -26967880.76248 -20969393.89547  20510095.3984                   20510092.7934
  -6775156.28548  -5237755.59446  22174060.6024                   22174061.4104
 11  8 14  1 52 30.0000000  0  7G29G02G12G10G04G05G25
  15046212.31347  11760072.88344  24119445.8364                   24119445.2584
 -50960168.05548 -39659054.94146  21081286.5864                   21081281.7194
 -31669979.86748 -24635170.38346  20859188.3364                   20859185.9344
 -36769414.06647 -28607003.05545  21969733.7974                   21969731.4574
 -58447958.12146 -45348503.25043  23841634.7194                   23841635.1954
 -27088883.69948 -21063681.86347  20487069.0554                   20487067.0554
  -6919841.78148  -5350497.46546  22146527.7344                   22146528.4304
 11  8 14  1 53  0.0000000  0  7G29G02G12G10G04G05G25
  14872088.14847  11624391.76244  24086310.5784                   24086310.5634
 -51023609.97748 -39708490.17246  21069213.8524                   21069209.4774
 -31748373.48848 -24696256.32046  20844270.6174                   20844267.4924
 -36786220.47747 -28620098.95345  21966535.2974                   21966532.9964
 -58458256.81247 -45356528.19543  23839675.1724                   23839674.8834
 -27209308.10548 -21157519.03947  20464153.2034                   20464150.7664
  -7064011.74648  -5462837.63746  22119093.2194                   22119093.6134
 11  8 14  1 53 30.0000000  0  7G29G02G12G10G04G05G25
  14697927.88347  11488682.50844  24053169.5864                   24053169.0824
 -51086897.71948 -39757805.28146  21057170.5554                   21057166.2814
 -31826175.82848 -24756881.51246  20829465.3204                   20829462.4964
 -36802580.09047 -28632846.71545  21963422.3284                   21963420.2734
 -58468582.77046 -45364574.39843  23837710.1954                   23837709.8204
 -27329152.07448 -21250903.91047  20441347.5314                   20441344.9654
  -7207662.87948  -5574773.52046  22091757.3914                   22091757.9454
 11  8 14  1 54  0.0000000  0  7G29G02G12G10G04G05G25
  14523730.85247  11352944.60944  24020020.1484                   24020019.9964
 -51150033.84048 -39807002.25046  21045156.3204                   21045152.1414
 -31903389.21148 -24817047.78146  20814772.1094                   20814769.1024
 -36818497.10247 -28645249.57445  21960393.2034                   21960390.9694
 -58478938.16847 -45372643.53943  23835740.2034                   23835739.0084
 -27448416.31248 -21343837.04747  20418652.2734                   20418649.9064
  -7350794.92248  -5686304.93046  22064520.2814                   22064520.7194
 11  8 14  1 54 30.0000000  0  7G29G02G12G10G04G05G25
  14349501.10247  11217181.22744  23986865.6254                   23986865.5044
 -51213016.12548 -39856079.34846  21033171.3524                   21033166.5274
 -31980011.28948 -24876753.28146  20800191.6884                   20800188.8054
 -36833971.08247 -28657307.24645  21957448.4844                   21957446.8634
 -58489320.44547 -45380733.60943  23833763.8284                   23833763.3284
 -27567097.07848 -21436315.53947  20396068.1334                   20396065.7384
  -7493403.00048  -5797428.05146  22037382.7894                   22037383.0394
 11  8 14  1 55  0.0000000  0  7G29G02G12G10G04G05G25
  14175235.51246  11081389.93444  23953704.2034                   23953704.0314
 -51275849.44148 -39905040.35946  21021214.2034                   21021209.5394
 -32056046.69148 -24936001.63746  20785722.0164                   20785719.3054
 -36849008.62947 -28669024.82445  21954586.9614                   21954585.6994
 -58499734.21147 -45388848.23044  23831783.1174                   23831782.4694
 -27685197.61348 -21528341.89147  20373594.0784                   20373591.7274
  -7635489.18748  -5908144.51646  22010344.6024                   22010344.7664
 11  8 14  1 55 30.0000000  0  7G29G02G12G10G04G05G25
  14000936.77346  10945572.80944  23920535.9304                   23920536.0864
 -51338532.91048 -39953884.61346  21009286.0314                   21009281.4384
 -32131494.09448 -24994791.82046  20771365.1414                   20771362.6914
 -36863610.71947 -28680403.09445  21951808.5784                   21951806.5744
 -58510178.46147 -45396986.61344  23829795.3284                   23829794.8874
 -27802716.08248 -21619914.69147  20351231.0634                   20351228.8364
  -7777050.31248  -6018451.83646  21983406.7034                   21983406.7624
 11  8 14  1 56  0.0000000  0  7G29G02G12G10G04G05G25
  13826602.06646  10809727.65244  23887361.0634                   23887360.5984
 -51401071.52748 -40002615.99646  20997385.1804                   20997380.6884
 -32206358.20748 -25053127.46946  20757119.2194                   20757116.5634
 -36877784.19147 -28691447.35945  21949111.5474                   21949109.1994
 -58520657.87946 -45405152.35943  23827801.2424                   23827799.7424
 -27919655.71548 -21711036.44947  20328978.1564                   20328975.7584
  -7918088.57848  -6128351.73846  21956567.4064                   21956567.9414
 11  8 14  1 56 30.0000000  0  7G29G02G12G10G04G05G25
  13652234.59446  10673857.00844  23854180.1094                   23854180.3954
 -51463463.33648 -40051232.98046  20985512.6334                   20985507.7774
 -32280636.67248 -25111006.78946  20742984.4384                   20742981.7704
 -36891529.14547 -28702157.73445  21946495.7974                   21946493.7624
 -58531170.43046 -45413343.98444  23825800.6954                   23825799.7384
 -28036013.29748 -21801704.66447  20306835.8364                   20306833.5004
  -8058599.68048  -6237840.86346  21929829.1414                   21929829.6884
 11  8 14  1 57  0.0000000  0  7G29G02G12G10G04G05G25
  13477839.27347  10537964.62544  23820993.8204                   23820993.4804
 -51525705.36748 -40099733.25846  20973668.2424                   20973663.3134
 -32354326.21948 -25168427.20746  20728961.4614                   20728958.8594
 -36904844.89547 -28712533.64845  21943961.6644                   21943959.4964
 -58541712.89146 -45421558.87943  23823794.0394                   23823793.6724
 -28151784.55948 -21891915.99647  20284805.5474                   20284802.8834
  -8198578.02048  -6346914.86346  21903192.2894                   21903192.4264
 11  8 14  1 57 30.0000000  0  7G29G02G12G10G04G05G25
  13303412.41847  10402047.72344  23787801.2814                   23787801.0474
 -51587803.17648 -40148121.16046  20961851.3594                   20961846.6684
 -32427432.69548 -25225393.28546  20715049.6564                   20715047.5044
 -36917738.71147 -28722580.78545  21941507.8134                   21941506.1524
 -58552290.27047 -45429800.98043  23821781.8984                   23821781.0474
 -28266973.71948 -21981673.75447  20262885.7814                   20262882.9384
  -8338026.59448  -6455576.05146  21876656.2034                   21876656.2304
 11  8 14  1 58  0.0000000  0  7G29G02G12G10G04G05G25
  13128955.75047  10266107.59444  23754603.0004                   23754602.9144
 -51649757.16448 -40196396.99246  20950062.0394                   20950057.4264
 -32499956.44148 -25281905.28146  20701249.1564                   20701246.0744
 -36930212.77747 -28732300.84445  21939134.6094                   21939132.4774
 -58562902.98846 -45438070.62543  23819761.9224                   23819761.3164
 -28381579.94948 -22070977.27747  20241076.9454                   20241074.4384
  -8476943.43448  -6563822.89146  21850221.0474                   21850221.3094
 11  8 14  1 58 30.0000000  0  7G29G02G12G10G04G05G25
  12954470.71947  10130145.34444  23721399.7424                   23721399.7304
 -51711567.05148 -40244560.52746  20938300.0784                   20938295.2194
 -32571897.35948 -25337963.13346  20687559.1804                   20687556.4454
 -36942268.96947 -28741695.28545  21936840.3444                   21936838.3444
 -58573550.69147 -45446367.55943  23817735.7194                   23817735.0434
 -28495601.86748 -22159825.50447  20219379.1334                   20219376.5904
  -8615325.93048  -6671653.37146  21823887.4534                   21823887.7814
 11  8 14  1 59  0.0000000  0  7G29G02G12G10G04G05G25
  12779957.58646   9994161.23043  23688190.2664                   23688190.3404
 -51773234.34448 -40292612.95346  20926565.2504                   20926560.4924
 -32643256.30948 -25393567.50046  20673980.0004                   20673976.9454
 -36953910.80147 -28750766.84845  21934624.7424                   21934622.8284
 -58584234.38346 -45454692.46943  23815702.4064                   23815701.2974
 -28609039.84448 -22248218.69947  20197792.4064                   20197790.2154
  -8753173.15648  -6779066.75446  21797656.0784                   21797656.4414
 11  8 14  1 59 30.0000000  0  7G29G02G12G10G04G05G25
  14180843.17646  11085760.53143  23954769.9614                   23954769.4924
 -50259338.35948 -39112953.73846  21214649.4454                   21214645.1094
 -31138612.69548 -24221117.91846  20960304.2034                   20960301.6134
 -35389720.56247 -27531917.32045  22232280.6024                   22232278.4414
 -57019534.58646 -44235445.87543  24113455.1484                   24113454.3754
 -27146470.14548 -21108553.97747  20476110.2274                   20476108.0124
  -7315059.30948  -5658458.53146  22071320.3054                   22071320.2034
 11  8 14  2  0  0.0000000  0  7G29G02G12G10G04G05G25
  14006279.87546  10949737.28544  23921551.6254                   23921551.0634
 -50320720.43448 -39160783.91446  21202969.2424                   21202964.5634
 -31208808.66448 -24275816.07446  20946946.3134                   20946943.3554
 -35400538.94547 -27540347.23045  22230222.0554                   22230219.9264
 -57030289.61746 -44243826.39543  24111409.0084                   24111407.2814
 -27258736.52348 -21196034.24247  20454746.4534                   20454744.1724
  -7451828.78948  -5765032.12146  22045293.6094                   22045293.5904
 11  8 14  2  0 30.0000000  0  7G29G02G12G10G04G05G25
  13831691.86346  10813694.80544  23888329.1884                   23888327.9734
 -50381962.33648 -39208504.86746  21191314.9384                   21191310.7854
 -31278425.40248 -24330062.87546  20933698.6884                   20933695.7194
 -35410951.27347 -27548460.73445  22228240.4304                   22228238.4734
 -57041082.34846 -44252236.32043  24109354.2664                   24109354.4454
 -27370418.05948 -21283058.79347  20433494.3914                   20433491.6374
  -7588058.37548  -5871185.02046  22019369.9774                   22019370.0784
 11  8 14  2  1  0.0000000  0  7G29G02G12G10G04G05G25
  13657078.41447  10677632.49644  23855100.5704                   23855100.2814
 -50443066.75848 -39256118.69546  21179687.3284                   21179682.7304
 -31347465.59048 -24383860.42246  20920560.7504                   20920558.4694
 -35420961.85947 -27556261.18045  22226335.7344                   22226332.9024
 -57051915.17246 -44260677.47743  24107293.2274                   24107293.0434
 -27481515.91048 -21369628.52047  20412353.2424                   20412350.7114
  -7723748.18448  -5976917.31646  21993549.2034                   21993549.4264
 11  8 14  2  1 30.0000000  0  7G29G02G12G10G04G05G25
  13482439.60947  10541550.41444  23821868.0634                   23821867.3444
 -50504034.53948 -39303626.04746  21168085.4064                   21168080.7584
 -31415930.56248 -24437209.75046  20907532.3914                   20907529.6294
 -35430574.09447 -27563751.23445  22224506.2194                   22224504.3404
 -57062788.81246 -44269150.45343  24105224.5704                   24105223.7234
 -27592030.37548 -21455743.66447  20391322.9614                   20391320.4344
  -7858897.23448  -6082228.23046  21967831.0234                   21967831.1604
 11  8 14  2  2  0.0000000  0  7G29G02G12G10G04G05G25
  13307777.17647  10405449.90244  23788630.8204                   23788630.0004
 -50564867.04748 -39351027.99646  21156509.4614                   21156504.8134
 -31483821.18748 -24490111.53146  20894612.9534                   20894610.2664
 -35439791.11347 -27570933.31245  22222752.2814                   22222750.2504
 -57073704.06246 -44277655.84443  24103146.6254                   24103146.6804
 -27701961.28948 -21541404.09847  20370403.6174                   20370401.1294
  -7993504.12948  -6187116.70346  21942216.3594                   21942216.4414
 11  8 14  2  2 30.0000000  0  7G29G02G12G10G04G05G25
  13133095.34447  10269334.28544  23755390.0234                   23755389.7584
 -50625561.46148 -39398322.32846  21144959.4064                   21144954.9964
 -31551135.39848 -24542564.16446  20881803.9694                   20881801.3014
 -35448612.04347 -27577806.77045  22221073.9534                   22221072.0554
 -57084657.91346 -44286191.25943  24101062.5234                   24101061.9184
 -27811305.31248 -21626607.20747  20349595.9614                   20349593.5554
  -8127564.09848  -6291578.99646  21916705.2974                   21916705.9924
 11  8 14  2  3  0.0000000  0  7G29G02G12G10G04G05G25
  12958392.82447  10133202.53944  23722145.5234                   23722144.7974
 -50686120.95748 -39445511.52346  21133435.7974                   21133431.3404
 -31617876.38348 -24594570.12146  20869102.9614                   20869100.6134
 -35457042.03947 -27584375.59045  22219469.8284                   22219467.7504
 -57095653.38746 -44294759.16043  24098969.8444                   24098969.9384
 -27920064.39848 -21711354.51247  20328899.8914                   20328897.6684
  -8261077.98048  -6395615.77346  21891298.4224                   21891298.7424
 11  8 14  2  3 30.0000000  0  7G29G02G12G10G04G05G25
  12783670.01247   9997054.94544  23688896.5634                   23688896.0984
 -50746546.47748 -39492596.32846  21121936.8054                   21121932.5784
 -31684045.66448 -24646130.59046  20856511.7344                   20856508.7034
 -35465084.73447 -27590642.61745  22217939.3754                   22217937.5824
 -57106691.36346 -44303360.11743  24096869.1094                   24096868.9574
 -28028239.09448 -21795646.46547  20308315.0944                   20308312.9104
  -8394044.96148  -6499226.37546  21865995.9774                   21865996.1294
 11  8 14  2  4  0.0000000  0  7G29G02G12G10G04G05G25
  12608931.43447   9860895.09844  23655644.8754                   23655644.2074
 -50806835.39148 -39539574.68746  21110464.3594                   21110459.9884
 -31749641.02048 -24697243.85246  20844029.3594                   20844026.7274
 -35472739.55147 -27596607.40645  22216482.6564                   22216480.4574
 -57117768.80946 -44311991.90243  24094761.6884                   24094761.3164
 -28135825.73048 -21879480.18047  20287841.9924                   20287839.6644
  -8526460.20348  -6602407.06246  21840797.8364                   21840798.2034
 11  8 14  2  4 30.0000000  0  7G29G02G12G10G04G05G25
  12434178.40647   9724723.96944  23622390.3674                   23622389.5164
 -50866988.51248 -39586447.22746  21099017.6804                   21099012.8134
 -31814662.82848 -24747910.19946  20831656.1954                   20831653.4304
 -35480008.96547 -27602271.88345  22215099.2664                   22215096.9344
 -57128886.10546 -44320654.68443  24092645.7584                   24092645.6724
 -28242823.95748 -21962855.38747  20267480.6724                   20267478.5554
  -8658322.00048  -6705156.48846  21815705.5004                   21815705.4574
 11  8 14  2  5  0.0000000  0  7G29G02G12G10G04G05G25
  12259408.74247   9588539.87944  23589132.6254                   23589131.9184
 -50927010.08248 -39633217.26246  21087595.7344                   21087591.2624
 -31879116.26248 -24798133.64846  20819390.9844                   20819388.4734
 -35486899.48847 -27607641.11745  22213787.7584                   22213785.5274
 -57140047.64147 -44329351.98043  24090522.6174                   24090522.0394
 -28349237.61348 -22045775.09047  20247230.8914                   20247228.5594
  -8789632.91848  -6807476.66846  21790717.3914                   21790718.2274
 11  8 14  2  5 30.0000000  0  7G29G02G12G10G04G05G25
  12084621.99647   9452342.47744  23555872.1334                   23555871.6994
 -50986902.14148 -39679886.37546  21076198.6254                   21076194.2114
 -31943003.62148 -24847916.00446  20807233.6644                   20807231.0204
 -35493414.94947 -27612718.10245  22212548.1884                   22212546.0704
 -57151254.79746 -44338084.82043  24088389.2424                   24088389.8324
 -28455067.75048 -22128240.10547  20227092.2424                   20227089.9494
  -8920392.64848  -6909367.35546  21765835.0004                   21765835.1564
 11  8 14  2  6  0.0000000  0  7G29G02G12G10G04G05G25
  11909822.89847   9316135.44144  23522608.1174                   23522608.1994
 -51046661.80148 -39726452.33246  21064827.0084                   21064822.4064
 -32006322.44148 -24897255.33646  20795184.4924                   20795181.9414
 -35499554.82447 -27617502.41845  22211379.9774                   22211377.7384
 -57162504.34446 -44346850.68443  24086248.8984                   24086248.4454
 -28560310.64148 -22210247.52047  20207065.1804                   20207062.7814
  -9050596.50448  -7010824.87546  21741058.1254                   21741058.1334
 11  8 14  2  6 30.0000000  0  7G29G02G12G10G04G05G25
  11735010.85247   9179918.33244  23489343.0944                   23489342.7344
 -51106291.72748 -39772917.18746  21053479.5554                   21053475.3984
 -32069075.75448 -24946154.01246  20783242.7114                   20783240.4384
 -35505324.07847 -27621997.94545  22210281.6644                   22210279.8594
 -57173798.75846 -44355651.47743  24084100.1024                   24084099.5554
 -28664968.22748 -22291798.85247  20187149.3134                   20187147.1844
  -9180244.98448  -7111849.65646  21716386.7894                   21716386.8834
 11  8 14  2  7  0.0000000  0  7G29G02G12G10G04G05G25
  11560188.24247   9043692.96544  23456075.4304                   23456074.6214
 -51165791.27348 -39819280.44946  21042157.3754                   21042152.7624
 -32131263.52348 -24994612.00446  20771408.7894                   20771406.2234
 -35510724.27047 -27626205.89545  22209254.3134                   22209252.4224
 -57185137.26246 -44364486.66843  24081941.8754                   24081941.7194
 -28769039.68448 -22372893.45747  20167345.3674                   20167343.0124
  -9309335.62948  -7212439.73846  21691821.7814                   21691821.7704
 11  8 14  2  7 30.0000000  0  7G29G02G12G10G04G05G25
  11385358.02047   8907461.68044  23422806.0554                   23422805.7344
 -51225159.03948 -39865541.03146  21030859.8594                   21030855.3674
 -32192884.59848 -25042628.43046  20759682.8054                   20759680.1214
 -35515756.28147 -27630126.96145  22208296.9774                   22208294.8094
 -57196518.18046 -44373354.91444  24079776.8054                   24079775.9804
 -28872522.64848 -22453529.50847  20147652.8524                   20147650.7344
  -9437865.24248  -7312592.66046  21667363.5084                   21667363.3134
 11  8 14  2  8  0.0000000  0  7G29G02G12G10G04G05G25
  12785947.76247   9998830.35944  23689329.9774                   23689328.9224
 -49708973.60248 -38684097.81246  21319380.5394                   21319375.6884
 -30678518.44148 -23862602.84446  21047856.8984                   21047854.5314
 -33945002.40647 -26406162.91045  22507200.9144                   22507199.5164
 -55632521.31646 -43154656.03543  24377395.1334                   24377393.6054
 -27399993.53948 -21306104.18047  20427866.2034                   20427863.5234
  -7990407.98848  -6184703.87946  21942805.1174                   21942805.4844
 11  8 14  2  8 30.0000000  0  7G29G02G12G10G04G05G25
  12611101.61747   9862586.66844  23656056.7734                   23656056.4104
 -49768084.90648 -38730158.55546  21308131.7424                   21308127.2504
 -30739015.34448 -23909743.28146  21036344.6484                   21036342.2704
 -33949310.96947 -26409520.24245  22506381.3524                   22506378.7544
 -55643992.96946 -43163594.96943  24375211.7814                   24375211.5984
 -27502304.61348 -21385827.06247  20408396.7344                   20408394.5204
  -8117816.44948  -6283983.17646  21918559.8524                   21918560.0354
 11  8 14  2  9  0.0000000  0  7G29G02G12G10G04G05G25
  12436248.93447   9726337.87544  23622784.5394                   23622783.2194
 -49827069.50448 -38776120.55146  21296907.2974                   21296902.9104
 -30798952.03548 -23956447.20346  21024939.1024                   21024936.2304
 -33953262.74247 -26412599.57444  22505629.3594                   22505627.4694
 -55655511.22346 -43172570.21943  24373019.6174                   24373019.3794
 -27604030.37548 -21465093.85947  20389038.9224                   20389037.0434
  -8244663.02748  -6382824.63746  21894422.1644                   21894422.2154
 11  8 14  2  9 30.0000000  0  7G29G02G12G10G04G05G25
  12261390.47747   9590084.59044  23589509.3524                   23589508.6294
 -49885928.01248 -38821984.30146  21285707.0634                   21285702.7814
 -30858330.49248 -24002716.12146  21013639.8284                   21013637.4924
 -33956860.82847 -26415403.28944  22504944.8444                   22504942.5664
 -55667076.37946 -43181582.02343  24370819.3204                   24370818.4064
 -27705171.16848 -21543904.83247  20369792.6484                   20369790.0904
  -8370946.81648  -6481227.56246  21870390.9454                   21870391.0744
 11  8 14  2 10  0.0000000  0  7G29G02G12G10G04G05G25
  12086528.41447   9453828.50044  23556234.4534                   23556233.3444
 -49944660.48848 -38867749.84846  21274530.7584                   21274526.2664
 -30917151.20348 -24048550.44146  21002446.6804                   21002444.2034
 -33960107.14147 -26417932.91445  22504326.6724                   22504324.8714
 -55678688.16446 -43190630.13343  24368610.4454                   24368608.3094
 -27805726.30148 -21622259.44147  20350657.5314                   20350655.1884
  -8496665.87548  -6579190.43746  21846467.3054                   21846467.6374
 11  8 14  2 10 30.0000000  0  8G29G02G12G10G04G05G26G25
  11911663.24647   9317569.99644  23522958.5004                   23522957.6054
 -50003268.46148 -38913418.37146  21263377.7194                   21263373.6954
 -30975416.38748 -24093951.88746  20991359.4384                   20991356.4804
 -33963005.40647 -26420191.31644  22503775.7664                   22503773.4414
 -55690347.83246 -43199715.58643  24366391.0554                   24366390.1764
 -27905697.16448 -21700158.79347  20331633.6254                   20331631.6254
  24933395.43456  19465045.32853  24863341.6174                   24863341.4734
  -8621819.94548  -6676713.06646  21822651.5394                   21822651.5664
 11  8 14  2 11  0.0000000  0  8G29G02G12G10G04G05G26G25
  11736796.42247   9181310.19144  23489682.2504                   23489681.6054
 -50061752.10948 -38958990.02046  21252248.6954                   21252244.4494
 -31033126.98048 -24138921.17646  20980377.3204                   20980374.3954
 -33965558.04747 -26422180.40244  22503289.8364                   22503287.3554
 -55702055.23046 -43208838.23043  24364162.4774                   24364162.3954
 -28005083.36348 -21777602.55147  20312720.8444                   20312718.8524
  24748650.86746  19321088.60243  24828184.8134                   24828184.6604
  -8746407.61348  -6773794.32846  21798943.1024                   21798943.4024
 11  8 14  2 11 30.0000000  0  8G29G02G12G10G04G05G26G25
  11561923.28947   9045045.48044  23456405.1724                   23456404.3244
 -50120118.14847 -39004470.02346  21241142.2664                   21241137.7664
 -31090290.44547 -24183464.13746  20969499.5314                   20969496.8404
 -33967774.33647 -26423907.39844  22502868.1884                   22502865.8404
 -55713816.80146 -43218003.11743  24361924.6024                   24361923.8014
 -28103891.05148 -21854595.52747  20293918.6094                   20293916.0124
  24563780.61346  19177033.95743  24793004.6804                   24793005.7304
  -8870433.81648  -6870438.09846  21775341.5784                   21775341.4884
 11  8 14  2 12  0.0000000  0  8G29G02G12G10G04G05G26G25
  11387043.74247   8908775.78944  23423126.5234                   23423125.7384
 -50178368.50048 -39049859.89146  21230057.7584                   21230053.0664
 -31146909.36348 -24227582.77046  20958725.1804                   20958722.5004
 -33969658.46947 -26425375.56644  22502509.9694                   22502507.8984
 -55725634.18746 -43227211.45343  24359675.9224                   24359675.3914
 -28202122.12548 -21931139.19147  20275225.7424                   20275223.3094
  24378786.05546  19032882.40643  24757802.1564                   24757801.5044
  -8993898.76648  -6966644.52346  21751847.2194                   21751847.4344
 11  8 14  2 12 30.0000000  0  8G29G02G12G10G04G05G26G25
  11212160.67647   8772503.35544  23389847.7734                   23389846.9184
 -50236501.98048 -39095158.67246  21218994.7814                   21218990.7384
 -31202983.38348 -24271276.80946  20948054.5784                   20948051.6374
 -33971211.33247 -26426585.61744  22502214.0004                   22502211.6134
 -55737505.87946 -43236462.13343  24357417.4924                   24357416.3674
 -28299775.03948 -22007232.34447  20256643.0474                   20256640.7974
  24193671.90646  18888637.66043  24722575.8364                   24722575.1214
  -9116799.81248  -7062411.55146  21728459.6564                   21728459.9304
 11  8 14  2 13  0.0000000  0  8G29G02G12G10G04G05G26G25
  11037277.25447   8636230.63744  23356567.7424                   23356567.1214
 -50294517.84048 -39140365.82846  21207955.1484                   21207950.6174
 -31258512.18448 -24314546.00846  20937487.6884                   20937485.2774
 -33972434.18047 -26427538.49244  22501981.3134                   22501979.0704
 -55749430.64146 -43245754.14143  24355147.3594                   24355146.5274
 -28396848.26248 -22082873.78947  20238170.4384                   20238168.2034
  24008442.71146  18744303.29343  24687328.0004                   24687326.8364
  -9239134.23048  -7157737.04346  21705180.0004                   21705180.2734
 11  8 14  2 13 30.0000000  0  8G29G02G12G10G04G05G26G25
  10862397.03947   8499960.41844  23323289.5474                   23323288.4694
 -50352414.13348 -39185479.80546  21196937.6094                   21196933.2584
 -31313495.01648 -24357389.77046  20927024.7974                   20927022.4344
 -33973327.91847 -26428234.93444  22501811.1884                   22501809.5314
 -55761406.52046 -43255085.98442  24352867.8984                   24352867.7034
 -28493340.04348 -22158062.16447  20219808.6254                   20219806.2814
  23823103.40646  18599883.14143  24652058.7734                   24652058.3834
  -9360898.80148  -7252618.50046  21682009.0314                   21682009.4384
 11  8 14  2 14  0.0000000  0  8G29G02G12G10G04G05G26G25
  10687521.77747   8363694.06344  23290011.8054                   23290010.0204
 -50410190.60948 -39230500.41446  21185943.3914                   21185939.1764
 -31367933.33248 -24399809.23846  20916665.5944                   20916663.0824
 -33973894.36747 -26428676.35944  22501703.8674                   22501701.7034
 -55773433.04346 -43264457.34443  24350579.9774                   24350579.7464
 -28589249.94148 -22232797.11747  20201557.8914                   20201555.2234
  23637657.83646  18455380.21143  24616769.4844                   24616769.0864
  -9482092.00048  -7347054.71946  21658946.5944                   21658946.8914
 11  8 14  2 14 30.0000000  0  8G29G02G12G10G04G05G26G25
  10512651.66447   8227431.70744  23256734.9534                   23256733.7774
 -50467849.50448 -39275429.41046  21174971.1484                   21174966.8484
 -31421829.45748 -24441806.21146  20906409.7424                   20906407.0594
 -33974138.19147 -26428866.36744  22501656.8984                   22501655.5634
 -55785511.96946 -43273869.43743  24348282.1954                   24348280.5864
 -28684579.84848 -22307080.13747  20183417.1024                   20183414.5664
  23452107.66446  18310795.71143  24581460.2344                   24581460.3134
  -9602714.18448  -7441046.00046  21635993.3204                   21635993.1954
 11  8 14  2 15  0.0000000  0  8G29G02G12G10G04G05G26G25
  10337789.84047   8091175.83244  23223460.1724                   23223458.8554
 -50525389.62548 -39320265.84446  21164021.4694                   21164017.0164
 -31475183.30948 -24483380.63346  20896256.7974                   20896253.7504
 -33974060.34847 -26428805.74244  22501672.2424                   22501669.7194
 -55797641.81646 -43283321.29343  24345973.3834                   24345972.9264
 -28779328.57848 -22380910.28947  20165386.7894                   20165384.5664
  23266457.36346  18166133.27043  24546131.8134                   24546132.7114
  -9722762.72348  -7534590.29346  21613148.5784                   21613149.1484
 11  8 14  2 15 30.0000000  0  8G29G02G12G10G04G05G26G25
  10162937.08247   7954927.02344  23190186.3364                   23190185.4804
 -50582812.00848 -39365010.54346  21153094.2584                   21153089.8674
 -31527996.81648 -24524534.01646  20886206.7734                   20886204.2234
 -33973664.01647 -26428496.93444  22501747.4534                   22501745.4884
 -55809823.24247 -43292813.28143  24343655.5394                   24343654.8874
 -28873496.76248 -22454288.06647  20147467.5784                   20147465.0514
  23080709.55946  18021394.77042  24510785.0004                   24510785.7234
  -9842237.14848  -7627687.21946  21590413.7504                   21590413.8244
 11  8 14  2 16  0.0000000  0  8G29G02G12G10G04G05G26G25
   9988097.48447   7818688.47744  23156914.8834                   23156914.5354
 -50640114.30548 -39409661.66046  21142190.2114                   21142185.7304
 -31580268.87948 -24565265.48446  20876259.5004                   20876257.2544
 -33972949.27747 -26427940.02744  22501883.3204                   22501881.7814
 -55822053.73446 -43302343.43443  24341327.9224                   24341327.0044
 -28967082.05548 -22527211.64547  20129658.8054                   20129656.0984
  22894869.84046  17876584.66442  24475422.3134                   24475421.4224
  -9961133.87148  -7720333.98846  21567788.1024                   21567788.4614
 11  8 14  2 16 30.0000000  0  8G29G02G12G10G04G05G26G25
  11388693.02047   8910061.73045  23423439.7034                   23423438.6524
 -49121880.58248 -38226622.37946  21431100.3284                   21431095.6254
 -30056584.62148 -23377979.03946  21166207.3594                   21166204.6954
 -32396504.76247 -25199541.74244  22801870.8134                   22801868.5784
 -54258918.55547 -42084316.05143  24638782.5944                   24638781.7734
 -27484667.39148 -21372083.30947  20411752.8984                   20411750.2234
  24284362.26646  18959306.04742  24739832.7034                   24739832.7344
  -8504033.46148  -6584931.03946  21845065.2274                   21845065.2934
 11  8 14  2 17  0.0000000  0  8G29G02G12G10G04G05G26G25
  11213878.80147   8773842.96544  23390174.1334                   23390172.6214
 -49178949.62148 -38271091.73846  21420240.4614                   21420235.6524
 -30107783.72748 -23417874.44546  21156464.2814                   21156461.6334
 -32395167.55947 -25198499.78144  22802125.3364                   22802123.5044
 -54271253.12147 -42093927.37943  24636436.2814                   24636434.6454
 -27577094.02348 -21444104.03547  20394164.3364                   20394162.0784
  24098342.79346  18814355.92243  24704434.6414                   24704434.4064
  -8621777.47748  -6676679.59046  21822659.1644                   21822659.5474
 11  8 14  2 17 30.0000000  0  8G29G02G12G10G04G05G26G25
  11039078.81347   8637635.30544  23356910.5394                   23356909.4104
 -49235903.32448 -38315471.23446  21409402.4844                   21409397.8674
 -30158449.48448 -23457354.25846  21146823.0554                   21146820.1954
 -32393523.85547 -25197219.00044  22802437.8594                   22802436.0664
 -54283640.77347 -42103580.07043  24634078.6564                   24634078.0394
 -27668942.55148 -21515674.28947  20376686.3984                   20376684.0124
  23912237.28946  18669338.72342  24669019.4924                   24669019.5044
  -8738944.46948  -6767978.52046  21800362.9694                   21800363.1174
 11  8 14  2 18  0.0000000  0  8G29G02G12G10G04G05G26G25
  10864297.89846   8501442.53544  23323650.2814                   23323649.1684
 -49292738.82848 -38359758.61746  21398587.1564                   21398582.5554
 -30208579.92648 -23496416.93746  21137283.5234                   21137280.6174
 -32391573.11347 -25195698.96944  22802809.7194                   22802807.3204
 -54296078.27747 -42113271.59443  24631711.8754                   24631710.6054
 -27760210.07048 -21586791.81647  20359318.7194                   20359316.0554
  23726052.25846  18524259.56342  24633589.8134                   24633589.8284
  -8855530.39548  -6858824.66046  21778177.4304                   21778177.4654
 11  8 14  2 18 30.0000000  0  8G29G02G12G10G04G05G26G25
  10689534.35247   8365263.28944  23290394.1484                   23290392.8244
 -49349459.91047 -38403956.84446  21387793.5004                   21387788.9224
 -30258180.16048 -23535066.46546  21127845.0004                   21127842.0124
 -32389321.35947 -25193944.34444  22803237.8134                   22803235.4264
 -54308568.72347 -42123004.40243  24629333.9924                   24629333.3674
 -27850900.40248 -21657459.57447  20342061.0944                   20342058.4344
  23539787.50846  18379118.29343  24598145.1174                   24598145.5394
  -8971537.53948  -6949219.82446  21756102.0704                   21756101.9344
 11  8 14  2 19  0.0000000  0  8G29G02G12G10G04G05G26G25
  10514789.80147   8229098.84045  23257140.9774                   23257139.9844
 -49406067.13747 -38448066.35546  21377021.3524                   21377016.5274
 -30307251.84448 -23573304.13746  21118506.7344                   21118503.7424
 -32386771.38747 -25191957.36344  22803722.8984                   22803721.0634
 -54321112.67247 -42132778.84843  24626947.6564                   24626946.5084
 -27941014.20348 -21727678.09047  20324912.7814                   20324909.8284
  23353446.14546  18233917.27343  24562684.9924                   24562685.1764
  -9086965.22348  -7039163.44146  21734136.5474                   21734136.8484
 11  8 14  2 19 30.0000000  0  8G29G02G12G10G04G05G26G25
  10340067.29347   8092951.58244  23223892.8594                   23223891.0634
 -49462558.99248 -38492085.95746  21366271.0634                   21366266.5164
 -30355794.21948 -23611129.37146  21109269.6484                   21109266.5864
 -32383924.05147 -25189738.68744  22804265.0084                   22804262.7894
 -54333708.08647 -42142593.46543  24624551.2424                   24624549.5044
 -28030549.89848 -21797446.14147  20307874.6334                   20307872.0554
  23167033.26246  18088660.59043  24527212.1564                   24527211.1024
  -9201810.77748  -7128653.45346  21712282.7424                   21712282.3204
 11  8 14  2 20  0.0000000  0  8G29G02G12G10G04G05G26G25
  10165363.02747   7956818.52044  23190647.1484                   23190645.9884
 -49518941.26247 -38536020.17246  21355542.0634                   21355537.3634
 -30403814.88348 -23648548.05946  21100131.2424                   21100128.6524
 -32380787.87546 -25187294.91444  22804861.4454                   22804859.7194
 -54346360.52747 -42152452.48843  24622142.9304                   24622141.8714
 -28119513.62548 -21866768.49247  20290945.4924                   20290942.5514
  22980546.48046  17943346.30943  24491724.0394                   24491723.6954
  -9316078.86348  -7217693.50046  21690537.7894                   21690537.8914
 11  8 14  2 20 30.0000000  0  8G29G02G12G10G04G05G26G25
   9990683.03547   7820704.37144  23157406.4844                   23157405.1174
 -49575209.61347 -38579865.62546  21344834.5474                   21344830.1334
 -30451311.01248 -23685558.02046  21091093.2584                   21091090.7344
 -32377360.58246 -25184624.32044  22805514.2274                   22805512.3244
 -54359065.60947 -42162352.47743  24619725.3204                   24619723.4884
 -28207901.43748 -21935642.08647  20274125.8914                   20274123.3874
  22793993.48046  17797980.39543  24456224.7034                   24456224.1994
  -9429764.15648  -7306279.41846  21668904.1804                   21668903.9384
 11  8 14  2 21  0.0000000  0  8G29G02G12G10G04G05G26G25
   9816029.30147   7684610.67244  23124171.5234                   23124169.4884
 -49631364.35247 -38623622.54746  21334148.4224                   21334144.1294
 -30498283.84848 -23722160.22746  21082154.8284                   21082151.7384
 -32373645.12947 -25181729.18744  22806220.9384                   22806219.1484
 -54371823.36346 -42172293.57843  24617296.7814                   24617296.6914
 -28295713.77048 -22004067.25847  20257415.4304                   20257412.8054
  22607377.64847  17652565.57443  24420713.0784                   24420711.7854
  -9542865.83648  -7394410.57446  21647381.8284                   21647381.3204
 11  8 14  2 21 30.0000000  0  8G29G02G12G10G04G05G26G25
   9641400.96147   7548536.74644  23090940.3594                   23090938.7504
 -49687408.28948 -38667293.13346  21323483.8674                   21323479.2344
 -30544737.61748 -23758357.96546  21073314.8834                   21073311.9884
 -32369646.52747 -25178613.40644  22806981.7664                   22806979.8094
 -54384635.89546 -42182277.37143  24614859.3594                   24614858.1024
 -28382953.52348 -22072046.26247  20240814.5554                   20240811.4494
  22420700.06647  17507102.60943  24385189.2194                   24385188.2974
  -9655385.56248  -7482088.25046  21625970.0164                   21625969.8714
 11  8 14  2 22  0.0000000  0  8G29G02G12G10G04G05G26G25
   9466800.54747   7412484.55945  23057714.8204                   23057713.6684
 -49743340.65648 -38710876.77346  21312840.4844                   21312835.5004
 -30590672.85948 -23794151.65246  21064573.7274                   21064570.7464
 -32365366.75947 -25175278.55844  22807796.6094                   22807794.0704
 -54397502.51646 -42192303.28543  24612411.2114                   24612409.4804
 -28469620.20748 -22139578.71147  20224322.0944                   20224319.7234
  22233964.77047  17361594.67644  24349654.4144                   24349653.9534
  -9767321.56648  -7569311.08246  21604669.0394                   21604669.1254
 11  8 14  2 22 30.0000000  0  8G29G02G12G10G04G05G26G25
   9292229.57847   7276455.31644  23024494.9614                   23024493.6134
 -49799161.98848 -38754373.89846  21302217.5864                   21302212.8874
 -30636091.44948 -23829542.75446  21055930.3834                   21055927.9804
 -32360808.73847 -25171726.85544  22808663.3364                   22808661.9734
 -54410423.36446 -42202371.46343  24609952.1024                   24609950.7734
 -28555714.67248 -22206665.27747  20207939.3204                   20207936.2934
  22047174.76647  17216044.14143  24314110.3914                   24314109.3204
  -9878673.48048  -7656078.78146  21583479.6644                   21583479.4574
 11  8 14  2 23  0.0000000  0  7G29G02G12G10G05G26G25
   9117688.57447   7140449.40244  22991280.7344                   22991279.5314
 -49854873.96948 -38797785.81646  21291616.3204                   21291611.8754
 -30680996.44948 -23864533.66446  21047385.5314                   21047382.7814
 -32355975.96147 -25167961.08644  22809583.8674                   22809581.6804
 -28641238.84048 -22273307.45747  20191664.2584                   20191661.5904
  21860332.17247  17070452.63344  24278554.2894                   24278554.3054
  -9989441.77748  -7742391.72346  21562401.0234                   21562401.3324
 11  8 14  2 23 30.0000000  0  7G29G02G12G10G05G26G25
   8943179.38347   7004468.27045  22958072.6254                   22958071.8484
 -49910476.35248 -38841112.33246  21281035.4534                   21281031.0234
 -30725389.39548 -23899125.56246  21038937.5314                   21038935.1454
 -32350871.02047 -25163983.22744  22810555.1334                   22810552.9694
 -28726193.02048 -22339505.50047  20175497.8134                   20175495.1954
  21673440.69147  16924823.00843  24242990.1804                   24242990.3284
 -10099625.39548  -7828249.05946  21541433.9144                   21541433.9774
 11  8 14  2 24  0.0000000  0  7G29G02G12G10G05G26G25
   8768707.30947   6868516.03144  22924871.8914                   22924870.4384
 -49965965.86748 -38884350.89846  21270475.6804                   21270471.3204
 -30769268.46948 -23933317.04746  21030587.9384                   21030585.1334
 -32345493.19947 -25159792.74244  22811578.8054                   22811576.1524
 -28810574.43048 -22405257.21147  20159440.8364                   20159438.3754
  21486507.15647  16779160.64843  24207417.6174                   24207417.2424
 -10209220.32448  -7913647.68746  21520578.4064                   21520578.5554
 11  8 14  2 24 30.0000000  0  7G29G02G12G10G05G26G25
   8594276.43447   6732595.90245  22891678.4454                   22891677.2074
 -50021340.32848 -38927499.80146  21259938.4224                   21259933.8914
 -30812632.77748 -23967107.41846  21022336.0314                   21022333.1844
 -32339842.78147 -25155389.84444  22812653.7034                   22812651.5234
 -28894381.46948 -22470561.37547  20143492.7034                   20143490.1484
  21299537.08647  16633469.79743  24171838.2424                   24171838.2544
 -10318223.52348  -7998585.21546  21499836.0234                   21499835.7624
 11  8 14  2 25  0.0000000  0  7G29G02G12G10G05G26G25
   9995312.80147   7824312.56345  23158286.8834                   23158286.0744
 -48501179.89148 -37742959.18446  21549215.3984                   21549211.2854
 -29280064.71148 -22772898.52346  21313973.9144                   21313971.6804
 -30758504.52047 -23923178.24244  23113572.2424                   23113570.3134
 -27402193.57048 -21307817.53147  20427446.7344                   20427444.2894
  22687958.45746  17715356.63743  24436046.1644                   24436045.5234
  -8851212.53548  -6855459.74646  21778999.0554                   21778998.5784
 11  8 14  2 25 30.0000000  0  7G29G02G12G10G05G26G25
   9820968.78547   7688460.11345  23125110.4384                   23125109.6684
 -48556326.27748 -37785930.37146  21538721.1884                   21538716.7034
 -29322406.48448 -22805892.11346  21305916.4144                   21305913.9064
 -30752318.04747 -23918357.61744  23114749.5084                   23114747.2664
 -27484854.57848 -21372228.69147  20411716.6644                   20411714.1484
  22500924.75046  17569616.19543  24400454.5314                   24400454.2034
  -8959031.61348  -6939474.59846  21758481.4614                   21758481.1454
 11  8 14  2 26  0.0000000  0  7G29G02G12G10G05G26G25
   9646666.38347   7552640.05945  23091941.3054                   23091940.5704
 -48611363.23848 -37828816.29346  21528248.2274                   21528243.9494
 -29364243.69948 -22838492.53546  21297955.2894                   21297952.5314
 -30745871.62547 -23913334.46144  23115975.4614                   23115974.4494
 -27566948.34048 -21436197.82847  20396094.8134                   20396092.2194
  22313859.78946  17423851.41043  24364857.3054                   24364856.5594
  -9066262.10248  -7023030.79746  21738076.1884                   21738076.1644
 11  8 14  2 26 30.0000000  0  7G29G02G12G10G05G26G25
   9472407.35547   7416853.83645  23058781.5634                   23058779.9414
 -48666291.00847 -37871617.12146  21517795.6024                   21517791.3404
 -29405578.43748 -22870701.42246  21290089.1884                   21290086.7624
 -30739167.86746 -23908110.76244  23117251.8364                   23117249.7584
 -27648475.31648 -21499725.32047  20380580.4064                   20380578.0784
  22126767.01646  17278064.91843  24329255.3914                   24329253.3404
  -9172903.44548  -7106127.92646  21717783.2194                   21717783.0044
 11  8 14  2 27  0.0000000  0  7G29G02G12G10G05G26G25
   9298194.00047   7281103.21545  23025629.7974                   23025628.7234
 -48721109.34448 -37914332.68046  21507364.0394                   21507359.3204
 -29446412.05148 -22902519.80946  21282318.9064                   21282316.6094
 -30732209.25046 -23902688.50044  23118576.1564                   23118574.0274
 -27729435.52748 -21562811.18447  20365174.8754                   20365172.0664
  21939650.30946  17132259.83243  24293647.4924                   24293647.6764
  -9278954.79348  -7188765.32446  21697602.3834                   21697602.3914
 11  8 14  2 27 30.0000000  0  7G29G02G12G10G05G26G25
   9124024.36747   7145386.67245  22992486.6414                   22992484.9264
 -48775821.91048 -37956965.82446  21496952.8134                   21496948.0474
 -29486750.07448 -22933952.03146  21274642.7504                   21274640.3524
 -30725002.20346 -23897072.60544  23119947.0394                   23119944.6884
 -27809833.98448 -21625459.30947  20349875.1954                   20349872.3554
  21752509.40246  16986435.78943  24258035.6954                   24258034.9534
  -9384419.38748  -7270945.50446  21677532.6724                   21677532.8714
 11  8 14  2 28  0.0000000  0  7G29G02G12G10G05G26G25
   8949899.63747   7009705.12145  22959351.5164                   22959349.8554
 -48830430.06648 -37999517.60946  21486561.0554                   21486556.5664
 -29526595.02348 -22965000.03946  21267060.8834                   21267058.0274
 -30717549.92646 -23891265.66843  23121365.4614                   23121363.3134
 -27889672.30948 -21687670.96947  20334682.6174                   20334679.9414
  21565346.97746  16840595.03943  24222419.5474                   24222419.3284
  -9489297.54348  -7352668.73046  21657575.1414                   21657575.2774
 11  8 14  2 28 30.0000000  0  7G29G02G12G10G05G26G25
   8775822.90647   6874060.99245  22926225.8444                   22926224.4264
 -48884932.36348 -38041986.91046  21476189.4454                   21476184.7774
 -29565947.51648 -22995664.31646  21259572.0554                   21259569.4734
 -30709853.59846 -23885268.52044  23122830.4384                   23122828.1024
 -27968949.69148 -21749445.53147  20319596.6484                   20319593.6844
  21378167.82846  16694741.20343  24186800.9224                   24186800.0824
  -9593587.27748  -7433933.45346  21637729.4064                   21637729.1484
 11  8 14  2 29  0.0000000  0  7G29G02G12G10G05G26G25
   8601795.00447   6738454.92645  22893109.3134                   22893107.7624
 -48939330.02748 -38084374.67246  21465838.1094                   21465833.8404
 -29604810.68748 -23025947.30146  21252176.7664                   21252174.2774
 -30701917.29747 -23879084.39844  23124340.2034                   23124338.8874
 -28047668.13748 -21810784.55947  20304616.8524                   20304614.0084
  21190974.23846  16548876.12943  24151178.5864                   24151178.2704
  -9697289.48448  -7514740.35546  21617995.5314                   21617995.1134
 11  8 14  2 29 30.0000000  0  7G29G02G12G10G05G26G25
   8427818.74647   6602889.11345  22860002.5394                   22860001.0664
 -48993622.05948 -38126680.12546  21455506.5084                   21455501.9964
 -29643185.01648 -23055849.37146  21244874.4454                   21244871.6644
 -30693742.10547 -23872714.12944  23125895.8204                   23125894.6334
 -28125827.27748 -21871687.75847  20289743.3984                   20289741.1134
  21003770.96546  16403003.53143  24115555.3054                   24115554.4144
  -9800402.47748  -7595088.13346  21598373.7114                   21598374.1134
 11  8 14  2 30  0.0000000  0  7G29G02G12G10G05G26G25
   8253896.78947   6467365.61345  22826906.2504                   22826904.8364
 -49047808.11348 -38168903.00446  21445195.2664                   21445190.8984
 -29681072.13748 -23085371.79746  21237664.5634                   21237662.0314
 -30685330.43447 -23866159.58644  23127496.6954                   23127494.8984
 -28203427.71948 -21932155.61747  20274976.6644                   20274974.2814
  20816562.04747  16257126.55543  24079930.6254                   24079929.7934
  -9902925.43748  -7674976.15246  21578864.2664                   21578864.3914
 11  8 14  2 30 30.0000000  0  7G29G02G12G10G05G26G25
   8080027.70347   6331883.31645  22793819.6644                   22793818.6094
 -49101891.32048 -38211045.73846  21434903.3284                   21434899.0704
 -29718477.22748 -23114518.61346  21230546.9844                   21230543.9224
 -30676688.05147 -23859425.25844  23129141.3984                   23129140.0084
 -28280473.42648 -21992191.20747  20260315.1954                   20260312.6844
  20629347.54747  16111245.22743  24044304.1884                   24044303.7194
 -10004861.26248  -7754406.66046  21559466.5944                   21559466.7424
 11  8 14  2 31  0.0000000  0  7G29G02G12G10G05G26G25
   7906211.40647   6196442.16445  22760743.8134                   22760742.1914
 -49155873.74648 -38253109.94946  21424631.0084                   21424626.3324
 -29755403.44148 -23143292.29346  21223520.2814                   21223517.3714
 -30667818.67247 -23852514.07844  23130829.6094                   23130828.1134
 -28356966.87148 -22051796.46547  20245759.0164                   20245756.3594
  20442129.64847  15965361.22744  24008678.7504                   24008677.3014
 -10106211.14548  -7833380.60546  21540180.5944                   21540180.3094
 11  8 14  2 31 30.0000000  0  7G29G02G12G10G05G26G25
   7732453.13347   6061046.21945  22727678.1564                   22727677.0594
 -49209752.44948 -38295093.33646  21414378.4844                   21414373.2584
 -29791850.12948 -23171692.28946  21216584.3204                   21216581.6374
 -30658722.78947 -23845426.38344  23132560.0944                   23132557.9064
 -28432906.23048 -22110969.97347  20231308.2974                   20231305.5044
  20254914.60946  15819479.47343  23973052.5004                   23973051.3014
 -10206971.94548  -7911895.50446  21521006.6414                   21521006.5274
 11  8 14  2 32  0.0000000  0  7G29G02G12G10G05G26G25
   7558753.33647   5925695.84045  22694624.8524                   22694622.7934
 -49263528.79748 -38336996.96546  21404144.7814                   21404140.0554
 -29827820.80548 -23199721.39546  21209739.6334                   21209737.1884
 -30649404.00447 -23838164.97744  23134333.5634                   23134331.5204
 -28508293.85548 -22169713.54747  20216962.5004                   20216959.9924
  20067704.77047  15673601.78144  23937427.5704                   23937426.0824
 -10307144.77348  -7989952.25046  21501943.7974                   21501943.8364
 11  8 14  2 32 30.0000000  0  7G29G02G12G10G05G26G25
   7385116.03547   5790394.15645  22661582.4144                   22661580.6294
 -49317200.90648 -38378819.36746  21393931.4304                   21393927.0084
 -29863315.37148 -23227379.49246  21202984.6884                   21202982.6374
 -30639862.88747 -23830730.37544  23136149.1254                   23136147.2814
 -28583128.64548 -22228026.35247  20202722.0704                   20202719.4144
  19880505.47346  15527732.28144  23901804.8984                   23901803.5084
 -10406727.35548  -8067549.07046  21482994.1334                   21482994.0274
 11  8 14  2 33  0.0000000  0  7G29G02G12G10G05G26G25
   7211539.09847   5655139.50845  22628551.4454                   22628550.2194
 -49370773.04748 -38420563.89146  21383737.1334                   21383732.0274
 -29898339.67248 -23254671.15246  21196319.8984                   21196317.3054
 -30630105.94947 -23823127.59044  23138005.8054                   23138003.9104
 -28657415.37948 -22285912.09447  20188585.7194                   20188582.9654
  19693316.54346  15381870.87144  23866183.7664                   23866183.0004
 -10505723.43048  -8144688.85546  21464155.7274                   21464155.8014
 11  8 14  2 33 30.0000000  0  7G29G02G12G10G05G26G25
   8613451.52747   6747538.91445  22895326.3754                   22895324.4344
 -47848821.73048 -37234627.77746  21673354.8914                   21673349.9024
 -28357473.28948 -22053996.04746  21489536.9844                   21489534.5594
 -29044714.53547 -22587757.67243  23439695.3594                   23439694.1334
 -27155731.58248 -21115768.84447  20474346.4064                   20474343.9384
  21081568.86746  16463626.04743  24130359.3674                   24130358.2154
  -9028708.29348  -6993767.95346  21745222.4614                   21745222.1604
 11  8 14  2 34  0.0000000  0  7G29G02G12G10G05G26G25
   8440002.92247   6612384.26645  22862320.5164                   22862318.7114
 -47902191.54348 -37276214.62546  21663198.3674                   21663194.1094
 -28391561.48048 -22080558.27046  21483050.8134                   21483047.8014
 -29034531.49647 -22579822.84043  23441633.1414                   23441631.8984
 -27228924.02348 -21172801.89547  20460418.2974                   20460415.5944
  20894412.85546  16317790.28943  24094744.8444                   24094743.4924
  -9126528.99648  -7069991.86346  21726607.5944                   21726607.3634
 11  8 14  2 34 30.0000000  0  7G29G02G12G10G05G26G25
   8266620.77347   6477281.40245  22829326.5394                   22829325.2234
 -47955461.14148 -37317723.40246  21653062.0314                   21653057.5864
 -28425185.35948 -22106758.68746  21476652.0944                   21476649.3364
 -29024140.19947 -22571725.73843  23443610.6724                   23443608.2854
 -27301571.61348 -21229410.37547  20446594.1724                   20446591.8634
  20707277.82846  16171970.88743  24059133.9304                   24059132.6604
  -9223762.51648  -7145758.21946  21708104.8834                   21708104.8554
 11  8 14  2 35  0.0000000  0  7G29G02G12G10G05G26G25
   8093308.74247   6342233.16445  22796346.8054                   22796344.8984
 -48008628.92248 -37359152.83246  21642944.6024                   21642939.4614
 -28458345.68048 -22132597.89846  21470342.1094                   21470339.1724
 -29013541.50047 -22563467.03543  23445628.1174                   23445625.7114
 -27373673.69148 -21285593.80147  20432873.4924                   20432870.7734
  20520168.99646  16026171.88343  24023528.1884                   24023526.3874
  -9320407.23848  -7221065.77046  21689713.8524                   21689713.7664
 11  8 14  2 35 30.0000000  0  7G29G02G12G10G05G26G25
   7920064.90247   6207238.05545  22763379.3284                   22763377.3594
 -48061698.71948 -37400505.92246  21632845.5004                   21632841.0204
 -28491047.64548 -22158079.94146  21464118.9454                   21464115.7624
 -29002741.59047 -22555051.47743  23447683.2814                   23447680.0594
 -27445235.09048 -21341355.89847  20419255.6254                   20419253.1804
  20333086.64146  15880393.52343  23987927.5164                   23987926.4384
  -9416466.53948  -7295917.14546  21671434.4454                   21671434.3954
 11  8 14  2 36  0.0000000  0  7G29G02G12G10G05G26G25
   7746892.71947   6072298.77745  22730425.6334                   22730424.0474
 -48114669.32848 -37441781.69946  21622765.4224                   21622760.7974
 -28523292.62148 -22183205.89546  21457982.6024                   21457980.0554
 -28991741.60247 -22546480.07843  23449776.1484                   23449774.1684
 -27516255.76248 -21396696.66047  20405740.8054                   20405738.4534
  20146035.34446  15734639.35543  23952332.5704                   23952331.0594
  -9511939.34848  -7370311.51246  21653266.2194                   21653266.1054
 11  8 14  2 36 30.0000000  0  7G29G02G12G10G05G26G25
   7573793.45347   5937416.30945  22697485.7114                   22697484.4224
 -48167541.18448 -37482980.54746  21612704.5944                   21612699.6644
 -28555083.44548 -22207977.96546  21451933.0704                   21451930.5004
 -28980544.92647 -22537755.38744  23451907.1094                   23451905.2194
 -27586737.41848 -21451617.40247  20392328.7734                   20392326.1054
  19959017.94146  15588911.60243  23916743.7274                   23916743.7774
  -9606826.04348  -7444249.15246  21635209.9224                   21635209.9104
 11  8 14  2 37  0.0000000  0  7G29G02G12G10G05G26G25
   7400772.55147   5802594.89145  22664560.7034                   22664559.1054
 -48220311.16848 -37524100.00846  21602662.3284                   21602657.7814
 -28586418.43048 -22232394.82846  21445970.6564                   21445967.4534
 -28969150.47747 -22528876.59844  23454074.8364                   23454072.8674
 -27656677.76648 -21506116.35947  20379019.3284                   20379016.5354
  19772041.93846  15443216.12543  23881164.7734                   23881163.1954
  -9701123.28548  -7517727.48846  21617266.0084                   21617265.6454
 11  8 14  2 37 30.0000000  0  7G29G02G12G10G05G26G25
   7227827.19547   5667832.34445  22631650.8204                   22631648.9964
 -48272983.79748 -37565143.60946  21592639.6094                   21592634.9224
 -28617304.85247 -22256462.17246  21440092.4924                   21440090.1644
 -28957565.96947 -22519849.68444  23456279.6954                   23456277.7034
 -27726082.94148 -21560198.29347  20365811.8364                   20365809.2194
  19585105.86346  15297551.70343  23845591.7274                   23845589.6994
  -9794836.00448  -7590750.35246  21599433.1414                   21599433.0394
 11  8 14  2 38  0.0000000  0  7G29G02G12G10G05G26G25
   7054961.16447   5533131.57045  22598754.9064                   22598753.1884
 -48325557.46948 -37606110.09846  21582634.9614                   21582630.1954
 -28647742.89148 -22280180.11746  21434300.8364                   21434297.7774
 -28945791.89847 -22510675.12944  23458520.4144                   23458518.9064
 -27794952.30548 -21613862.71547  20352706.6804                   20352704.1214
  19398215.19146  15151922.66843  23810026.7894                   23810025.5594
  -9887962.31648  -7663316.27346  21581711.8134                   21581711.5904
 11  8 14  2 38 30.0000000  0  7G29G02G12G10G05G26G25
   6882176.25847   5398494.02345  22565875.3594                   22565873.6134
 -48378032.68748 -37646999.86746  21572648.9304                   21572644.3054
 -28677735.44147 -22303550.93446  21428592.9774                   21428590.7234
 -28933831.13747 -22501355.05944  23460796.3834                   23460795.1054
 -27863287.39548 -21667110.81247  20339703.1334                   20339699.9494
  19211373.12547  15006331.51643  23774472.2814                   23774469.7854
  -9980502.86348  -7735425.76246  21564101.5234                   21564101.2344
 11  8 14  2 39  0.0000000  0  7G29G02G12G10G05G26G25
   6709473.27747   5263920.32045  22533010.9694                   22533009.0204
 -48430410.52348 -37687813.76246  21562681.9384                   21562677.3164
 -28707285.72748 -22326577.12146  21422970.0634                   21422967.4844
 -28921687.16046 -22491892.23443  23463107.1174                   23463106.0044
 -27931090.43048 -21719944.33247  20326800.3444                   20326797.6524
  19024582.22347  14860780.21944  23738927.4924                   23738925.5824
 -10072458.85948  -7807079.75446  21546602.9844                   21546603.0784
 11  8 14  2 39 30.0000000  0  7G29G02G12G10G05G26G25
   6536854.66047   5129412.34045  22500162.8594                   22500160.5514
 -48482690.41048 -37728551.31646  21552733.2424                   21552728.6564
 -28736395.40647 -22349259.98046  21417430.7734                   21417427.7774
 -28909362.69547 -22482288.78143  23465452.3914                   23465450.4304
 -27998362.56648 -21772364.15647  20313998.8834                   20313996.2814
  18837846.33247  14715271.83243  23703392.2424                   23703390.7544
 -10163830.04348  -7878278.04346  21529215.8364                   21529215.6024
 11  8 14  2 40  0.0000000  0  7G29G02G12G10G05G26G25
   6364320.10547   4994969.88345  22467330.1174                   22467328.6254
 -48534874.74648 -37769214.43046  21542803.3834                   21542798.2154
 -28765069.04748 -22371603.07846  21411974.4694                   21411971.7384
 -28896862.27346 -22472548.19943  23467830.9694                   23467829.6604
 -28065107.51648 -21824373.18747  20301297.8984                   20301295.1214
  18651167.09847  14569807.56344  23667868.8284                   23667866.8874
 -10254618.86748  -7949022.55546  21511939.0784                   21511938.8754
 11  8 14  2 40 30.0000000  0  7G29G02G12G10G05G26G25
   6191873.59047   4860596.02345  22434515.3834                   22434512.8054
 -48586961.47748 -37809801.48446  21532891.3674                   21532886.5664
 -28793307.65647 -22393607.18746  21406600.2274                   21406597.3444
 -28884186.65646 -22462671.16443  23470243.1564                   23470241.9614
 -28131324.98048 -21875971.19547  20288697.3134                   20288694.6484
  18464550.00847  14424391.70743  23632356.1334                   23632354.7034
 -10344823.67248  -8019311.98446  21494773.6954                   21494773.3054
 11  8 14  2 41  0.0000000  0  7G29G02G12G10G05G26G25
   6019517.07447   4726292.29745  22401716.5554                   22401714.2464
 -48638951.00848 -37850312.78546  21522997.6804                   21522993.2774
 -28821113.14547 -22415273.80146  21401309.0944                   21401307.0314
 -28871338.50047 -22452659.60243  23472687.5944                   23472686.3014
 -28197015.60948 -21927158.67647  20276196.3984                   20276193.4924
  18277998.37946  14279026.89544  23596856.2034                   23596855.0164
 -10434444.82448  -8089146.62546  21477719.0234                   21477719.0664
 11  8 14  2 41 30.0000000  0  8G29G02G12G10G15G05G26G25
   5847250.96547   4592059.02345  22368935.6334                   22368933.4694
 -48690844.86348 -37890749.54346  21513122.7114                   21513118.1134
 -28848489.60948 -22436606.11346  21396099.7504                   21396096.9804
 -28858321.83247 -22442516.75443  23475165.3364                   23475163.6484
  29659403.21155  23152419.87552  24486229.2344                   24486230.4384
 -28262182.96548 -21977938.41847  20263795.5084                   20263792.8164
  18091514.45346  14133714.86743  23561369.4304                   23561368.1294
 -10523484.32048  -8158528.03546  21460775.5314                   21460775.3404
 11  8 14  2 42  0.0000000  0  8G29G02G12G10G15G05G26G25
   5675075.19147   4457896.14845  22336170.9304                   22336169.5394
 -48742645.11748 -37931113.36346  21503265.9534                   21503260.6294
 -28875441.18748 -22457607.33646  21390971.0084                   21390968.1994
 -28845141.19147 -22432246.10943  23477673.5164                   23477672.0004
  29474389.95746  23008253.91842  24451021.9694                   24451023.5044
 -28326830.51248 -22028313.10947  20251493.5944                   20251490.5314
  17905099.63347  13988456.63344  23525896.2894                   23525894.4884
 -10611944.47348  -8227458.01246  21443942.4304                   21443941.9024
 11  8 14  2 42 30.0000000  0  8G29G02G12G10G15G05G26G25
   7078413.87147   5551406.89145  22603217.8054                   22603216.0204
 -47218933.50848 -36743805.60946  21793218.3834                   21793213.7034
 -27326553.10547 -21250681.55546  21685714.6334                   21685712.1174
 -27256383.07447 -21194252.77043  23780004.3674                   23780002.2304
  30864677.10946  24091594.72743  24715584.9304                   24715585.4844
 -26815541.11748 -20850684.98447  20539082.2664                   20539079.7854
  19294180.19546  15070857.16843  23790228.8984                   23790227.6994
  -9124406.27348  -7068337.31646  21727011.3754                   21727010.8714
 11  8 14  2 43  0.0000000  0  8G29G02G12G10G15G05G26G25
   6906417.92247   5417384.14845  22570487.8054                   22570485.8914
 -47270553.51648 -36784028.97746  21783395.1254                   21783390.4184
 -27352669.84848 -21271032.26646  21680745.1024                   21680741.8524
 -27242888.91047 -21183737.84443  23782572.1414                   23782569.3834
  30679415.15246  23947234.94543  24680329.8364                   24680331.1914
 -26879160.18048 -20900258.25847  20526976.1484                   20526973.2384
  19107907.59446  14925709.80144  23754783.0084                   23754780.9024
  -9211715.83648  -7136370.72746  21710396.9844                   21710396.5664
 11  8 14  2 43 30.0000000  0  8G29G02G12G10G15G05G26G25
   6734516.41847   5283435.00445  22537776.1254                   22537774.3054
 -47322081.95748 -36824180.99645  21773589.6174                   21773584.9924
 -27378371.22348 -21291059.29746  21675854.2424                   21675851.2074
 -27229240.48447 -21173102.64543  23785169.7734                   23785166.7664
  30494034.39546  23802782.60543  24645053.9144                   24645053.8324
 -26942265.86348 -20949431.50047  20514967.5864                   20514964.5514
  18921713.27346  14780623.39844  23719351.1094                   23719349.5274
  -9298449.19148  -7203955.14546  21693891.9144                   21693891.8014
 11  8 14  2 44  0.0000000  0  8G29G02G12G10G15G05G26G25
   6562709.54747   5149559.60545  22505082.1644                   22505080.1844
 -47373520.65248 -36864263.08246  21763801.4534                   21763796.4694
 -27403661.05948 -21310765.66846  21671041.6564                   21671039.2934
 -27215442.36347 -21162350.87943  23787794.6024                   23787792.7274
  30308535.58646  23658238.22743  24609754.9384                   24609754.9884
 -27004861.50848 -20998207.30947  20503055.7344                   20503052.9654
  18735598.61747  14635599.06344  23683934.8284                   23683932.8754
  -9384608.81648  -7271092.51246  21677496.2584                   21677496.1684
 11  8 14  2 44 30.0000000  0  8G29G02G12G10G15G05G26G25
   6391003.19147   5015762.52345  22472407.6254                   22472405.5434
 -47424865.99647 -36904272.43746  21754030.6804                   21754025.9774
 -27428538.60248 -21330150.75446  21666307.2734                   21666304.7854
 -27201493.05547 -21151481.25443  23790449.4064                   23790447.1254
  30122925.28546  23513607.00044  24574434.1954                   24574433.8164
 -27066944.69548 -21046583.80947  20491241.3674                   20491238.7704
  18549571.30147  14490642.83244  23648534.7194                   23648533.2034
  -9470191.36748  -7337780.21146  21661210.6254                   21661210.3554
 11  8 14  2 45  0.0000000  0  8G29G02G12G10G15G05G26G25
   6219399.35247   4882045.32845  22439752.4844                   22439750.1844
 -47476117.96947 -36944209.02046  21744278.0314                   21744273.1254
 -27453006.31647 -21349216.51246  21661651.2664                   21661648.5354
 -27187394.94547 -21140495.71143  23793132.1484                   23793130.3134
  29937205.78546  23368890.66444  24539093.1484                   24539092.4104
 -27128517.31248 -21094562.44547  20479524.9224                   20479521.9104
  18363634.79747  14345757.32044  23613151.8444                   23613150.3284
  -9555197.46548  -7404018.71546  21645034.2894                   21645034.1884
 11  8 14  2 45 30.0000000  0  8G29G02G12G10G15G05G26G25
   6047899.54747   4748409.19145  22407117.0084                   22407114.9654
 -47527276.95747 -36984073.16046  21734542.5704                   21734537.5274
 -27477067.07048 -21367965.14846  21657072.8914                   21657070.0554
 -27173151.31646 -21129396.76643  23795842.9534                   23795840.5904
  29751379.80947  23224091.37544  24503731.5164                   24503730.7234
 -27189581.34048 -21142144.78547  20467904.5634                   20467902.0084
  18177792.47347  14200945.22344  23577786.6484                   23577785.5744
  -9639627.98448  -7469808.73046  21628967.7034                   21628967.9304
 11  8 14  2 46  0.0000000  0  8G29G02G12G10G15G05G26G25
   5876505.25047   4614855.25845  22374502.0704                   22374499.6174
 -47578343.50448 -37023865.25846  21724824.9534                   21724820.6524
 -27500723.77748 -21386398.93746  21652571.2814                   21652568.5984
 -27158765.54346 -21118187.07843  23798580.3674                   23798577.7544
  29565449.44547  23079210.73044  24468349.7894                   24468349.1294
 -27250138.67648 -21189332.30947  20456381.0474                   20456378.1214
  17992047.28147  14056208.77344  23542441.6484                   23542439.5864
  -9723484.08648  -7535151.14146  21613010.5234                   21613009.9964
 11  8 14  2 46 30.0000000  0  8G29G02G12G10G15G05G26G25
   5705221.96147   4481387.83645  22341907.4534                   22341905.2544
 -47629314.19947 -37063582.66846  21715125.4774                   21715120.3954
 -27523975.84447 -21404517.43446  21648146.1804                   21648143.5124
 -27144236.33646 -21106865.64543  23801344.4454                   23801343.2034
  29379420.39547  22934253.19544  24432949.9454                   24432948.2624
 -27310187.94548 -21236123.93447  20444953.8754                   20444950.7234
  17806406.43047  13911553.64844  23507115.2034                   23507113.2584
  -9806762.96548  -7600043.77346  21597163.1484                   21597162.8404
 11  8 14  2 47  0.0000000  0  8G29G02G12G10G15G05G26G25
   5534051.42247   4348008.26645  22309334.5784                   22309332.9104
 -47680189.53947 -37103225.77045  21705444.1484                   21705439.3094
 -27546826.10548 -21422322.82046  21643798.0784                   21643795.5864
 -27129566.67647 -21095434.77043  23804136.2034                   23804134.8014
  29193295.14846  22789220.71544  24397530.0004                   24397530.3554
 -27369730.83648 -21282520.96547  20433623.2274                   20433620.2344
  17620873.21547  13766982.35544  23471809.5394                   23471807.4964
  -9889465.73448  -7664487.49646  21581425.1724                   21581425.0124
 11  8 14  2 47 30.0000000  0  8G29G02G12G10G15G05G26G25
   5362992.62547   4214715.75845  22276783.4454                   22276781.3404
 -47730972.54347 -37142796.93445  21695780.7114                   21695776.0784
 -27569279.94947 -21439819.32046  21639524.7504                   21639522.3634
 -27114762.15247 -21083898.75844  23806954.1334                   23806951.7344
  29007073.25846  22644112.92244  24362093.7584                   24362093.8204
 -27428772.22748 -21328527.23046  20422388.2274                   20422385.4104
  17435447.93447  13622495.18444  23436524.0004                   23436521.7034
  -9971596.16048  -7728485.21946  21565796.4844                   21565796.3954
 11  8 14  2 48  0.0000000  0  8G29G02G12G10G15G05G26G25
   5192047.62947   4081511.92645  22244253.5634                   22244251.4534
 -47781663.21547 -37182296.13745  21686134.5234                   21686129.1844
 -27591340.23848 -21457009.15246  21635327.3754                   21635324.4144
 -27099825.33247 -21072259.73044  23809796.2584                   23809794.7274
  28820757.50846  22498931.98443  24326639.1804                   24326638.3524
 -27487313.80948 -21374144.03546  20411248.1884                   20411245.1334
  17250134.31347  13478095.03144  23401259.5864                   23401257.6054
 -10053154.89848  -7792037.47746  21550276.4844                   21550276.1134
 11  8 14  2 48 30.0000000  0  8G29G02G12G10G15G05G26G25
   5021219.57847   3948399.21945  22211745.5474                   22211743.7034
 -47832260.35548 -37221722.48446  21676506.0394                   21676501.3404
 -27613008.21548 -21473893.28146  21631204.3524                   21631201.2304
 -27084757.57847 -21060518.61743  23812663.4774                   23812660.8324
  28634351.88746  22353681.00843  24291168.0864                   24291166.9574
 -27545356.04748 -21419371.73447  20400202.9534                   20400200.2194
  17064937.32447  13333785.74644  23366018.0084                   23366016.0124
 -10134141.51248  -7855143.93046  21534865.2974                   21534864.8014
 11  8 14  2 49  0.0000000  0  8G29G02G12G10G15G05G26G25
   4850509.68047   3815378.58245  22179261.1334                   22179259.1994
 -47882765.08248 -37261076.81245  21666895.2114                   21666890.4964
 -27634287.62148 -21490474.64146  21627154.8674                   21627151.9734
 -27069562.52747 -21048678.32043  23815554.5784                   23815553.4774
  28447858.20346  22208361.37543  24255677.8594                   24255677.8594
 -27602901.90248 -21464212.64147  20389252.4694                   20389249.5944
  16879859.58647  13189569.38344  23330799.1644                   23330796.2854
 -10214557.71148  -7917805.89546  21519562.3284                   21519562.0394
 11  8 14  2 49 30.0000000  0  8G29G02G12G10G15G05G26G25
   4679921.87147   3682453.07445  22146798.9384                   22146797.0634
 -47933175.58648 -37300357.71145  21657302.2894                   21657297.6484
 -27655179.72348 -21506754.19946  21623178.8984                   21623176.0944
 -27054240.80147 -21036739.34443  23818470.6334                   23818468.3794
  28261280.39546  22062976.21943  24220173.2274                   24220173.0554
 -27659951.00448 -21508666.48046  20378395.9304                   20378393.5234
  16694906.51247  13045450.15644  23295603.3834                   23295601.2304
 -10294402.82048  -7980022.84846  21504368.1884                   21504367.8054
 11  8 14  2 50  0.0000000  0  8G29G02G12G10G15G05G26G25
   4509455.97347   3549622.56645  22114360.3754                   22114358.3594
 -47983493.92647 -37339566.80546  21647727.5634                   21647722.6054
 -27675688.71948 -21522735.23046  21619276.4774                   21619273.3444
 -27038797.19947 -21024705.38343  23821409.2664                   23821408.0554
  28074619.19546  21917526.04343  24184652.8914                   24184652.6914
 -27716507.74248 -21552736.64847  20367633.7424                   20367631.1024
  16510079.31347  12901429.05144  23260432.4304                   23260429.8594
 -10373679.66448  -8041797.00846  21489282.6024                   21489282.3014
 11  8 14  2 50 30.0000000  0  8G29G02G12G10G15G05G26G25
   4339113.68447   3416888.39145  22081945.1804                   22081942.9184
 -48033720.17247 -37378704.12545  21638169.6564                   21638164.8914
 -27695817.63748 -21538420.09846  21615445.9614                   21615443.4534
 -27023234.31647 -21012578.44543  23824370.9774                   23824368.9534
  27887877.60546  21772013.27043  24149117.4614                   24149116.1134
 -27772573.85248 -21596424.50847  20356964.6564                   20356961.9184
  16325381.94947  12757509.08644  23225284.9144                   23225283.3954
 -10452389.16448  -8103129.07446  21474304.8754                   21474303.8284
 11  8 14  2 51  0.0000000  0  8G29G02G12G10G15G05G26G25
   5744324.96547   4511858.27745  22349347.9844                   22349346.2344
 -46508430.44147 -36190166.66845  21928422.6094                   21928417.5204
 -26140146.59048 -20326208.88746  21911480.3444                   21911477.4304
 -25432133.12146 -19772759.32443  24127147.3834                   24127145.6564
  29276486.48846  22854046.28943  24413361.1724                   24413359.5044
 -26252727.19948 -20412128.40247  20646182.4064                   20646179.1644
  17716246.07847  13841299.40644  23489957.3054                   23489956.1374
  -8955107.66048  -6936416.19946  21759227.8594                   21759227.3164
 11  8 14  2 51 30.0000000  0  8G29G02G12G10G15G05G26G25
   5574239.93447   4379324.55145  22316981.6644                   22316979.4064
 -46558469.30147 -36229157.98845  21918900.2974                   21918896.0084
 -26159520.32047 -20341305.30146  21907793.4454                   21907791.0314
 -25416335.83646 -19760449.75843  24130154.0554                   24130151.2544
  29089594.92247  22708416.59443  24377796.4534                   24377795.7424
 -26307814.08648 -20455053.23046  20635699.5164                   20635696.0434
  17531822.15246  13697592.49644  23454862.5004                   23454860.8594
  -9032682.16048  -6996863.85546  21744465.7734                   21744465.4224
 11  8 14  2 52  0.0000000  0  8G29G02G12G10G15G05G26G25
   5404285.37947   4246892.49245  22284640.5234                   22284638.4144
 -46608415.75848 -36268077.29745  21909395.8204                   21909391.1914
 -26178521.47747 -20356111.39146  21904177.7274                   21904175.1604
 -25400426.42646 -19748052.80543  24133180.5474                   24133178.7274
  28902631.08647  22562730.62143  24342218.2974                   24342217.4614
 -26362415.60548 -20497599.85547  20625309.4614                   20625306.1254
  17347539.42247  13553995.63744  23419794.3984                   23419793.3094
  -9109691.71148  -7056871.29346  21729811.5164                   21729811.0514
 11  8 14  2 52 30.0000000  0  8G29G02G12G10G15G05G26G25
   5234461.32447   4114562.12545  22252324.3134                   22252321.8244
 -46658271.91047 -36306926.25045  21899908.2344                   21899903.7504
 -26197155.27347 -20370631.23446  21900632.0234                   21900629.0274
 -25384409.48846 -19735572.06643  24136228.6804                   24136227.1174
  28715595.92247  22416989.04344  24306626.4614                   24306625.6214
 -26416535.40648 -20539771.11746  20615010.4534                   20615007.2234
  17163399.06347  13410509.74644  23384753.3594                   23384752.8444
  -9186139.54748  -7116441.01246  21715263.6564                   21715263.1764
 11  8 14  2 53  0.0000000  0  8G29G02G12G10G15G05G26G25
   5064772.75847   3982337.34445  22220033.4454                   22220031.2704
 -46708035.00047 -36345702.67245  21890438.6644                   21890433.9844
 -26215421.39847 -20384864.57046  21897156.2504                   21897153.1174
 -25368284.23446 -19723006.93443  24139296.7274                   24139295.0394
  28528495.14847  22271196.35544  24271022.8134                   24271021.6094
 -26470172.70748 -20581566.40246  20604803.2664                   20604800.3984
  16979407.91047  13267140.07844  23349741.9694                   23349740.5354
  -9262023.68048  -7175571.49646  21700823.4064                   21700823.3444
 11  8 14  2 53 30.0000000  0  8G29G02G12G10G15G05G26G25
   4895219.32847   3850217.84045  22187768.6254                   22187765.8134
 -46757707.29347 -36384408.36745  21880986.5944                   21880981.7464
 -26233325.01647 -20398815.44146  21893749.1884                   21893746.1644
 -25352056.16846 -19710361.70343  24142385.4454                   24142383.4694
  28341328.54347  22125352.34844  24235405.9774                   24235404.4064
 -26523331.92648 -20622989.16447  20594687.8204                   20594684.6294
  16795567.08247  13123887.55544  23314757.9454                   23314756.6454
  -9337347.82848  -7234265.61346  21686489.9694                   21686489.4924
 11  8 14  2 54  0.0000000  0  8G29G02G12G10G15G05G26G25
   4725803.58247   3718205.63346  22155529.6414                   22155527.1134
 -46807288.03547 -36423042.69945  21871551.7194                   21871546.8094
 -26250867.98047 -20412485.27746  21890410.4924                   21890407.6684
 -25335726.76646 -19697637.50443  24145492.4454                   24145490.8164
  28154099.74247  21979459.91444  24199776.8444                   24199776.2544
 -26576014.16448 -20664040.24246  20584662.4384                   20584659.3054
  16611880.88747  12980755.53144  23279803.3524                   23279801.8204
  -9412112.19548  -7292523.54746  21672262.4384                   21672262.0784
 11  8 14  2 54 30.0000000  0  8G29G02G12G10G15G05G26G25
   4556528.43447   3586302.98045  22123317.2504                   22123315.4694
 -46856776.69147 -36461605.29745  21862134.5164                   21862129.6644
 -26268052.85247 -20425876.08246  21887140.7974                   21887137.8094
 -25319298.32046 -19684836.15643  24148618.7734                   24148617.5084
  27966811.99247  21833521.53544  24164137.5474                   24164136.8094
 -26628221.11748 -20704720.98046  20574728.0234                   20574724.2894
  16428353.33247  12837747.11744  23244879.1254                   23244877.6484
  -9486317.51248  -7350345.86746  21658141.5784                   21658141.3204
 11  8 14  2 55  0.0000000  0  8G29G02G12G10G15G05G26G25
   4387397.80547   3454512.92645  22091133.4694                   22091130.7974
 -46906171.22747 -36500094.54346  21852735.1174                   21852730.3014
 -26284880.46147 -20438988.51246  21883938.8134                   21883935.5514
 -25302771.06647 -19671957.75443  24151763.8444                   24151761.9614
  27779470.23847  21687541.08644  24128487.1414                   24128487.0084
 -26679952.47348 -20745031.11346  20564883.3594                   20564880.7624
  16244990.40247  12694866.98444  23209986.6254                   23209984.5434
  -9559962.80948  -7407731.78946  21644127.3984                   21644127.0004
 11  8 14  2 55 30.0000000  0  8G29G02G12G10G15G05G26G25
   4218412.94947   3322836.47345  22058976.0864                   22058973.9694
 -46955472.59848 -36538511.19945  21843353.1094                   21843348.3204
 -26301354.84447 -20451825.68746  21880803.2424                   21880800.7734
 -25286148.46546 -19659005.09043  24154928.0784                   24154925.2504
  27592076.20746  21541519.91444  24092826.7194                   24092826.6134
 -26731211.11348 -20784972.91046  20555129.5474                   20555126.3284
  16061794.58247  12552117.04744  23175125.7504                   23175123.3404
  -9633050.18048  -7464682.97346  21630219.3754                   21630219.1094
 11  8 14  2 56  0.0000000  0  8G29G02G12G10G15G05G26G25
   4049575.55947   3191274.91846  22026847.7664                   22026845.0314
 -47004681.43448 -36576855.73445  21833988.9614                   21833984.4614
 -26317479.00847 -20464389.97346  21877735.0864                   21877732.3874
 -25269433.59846 -19645980.50043  24158107.7584                   24158105.9964
  27404632.14846  21395459.75444  24057157.6484                   24057156.3874
 -26781999.78948 -20824548.48846  20545464.7504                   20545461.8134
  15878769.16847  12409499.89844  23140296.8674                   23140294.6914
  -9705581.35948  -7521200.76246  21616417.2664                   21616416.6454
 11  8 14  2 56 30.0000000  0  8G29G02G12G10G15G05G26G25
   3880884.48047   3059827.37946  21994746.4924                   21994744.2664
 -47053800.67248 -36615130.46145  21824641.8984                   21824637.1804
 -26333258.89148 -20476685.97746  21874732.2194                   21874729.8364
 -25252632.05946 -19632888.35543  24161305.6644                   24161303.6054
  27217137.63746  21249360.27343  24021477.7034                   24021477.5554
 -26832323.71548 -20863761.93446  20535888.5004                   20535885.2504
  15695914.65647  12267015.93044  23105500.4144                   23105499.1024
  -9777560.76248  -7577288.59046  21602719.7584                   21602719.8284
 11  8 14  2 57  0.0000000  0  8G29G02G12G10G15G05G26G25
   3712345.01247   2928497.96945  21962674.6254                   21962671.9144
 -47102827.21148 -36653332.95745  21815312.5864                   21815307.5984
 -26348694.30948 -20488713.56646  21871795.0784                   21871792.3794
 -25235743.12546 -19619728.19943  24164519.1174                   24164517.3524
  27029598.51646  21103226.03944  23985790.9454                   23985790.2624
 -26882181.57848 -20902612.21146  20526400.8834                   20526397.7624
  15513237.58647  12124670.22744  23070738.4224                   23070737.0744
  -9848986.50448  -7632944.99246  21589128.0004                   21589127.4384
 11  8 14  2 57 30.0000000  0  8G29G02G12G10G15G05G26G25
   3543961.29747   2797289.91445  21930632.1484                   21930629.6564
 -47151758.66048 -36691461.35945  21806001.1254                   21805996.5354
 -26363785.47748 -20500472.91446  21868923.4064                   21868920.3204
 -25218767.22746 -19606500.22743  24167749.6334                   24167747.7704
  26842019.78146  20957060.91443  23950095.7584                   23950094.4224
 -26931573.18448 -20941099.16046  20517001.4144                   20516998.3364
  15330744.07047  11982467.53944  23036011.4614                   23036009.4064
  -9919857.66848  -7688169.25846  21575641.5474                   21575641.7194
 11  8 14  2 58  0.0000000  0  8G29G02G12G10G15G05G26G25
   3375734.46547   2666204.11346  21898620.0864                   21898617.4574
 -47200596.28948 -36729516.65245  21796707.7664                   21796702.8954
 -26378536.90248 -20511967.52346  21866116.3834                   21866113.4534
 -25201707.75446 -19593207.14543  24170995.8134                   24170994.0314
  26654403.06346  20810866.21144  23914393.1254                   23914391.8054
 -26980501.94548 -20979225.46146  20507690.7424                   20507687.7384
  15148436.66847  11840409.86344  23001319.1174                   23001316.7384
  -9990176.68748  -7742963.28546  21562260.4224                   21562260.0044
 11  8 14  2 58 30.0000000  0  8G29G02G12G10G15G05G26G25
   3207663.39548   2535239.67646  21866636.9774                   21866634.4344
 -47249343.60248 -36767501.57845  21787431.3134                   21787426.4104
 -26392955.16448 -20523202.52746  21863372.3054                   21863369.9304
 -25184570.55546 -19579853.48843  24174256.7814                   24174254.4804
  26466747.21547  20664641.00443  23878683.8364                   23878681.6644
 -27028972.97748 -21016995.09046  20498467.0634                   20498463.9534
  14966315.44147  11698497.28144  22966662.1564                   22966660.3204
 -10059948.39848  -7797330.84846  21548983.1254                   21548982.9414
 11  8 14  2 59  0.0000000  0  8G29G02G12G10G15G05G26G25
   3039752.93847   2404400.39546  21834684.7424                   21834682.2304
 -47297997.42248 -36805413.64845  21778172.8594                   21778168.4654
 -26407039.85948 -20534177.59446  21860692.3204                   21860689.6134
 -25167355.31246 -19566439.06642  24177533.6094                   24177530.8874
  26279058.97347  20518390.52344  23842967.5944                   23842965.9774
 -27076985.96548 -21054407.79346  20489330.6254                   20489327.5864
  14784386.86747  11556734.82844  22932042.3444                   22932040.6914
 -10129171.14848  -7851270.63346  21535810.5704                   21535810.2624
 11  8 14  2 59 30.0000000  0  8G29G02G12G10G15G05G26G25
   4447428.80548   3501290.72346  22102555.9844                   22102553.8914
 -45771138.39548 -35615653.37545  22068724.7664                   22068719.5704
 -24845375.51648 -19317296.28946  22157867.0234                   22157864.4924
 -23574646.99246 -18325367.68043  24480614.7974                   24480613.3914
  27666764.61747  21599719.71143  24107039.3674                   24107037.0274
 -25549123.84048 -19863865.87146  20780073.3984                   20780070.1334
  16178078.77047  12642728.54744  23197253.6644                   23197251.4264
  -8622426.24248  -6677183.68046  21822534.6484                   21822534.4104
 11  8 14  3  0  0.0000000  0  8G29G02G12G10G15G05G26G25
   4279842.07047   3370703.68846  22070665.6024                   22070663.3594
 -45819609.30148 -35653422.91445  22059500.3054                   22059495.6684
 -24858805.85548 -19327761.46946  22155311.3594                   22155308.0864
 -23557286.59846 -18311840.14843  24483918.1564                   24483917.9264
  27479014.84047  21453421.27343  24071311.7194                   24071309.5394
 -25596231.05148 -19900572.77746  20771108.8984                   20771105.8364
  15996542.68047  12501271.91044  23162708.0084                   23162706.0204
  -8690559.37548  -6730274.42646  21809569.8984                   21809569.1564
 11  8 14  3  0 30.0000000  0  8G29G02G12G10G15G05G26G25
   4112423.28948   3240247.52746  22038806.9304                   22038804.0864
 -45867985.79348 -35691118.89845  22050294.9774                   22050290.2274
 -24871910.40648 -19337972.78546  22152817.1174                   22152814.9024
 -23539854.75846 -18298256.92242  24487236.0634                   24487234.6254
  27291241.40647  21307104.42244  24035579.0704                   24035578.2274
 -25642885.21948 -19936926.66446  20762230.9924                   20762227.4694
  15815211.42647  12359974.87944  23128201.6804                   23128200.0044
  -8758146.94548  -6782940.04746  21796707.4224                   21796707.4534
 11  8 14  3  1  0.0000000  0  8G29G02G12G10G15G05G26G25
   3945171.15248   3109921.22346  22006979.5234                   22006977.3444
 -45916271.24247 -35728743.92245  22041106.2504                   22041101.3674
 -24884695.48048 -19347935.17646  22150384.8834                   22150381.8054
 -23522356.87946 -18284622.27342  24490565.7274                   24490564.3164
  27103443.60947  21160768.58244  23999842.9304                   23999841.3524
 -25689092.39848 -19972932.23846  20753437.9774                   20753435.2974
  15634085.02347  12218837.46544  23093734.8914                   23093733.0354
  -8825193.82848  -6835184.35946  21783949.0634                   21783948.7464
 11  8 14  3  1 30.0000000  0  9G29G02G12G10G15G05G26G25G21
   3778090.54748   2979728.58246  21975185.2814                   21975182.9224
 -45964463.13348 -35766296.04345  22031935.9774                   22031930.8404
 -24897161.94147 -19357649.27746  22148012.2664                   22148009.5824
 -23504793.39846 -18270936.35242  24493908.1564                   24493906.7664
  26915627.03547  21014418.10244  23964102.2584                   23964100.5274
 -25734851.84448 -20008588.94146  20744730.3754                   20744727.0514
  15453169.53547  12077864.40244  23059308.2034                   23059306.0554
  -8891699.13348  -6887006.67246  21771293.6484                   21771293.6524
  34439526.50056  26874517.81352  25250356.5234                   25250355.4414
 11  8 14  3  2  0.0000000  0  9G29G02G12G10G15G05G26G25G21
   3611178.59848   2849667.35946  21943423.3834                   21943420.8834
 -46012566.22747 -35803778.98045  22022781.9064                   22022777.1844
 -24909317.13747 -19367120.85245  22145699.0164                   22145696.3324
 -23487171.23846 -18257204.81643  24497261.3984                   24497259.6644
  26727789.35946  20868051.17244  23928357.9144                   23928355.8954
 -25780170.80148 -20043902.39846  20736106.6484                   20736103.4344
  15272464.06647  11937054.98844  23024920.2664                   23024918.2384
  -8957669.09048  -6938411.82446  21758740.1024                   21758739.6644
  34291236.27046  26758967.06342  25222137.8834                   25222137.2384
 11  8 14  3  2 30.0000000  0  9G29G02G12G10G15G05G26G25G21
   3444433.72748   2719736.32046  21911692.8204                   21911690.0434
 -46060584.08648 -35841195.49645  22013644.7034                   22013640.2344
 -24921167.92647 -19376355.22345  22143444.2664                   22143441.2114
 -23469496.40246 -18243432.22343  24500625.5864                   24500622.5704
  26539929.82446  20721667.23444  23892609.5394                   23892607.8484
 -25825055.35948 -20078877.36346  20727565.1954                   20727561.8054
  15091968.35247  11796409.03144  22990572.9454                   22990570.8554
  -9023109.00448  -6989403.95346  21746287.2034                   21746286.8244
  34142954.45346  26643422.92642  25193920.9224                   25193919.4734
 11  8 14  3  3  0.0000000  0  9G29G02G12G10G15G05G26G25G21
   3277861.59448   2589939.88346  21879995.2584                   21879992.1954
 -46108513.35947 -35878542.98445  22004523.8134                   22004519.8444
 -24932714.18448 -19385352.30545  22141246.9224                   22141244.3754
 -23451768.04746 -18229617.93743  24503999.3204                   24503996.5904
  26352054.57846  20575271.05144  23856858.0944                   23856856.1214
 -25869504.28548 -20113512.88746  20719106.7114                   20719103.4924
  14911689.52347  11655932.08244  22956267.1804                   22956265.2974
  -9088017.14848  -7039981.71546  21733935.5634                   21733935.5234
  33994684.02746  26527887.63842  25165705.3524                   25165704.4104
 11  8 14  3  3 30.0000000  0  9G29G02G12G10G15G05G26G25G21
   3111463.80547   2460279.28946  21848330.4224                   21848328.0474
 -46156354.06247 -35915821.44945  21995420.5234                   21995415.7774
 -24943959.09847 -19394114.55145  22139107.2344                   22139104.4224
 -23433989.12146 -18215764.23843  24507382.5944                   24507379.4844
  26164165.70346  20428864.27044  23821103.8444                   23821102.1524
 -25913520.09848 -20147810.90646  20710730.7664                   20710727.6804
  14731630.70347  11515626.54344  22922003.1024                   22922001.0664
  -9152395.50448  -7090146.64846  21721685.0164                   21721684.7074
  33846423.96946  26412360.45742  25137491.7504                   25137491.6214
 11  8 14  3  4  0.0000000  0  9G29G02G12G10G15G05G26G25G21
   2945243.46548   2330756.97746  21816699.5944                   21816697.4224
 -46204105.29747 -35953030.21945  21986333.7974                   21986329.1804
 -24954904.40248 -19402643.35246  22137024.4304                   22137021.0634
 -23416160.64846 -18201871.94943  24510774.1644                   24510772.0944
  25976267.59046  20282450.27344  23785347.7344                   23785346.1954
 -25957103.87948 -20181772.27746  20702437.1564                   20702434.0164
  14551796.71947  11375496.23044  22887781.3524                   22887779.7974
  -9216244.48448  -7139899.09446  21709534.7344                   21709534.2344
  33698174.97746  26296841.89543  25109281.3524                   25109280.4494
 11  8 14  3  4 30.0000000  0  9G29G02G12G10G15G05G26G25G21
   2779203.78947   2201375.43446  21785103.2194                   21785100.8594
 -46251766.15247 -35990168.55145  21977264.5234                   21977259.0634
 -24965552.19547 -19410940.32446  22134998.1884                   22134995.3794
 -23398284.03946 -18187942.04743  24514176.8364                   24514173.5944
  25788363.85246  20136031.87544  23749590.5084                   23749588.8204
 -26000257.39848 -20215398.38746  20694225.3204                   20694222.1214
  14372192.01647  11235544.55544  22853604.1884                   22853602.0554
  -9279565.13348  -7189239.85246  21697485.1174                   21697485.1214
  33549936.86746  26181331.84043  25081072.4454                   25081071.3954
 11  8 14  3  5  0.0000000  0  9G29G02G12G10G15G05G26G25G21
   2613345.96548   2072135.59846  21753541.6094                   21753539.3834
 -46299337.83647 -36027237.40245  21968211.4844                   21968206.7074
 -24975907.07447 -19419009.05945  22133027.6564                   22133024.5314
 -23380363.04346 -18173977.64843  24517586.5234                   24517583.8594
  25600456.14846  19989610.39844  23713832.8134                   23713831.2814
 -26042983.67248 -20248691.57446  20686094.9144                   20686091.8284
  14192819.05547  11095773.46144  22819470.2034                   22819468.4574
  -9342360.12948  -7238171.01246  21685535.7894                   21685535.3874
  33401707.94546  26065828.86343  25052865.7274                   25052863.9694
 11  8 14  3  5 30.0000000  0  9G29G02G12G10G15G05G26G25G21
   2447674.50448   1943040.98846  21722015.5784                   21722013.0594
 -46346817.58248 -36064234.62945  21959176.3444                   21959171.7814
 -24985969.27047 -19426849.71945  22131113.2344                   22131110.4694
 -23362397.25046 -18159978.35243  24521005.6954                   24521002.9104
  25412549.76246  19843189.94944  23678075.2734                   23678073.5084
 -26085282.60248 -20281651.76646  20678045.5004                   20678042.3954
  14013684.17247  10956187.88344  22785381.9304                   22785380.1294
  -9404628.58648  -7286691.87546  21673686.4454                   21673686.2154
  33253490.60246  25950334.98843  25024661.4774                   25024659.0744
 11  8 14  3  6  0.0000000  0  8G29G02G12G15G05G26G25G21
   2282193.65248   1814094.90646  21690525.3364                   21690523.1094
 -46394203.21948 -36101158.49645  21950159.1564                   21950154.3914
 -24995739.87147 -19434463.16845  22129253.6884                   22129250.7854
  25224649.81647  19696774.53544  23642319.2344                   23642317.8874
 -26127154.15648 -20314278.93746  20670077.7424                   20670074.7344
  13834792.92247  10816792.14545  22751340.3914                   22751338.5164
  -9466370.30548  -7334802.30946  21661937.4614                   21661937.3714
  33105285.58646  25834850.66043  24996458.0164                   24996456.4734
 11  8 14  3  6 30.0000000  0  8G29G02G12G15G05G26G25G21
   2116903.87147   1685297.70746  21659071.8754                   21659069.4774
 -46441496.77347 -36138010.62545  21941159.7584                   21941154.8094
 -25005223.57447 -19441853.07445  22127448.7194                   22127446.3204
  25036756.87547  19550364.52744  23606564.1884                   23606562.2894
 -26168602.83248 -20346576.60246  20662190.0164                   20662187.3134
  13656147.15247  10677587.69144  22717345.2584                   22717343.0044
  -9527589.05548  -7382505.21546  21650287.4534                   21650287.3554
  32957090.66846  25719374.20743  24968257.0314                   24968255.6804
 11  8 14  3  7  0.0000000  0  8G29G02G12G15G05G26G25G21
   1951808.40648   1556651.93046  21627655.2034                   21627652.7974
 -46488696.87148 -36174789.93045  21932177.9304                   21932173.1134
 -25014422.47747 -19449021.04345  22125698.3364                   22125695.6724
  24848874.83246  19403963.02044  23570811.6414                   23570809.9024
 -26209629.92248 -20378545.74646  20654382.7274                   20654379.7974
  13477751.46547  10538578.11344  22683397.6094                   22683395.3014
  -9588285.27048  -7429800.95746  21638737.6024                   21638737.0744
  32808906.60246  25603906.24243  24940058.3524                   24940057.5314
 11  8 14  3  7 30.0000000  0  8G29G02G12G15G05G26G25G21
   1786914.80948   1428163.46146  21596277.1884                   21596274.6174
 -46535797.81247 -36211491.96945  21923214.7814                   21923209.8954
 -25023333.86347 -19455964.98045  22124002.6254                   22123999.6214
  24661012.60246  19257576.98444  23535062.4224                   23535060.3054
 -26250231.98048 -20410183.70346  20646656.6254                   20646653.3754
  13299615.21947  10399770.70344  22649499.2114                   22649497.5824
  -9648455.27048  -7476686.66046  21627287.5234                   21627287.2304
  32660738.13346  25488450.39843  24911863.0784                   24911861.9384
 11  8 14  3  8  0.0000000  0  8G29G02G12G15G05G26G25G21
   1622226.94148   1299835.30946  21564938.0234                   21564935.2734
 -46582797.70747 -36248115.27345  21914270.8204                   21914266.0594
 -25031959.70747 -19462686.40245  22122360.9694                   22122358.3634
  24473174.48446  19111209.68844  23499317.7114                   23499315.8164
 -26290409.71548 -20441491.01246  20639010.8134                   20639008.0784
  13121743.54747  10261169.43044  22615651.4774                   22615649.0274
  -9708099.30148  -7523162.53146  21615937.8674                   21615937.7584
  32512586.08246  25373007.33643  24883670.7274                   24883669.0514
 11  8 14  3  8 30.0000000  0  8G29G02G12G15G05G26G25G21
   3033170.78548   2399272.10946  21833431.3134                   21833429.1644
 -45054276.86348 -35057060.07845  22205138.4384                   22205133.8404
 -23464883.91047 -18241588.37145  22420565.9064                   22420563.0044
  25860787.88746  20192466.96944  23763371.8754                   23763369.7584
 -24754745.86348 -19244869.80946  20931237.9844                   20931234.9224
  14519564.53147  11350380.62944  22881647.4534                   22881645.3284
  -8191798.83248  -6341629.69146  21904480.4304   21904479.9344   33939873.56346
  26485179.51243  25155274.6174   25155273.6604
 11  8 14  3  9  0.0000000  0  8G29G02G12G15G05G26G25G21
   2868894.68448   2271264.81346  21802170.7274                   21802168.0784
 -45101081.34048 -35093531.12545  22196232.1564                   22196227.4184
 -23472953.44947 -18247876.33645  22419029.9844                   22419027.0354
  25673000.16046  20046138.95344  23727636.9144                   23727634.5004
 -24794088.44148 -19275526.36346  20923751.3444                   20923748.5124
  14342226.56347  11212195.23444  22847901.5164                   22847899.2854
  -8250402.91848  -6387295.21146  21893328.2114   21893327.8954   33791746.68846
  26369756.07843  25127086.7194   25127085.5434
 11  8 14  3  9 30.0000000  0  8G29G02G12G15G05G26G25G21
   2704826.52748   2143419.53946  21770949.4614                   21770947.0234
 -45147789.12148 -35129926.82045  22187344.0084                   22187339.3794
 -23480750.90647 -18253952.27045  22417546.2504                   22417543.5234
  25485240.60547  19899832.91044  23691907.9454                   23691905.1804
 -24833018.20748 -19305861.22346  20916343.5864                   20916340.2624
  14165159.63347  11074221.04344  22814206.4694                   22814204.6914
  -8308491.09848  -6432558.71946  21882274.6094   21882274.1644   33643630.32846
  26254340.84843  25098901.2274   25098899.7584
 11  8 14  3 10  0.0000000  0  8G29G02G12G15G05G26G25G21
   2540965.23448   2015735.46146  21739767.9064                   21739765.3404
 -45194403.39847 -35166249.64845  22178474.1254                   22178468.4574
 -23488282.55547 -18259821.09445  22416113.0084                   22416110.2584
  25297508.88747  19753548.53944  23656183.5634                   23656180.9384
 -24871540.85948 -19335878.86746  20909012.3914                   20909009.6914
  13988364.28547  10936458.48444  22780563.4844                   22780561.3954
  -8366068.56248  -6477424.26246  21871317.6094   21871317.2274   33495520.33246
  26138930.48843  25070716.8054   25070714.8714
 11  8 14  3 10 30.0000000  0  8G29G02G12G15G05G26G25G21
   2377313.21948   1888214.45746  21708626.0314                   21708623.2424
 -45240923.78947 -35202499.32045  22169621.2034                   22169615.8794
 -23495551.02048 -18265484.82445  22414730.0634                   22414726.8984
  25109808.41047  19607288.53544  23620464.3284                   23620462.3164
 -24909658.27048 -19365580.72746  20901759.3754                   20901755.9024
  13811844.18447  10798910.38744  22746972.8524                   22746970.4144
  -8423136.85248  -6521893.05946  21860457.9844   21860457.7894   33347416.62146
  26023525.10243  25042533.4694   25042531.5904
 11  8 14  3 11  0.0000000  0  8G29G02G12G15G05G26G25G21
   2213873.35948   1760858.76646  21677524.2034                   21677521.6054
 -45287349.58247 -35238675.27045  22160787.0474                   22160782.1844
 -23502559.02347 -18270945.61745  22413396.1254                   22413393.8204
  24922141.77047  19461054.88744  23584752.8134                   23584750.8834
 -24947372.62948 -19394968.53146  20894582.5394                   20894579.3524
  13635603.54347  10661580.05544  22713435.6024                   22713433.2664
  -8479697.56248  -6565966.32446  21849694.8204   21849694.3714   33199319.12146
  25908124.57443  25014351.0554   25014350.0704
 11  8 14  3 11 30.0000000  0  8G29G02G12G15G05G26G25G21
   2050646.16448   1633668.78946  21646463.0394                   21646460.5744
 -45333682.73048 -35274779.03545  22151969.8594                   22151965.0784
 -23509311.56247 -18276207.32445  22412111.3134                   22412108.4534
  24734510.54747  19314848.85544  23549047.6174                   23549046.1174
 -24984688.11348 -19424045.50846  20887481.4304                   20887478.4184
  13459644.09847  10524468.83244  22679951.2734                   22679949.1764
  -8535754.52748  -6609647.07446  21839027.7504   21839027.6094   33051225.11346
  25792726.75443  24986169.1884   24986168.4454
 11  8 14  3 12  0.0000000  0  8G29G02G12G15G05G26G25G21
   1887634.72748   1506646.93046  21615442.9694                   21615440.4414
 -45379921.61747 -35310809.34845  22143170.7664                   22143165.5354
 -23515810.43447 -18281271.37945  22410874.5394                   22410871.5274
  24546919.08647  19168673.80944  23513350.0704                   23513348.2974
 -25021605.94148 -19452812.64146  20880456.2894                   20880452.9924
  13283970.71547  10387580.51245  22646521.9924                   22646519.7664
  -8591308.52048  -6652935.89146  21828455.9924   21828455.7774   32903135.35246
  25677332.27343  24957989.1024   24957987.4534
 11  8 14  3 12 30.0000000  0  8G29G02G12G15G05G26G25G21
   1724842.77748   1379796.09846  21584464.4694                   21584462.1604
 -45426064.51247 -35346764.85545  22134390.0394                   22134385.1174
 -23522056.99247 -18286138.82845  22409685.9774                   22409683.0124
  24359371.66847  19022533.07044  23477661.2814                   23477659.1094
 -25058126.71948 -19481270.36746  20873506.4224                   20873503.6054
  13108588.62947  10250919.19145  22613147.6804                   22613145.0904
  -8646359.96148  -6695833.10546  21817979.7584   21817979.7384   32755050.87546
  25561941.88743  24929809.5634   24929808.0784
 11  8 14  3 13  0.0000000  0  8G29G02G12G15G05G26G25G21
   1562271.19148   1253116.97346  21553528.5634                   21553525.4884
 -45472113.06648 -35382646.85945  22125627.2894                   22125622.6334
 -23528056.21147 -18290813.54345  22408544.3284                   22408541.7704
  24171869.65647  18876427.69944  23441980.8284                   23441978.8754
 -25094254.49648 -19509421.87146  20866631.8284                   20866628.5784
  12933499.86347  10114486.42245  22579829.5084                   22579827.5554
  -8700912.49648  -6738341.57046  21807598.8754   21807598.5944   32606969.42646
  25446553.82043  24901630.5474   24901628.7814
 11  8 14  3 13 30.0000000  0  8G29G02G12G15G05G26G25G21
   1399924.85548   1126613.37146  21522634.9144                   21522632.2894
 -45518064.18047 -35418452.93745  22116883.3054                   22116878.4614
 -23533808.38347 -18295295.75445  22407449.5474                   22407446.7194
  23984418.72747  18730362.13344  23406309.9304                   23406307.9414
 -25129989.09048 -19537267.00046  20859831.7664                   20859828.2304
  12758710.89847   9978287.25445  22546568.3914                   22546565.9654
  -8754965.44948  -6780460.73446  21797313.0864   21797312.9104   32458892.94946
  25331169.62943  24873452.2114   24873450.2504
 11  8 14  3 14  0.0000000  0  8G29G02G12G15G05G26G25G21
   1237804.32848   1000285.71546  21491784.3364                   21491781.7894
 -45563919.48048 -35454184.33245  22108157.3444                   22108152.6764
 -23539318.18047 -18299589.10545  22406401.5704                   22406398.5514
  23797020.04347  18584337.29344  23370649.0784                   23370646.8794
 -25165334.50448 -19564808.87546  20853105.6564                   20853102.0784
  12584223.37947   9842322.99645  22513364.3364                   22513361.6414
  -8808522.62548  -6822193.59846  21787121.5164   21787121.0984   32310819.35546
  25215787.71943  24845274.6954   24845273.0784
 11  8 14  3 14 30.0000000  0  8G29G02G12G15G05G26G25G21
   1075913.21148    874136.82046  21460977.4224                   21460974.8754
 -45609677.78948 -35489840.16045  22099449.8284                   22099444.7894
 -23544587.68047 -18303695.20345  22405398.4224                   22405395.4654
  23609677.66847  18438356.30944  23334999.1724                   23334996.8244
 -25200291.98048 -19592048.45746  20846453.1884                   20846450.3554
  12410042.25447   9706597.45345  22480218.8594                   22480216.4614
  -8861584.87148  -6863540.78946  21777023.9304   21777024.1024   32162749.32846
  25100408.56642  24817098.3284   24817095.8524
 11  8 14  3 15  0.0000000  0  8G29G02G12G15G05G26G25G21
    914249.72748    748165.30146  21430213.8914                   21430211.2304
 -45655342.77348 -35525423.27345  22090759.8594                   22090755.3594
 -23549623.85547 -18307619.51245  22404440.0234                   22404437.9224
  23422390.70347  18292418.49644  23299359.6094                   23299357.2344
 -25234867.98848 -19618990.78946  20839873.7504                   20839870.5434
  12236167.07047   9571110.32445  22447131.2114                   22447129.3204
  -8914158.39148  -6904507.16846  21767019.5474   21767019.1844   32014678.15646
  24985028.52343  24788921.4304   24788919.4304
 11  8 14  3 15 30.0000000  0  8G29G02G12G15G05G26G25G21
    752819.69548    622375.68846  21399494.6334                   21399492.0314
 -45700910.27348 -35560930.40645  22082088.4304                   22082083.5554
 -23554426.09847 -18311361.52345  22403526.3284                   22403523.7114
  23235165.77346  18146529.05544  23263731.5474                   23263729.4224
 -25269061.23848 -19645634.87546  20833367.1414                   20833363.6884
  12062605.25447   9435867.39145  22414103.3524                   22414101.3594
  -8966241.41448  -6945091.32846  21757108.5554   21757107.9694   31866609.14846
  24869650.20743  24760744.0004   24760742.7234
 11  8 14  3 16  0.0000000  0  8G29G02G12G15G05G26G25G21
    591624.14548    496768.79346  21368820.1884                   21368817.6644
 -45746381.70348 -35596362.69945  22073436.1334                   22073430.4024
 -23558998.56647 -18314924.48445  22402656.1094                   22402653.4414
  23048004.40647  18000689.11744  23228115.6884                   23228113.3204
 -25302875.36348 -19671983.53146  20826932.3674                   20826929.3014
  11889359.40647   9300870.66045  22381136.0944                   22381133.9224
  -9017837.48048  -6985296.05946  21747290.5084   21747289.9844   31718540.41446
  24754272.06343  24732567.0944   24732566.0944
 11  8 14  3 16 30.0000000  0  8G29G02G12G15G05G26G25G21
    430664.24248    371345.52046  21338190.3914                   21338187.7234
 -45791758.11748 -35631720.94545  22064801.4224                   22064796.4804
 -23563346.24247 -18318312.27745  22401829.2114                   22401826.1804
  22860908.50447  17854900.15644  23192512.6414                   23192510.0664
 -25336314.06648 -19698039.65246  20820568.9454                   20820565.7074
  11716431.54747   9166121.70745  22348228.7194                   22348226.7034
  -9068950.02348  -7025124.00046  21737563.8524   21737563.3284   31570469.87546
  24638892.53143  24704390.2974   24704388.6374
 11  8 14  3 17  0.0000000  0  8G29G02G12G15G05G26G25G21
   1845369.81648   1473713.53146  21607400.0084                   21607397.4304
 -44261615.25048 -34439401.85245  22355977.1954                   22355972.6054
 -21992049.46147 -17093925.18045  22700836.8524
  22700834.0084   24249309.95747  18936771.48044  23456716.5314   23456713.8714
 -23793956.33648 -18496202.46546  21114069.8524                   21114067.0004
  13119253.56347  10259229.78545  22615177.3364                   22615174.7624
  -7544157.13348  -5836973.69546  22027721.9774   22027722.0394   32997824.67646
  25751117.15643  24976007.2344   24976005.5784
 11  8 14  3 17 30.0000000  0  8G29G02G12G15G05G26G25G21
   1684892.92248   1348666.62546  21576862.5554                   21576859.4144
 -44306795.74648 -34474607.43445  22347379.9384                   22347375.0004
 -21995951.08247 -17096965.42645  22700094.2344
  22700091.3634   24062359.16047  18791095.62944  23421140.6884   23421138.4694
 -23826646.41048 -18521675.23846  21107849.3134                   21107846.2034
  12946977.89547  10124989.05545  22582393.7814                   22582391.8634
  -7594304.03948  -5876049.19946  22018179.5394   22018179.0004   32849754.33246
  25635737.79343  24947829.4924   24947828.6214
 11  8 14  3 18  0.0000000  0  8G29G02G12G15G05G26G25G21
   1524660.28148   1223810.05546  21546371.2504                   21546368.3834
 -44351878.87147 -34509737.15645  22338800.6414                   22338795.6484
 -21999634.82047 -17099835.87145  22699393.3134
  22699390.4774   23875484.44947  18645479.05544  23385579.4924   23385577.3794
 -23858966.41448 -18546859.65246  21101698.7974                   21101695.6804
  12775032.87547   9991005.95745  22549673.7504                   22549672.0164
  -7643972.16848  -5914751.62946  22008727.9844   22008727.4414   32701682.60946
  25520357.32043  24919652.2664   24919650.9654
 11  8 14  3 18 30.0000000  0  8G29G02G12G15G05G26G25G21
   1364673.76248   1099145.27046  21515926.4844                   21515923.9654
 -44396864.84047 -34544791.16445  22330240.2194                   22330235.6334
 -22003104.68747 -17102539.66045  22698733.2344
  22698730.0904   23688688.37147  18499923.73044  23350034.0784   23350031.8164
 -23890919.63748 -18571758.25446  21095618.6724                   21095615.4414
  12603421.66047   9857282.95345  22517017.6024                   22517014.8014
  -7693164.28948  -5953083.15246  21999367.0704   21999366.6294   32553608.34446
  25404974.91043  24891476.0864   24891473.1564
 11  8 14  3 19  0.0000000  0  8G29G02G12G15G05G26G25G21
   1204936.43448    974674.65246  21485529.3524                   21485527.0474
 -44441752.34048 -34579768.43445  22321698.3134                   22321693.9024
 -22006362.59847 -17105078.30145  22698113.1254
  22698110.1914   23501974.83247  18354432.74644  23314503.2424   23314500.4384
 -23922507.37948 -18596372.07846  21089607.9774                   21089604.7584
  12432148.97347   9723823.74245  22484425.3054                   22484422.9224
  -7741881.64148  -5991044.72346  21990096.4614   21990096.2114   32405531.89846
  25289590.79343  24863297.0084   24863295.5274
 11  8 14  3 19 30.0000000  0  8G29G02G12G15G05G26G25G21
   1045447.82048    850397.84046  21455179.8914                   21455177.3794
 -44486543.98848 -34614671.03145  22313174.7274                   22313170.1294
 -22009414.48847 -17107456.39545  22697532.5164
  22697529.2344   23315344.28147  18209006.41845  23278988.2664   23278986.1374
 -23953734.83648 -18620705.15646  21083665.3134                   21083662.2544
  12261215.46547   9590628.84045  22451898.0944                   22451894.9414
  -7790129.35948  -6028640.35246  21980915.1804   21980914.9144   32257449.89546
  25174202.32443  24835118.6094   24835116.2304
 11  8 14  3 20  0.0000000  0  8G29G02G12G15G05G26G25G21
    886214.41448    726319.88346  21424879.0164                   21424875.8954
 -44531235.45747 -34649495.55945  22304670.2734                   22304665.5314
 -22012259.38347 -17109673.19945  22696991.1334
  22696988.6724   23128803.64847  18063650.16045  23243491.0784   23243489.0004
 -23984600.29348 -18644756.16046  21077792.0704                   21077788.6414
  12090629.07447   9457704.41045  22419436.1954                   22419433.8244
  -7837905.59447  -6065868.57446  21971823.5944   21971823.6844   32109365.80546
  25058812.25043  24806938.2504   24806936.7544
 11  8 14  3 20 30.0000000  0  8G29G02G12G15G05G26G25G21
    727235.85548    602440.50846  21394625.9924                   21394623.3954
 -44575828.82047 -34684243.62945  22296184.4454                   22296179.7234
 -22014903.00447 -17111733.15645  22696487.9534
  22696485.1094   22942353.55547  17918364.43845  23208010.2974   23208008.6134
 -24015108.98448 -18668529.16446  21071986.3524                   21071983.2194
  11920390.67647   9325051.14845  22387041.0084                   22387038.9414
  -7885215.10548  -6102733.12946  21962821.0704   21962820.3134   31961277.07046
  24943418.53543  24778757.5084   24778756.1134
 11  8 14  3 21  0.0000000  0  8G29G02G12G15G05G26G25G21
    568513.66048    478760.90246  21364422.1414                   21364419.3364
 -44620325.29747 -34718916.21145  22287716.9694                   22287712.2894
 -22017349.31647 -17113639.36745  22696022.6174
  22696019.4774   22755996.12947  17773150.94545  23172548.6254   23172545.8014
 -24045264.20748 -18692026.73446  21066248.1254                   21066244.5784
  11750502.61747   9192670.85945  22354712.3284                   22354709.5824
  -7932061.29348  -6139236.63346  21953906.3134   21953905.9454   31813181.50846
  24828019.51243  24750576.5554   24750574.4184
 11  8 14  3 21 30.0000000  0  8G29G02G12G15G05G26G25G21
    410049.94948    355282.71946  21334267.6484                   21334264.7584
 -44664724.38348 -34753512.91445  22279268.4304                   22279263.5864
 -22019601.64147 -17115394.43445  22695593.6954
  22695590.9064   22569733.91847  17628011.63345  23137103.3984   23137101.2894
 -24075068.61748 -18715250.93446  21060575.9614                   21060573.0664
  11580968.79347   9060566.61345  22322450.8284                   22322448.3954
  -7978446.52348  -6175380.96546  21945079.4304   21945079.1564   31665078.82846
  24712614.94143  24722393.0944   24722391.3914
 11  8 14  3 22  0.0000000  0  8G29G02G12G15G05G26G25G21
    251849.24248    232009.46546  21304162.9384                   21304160.1214
 -44709023.89548 -34788032.00445  22270838.5084                   22270833.6254
 -22021661.05947 -17116999.18745  22695201.6954
  22695199.0634   22383572.10547  17482950.53945  23101678.1954   23101675.8054
 -24104522.64148 -18738202.12546  21054971.4064                   21054968.0274
  11411794.64847   8928742.63745  22290258.5394                   22290255.6804
  -8024371.15248  -6211166.39146  21936340.1564   21936340.2194   31516970.46946
  24597205.94943  24694208.6954   24694207.5274
 11  8 14  3 22 30.0000000  0  8G29G02G12G15G05G26G25G21
     93914.72748    108943.63746  21274108.7734                   21274105.9614
 -44753222.41448 -34822472.39845  22262427.6174                   22262422.3554
 -22023529.49647 -17118455.12945  22694846.3524
  22694843.6214   22197514.85947  17337970.93045  23066272.4224   23066269.8674
 -24133627.37148 -18760881.13746  21049433.0554                   21049429.8324
  11242984.89147   8797202.59045  22258134.6024                   22258132.0474
  -8069836.53948  -6246593.95746  21927688.6414   21927688.6884   31368856.84046
  24481792.83643  24666023.3524   24666022.1024
 11  8 14  3 23  0.0000000  0  8G29G02G12G15G05G26G25G21
    -63752.62948    -13914.01246  21244106.0084                   21244103.1454
 -44797321.00848 -34856834.95745  22254036.0004                   22254031.0984
 -22025211.41047 -17119765.71945  22694526.5394
  22694523.4344   22011563.84047  17193074.09444  23030887.3204   23030884.8054
 -24162386.91048 -18783291.15246  21043960.1954                   21043957.1484
  11074541.50047   8665948.04345  22226080.9064                   22226078.8094
  -8114846.29748  -6281666.49246  21919123.4534   21919123.2194   31220736.24246
  24366374.30144  24637837.8524   24637835.1454
 11  8 14  3 23 30.0000000  0  8G29G02G12G15G05G26G25G21
   -221150.51248   -136561.68446  21214154.1484                   21214151.2344
 -44841319.53948 -34891119.52345  22245663.1724                   22245658.4964
 -22026709.77347 -17120933.27745  22694240.9304
  22694238.7814   21825722.10547  17048262.43044  22995522.5704   22995520.3094
 -24190803.94148 -18805434.29746  21038552.6254                   21038549.3674
  10906468.40647   8534982.01245  22194097.3754                   22194095.4654
  -8159402.93448  -6316385.94146  21910644.5634   21910644.5124   31072608.19946
  24250949.93043  24609649.8984   24609646.9924
 11  8 14  3 24  0.0000000  0  8G29G02G12G15G05G26G25G21
   -378275.63748   -258996.81246  21184253.9924                   21184251.1024
 -44885217.11748 -34925325.43045  22237310.4694                   22237305.3984
 -22028027.08647 -17121959.77745  22693990.8054
  22693987.9104   21639993.57447  16903538.95744  22960179.4694   22960176.8834
 -24218879.74648 -18827311.53546  21033209.7584                   21033206.5784
  10738769.70747   8404307.73045  22162185.0234                   22162183.3164
  -8203508.05948  -6350753.56246  21902251.9304   21902251.2664   30924472.82846
  24135519.85243  24581460.2974   24581458.0004
 11  8 14  3 24 30.0000000  0  8G29G02G12G15G05G26G25G21
   -535126.82848   -381218.48046  21154406.1024                   21154403.4694
 -44929014.28147 -34959453.08245  22228975.6954                   22228970.6604
 -22029167.39547 -17122848.34445  22693773.2344
  22693771.0904   21454380.40647  16758905.37144  22924858.8444   22924855.8094
 -24246617.76648 -18848925.57846  21027931.5784                   21027928.1334
  10571448.28547   8273927.43845  22130345.2504                   22130343.2774
  -8247164.85548  -6384771.82846  21893944.0634   21893943.9224   30776328.67246
  24020082.94543  24553269.1564   24553267.0234
 11  8 14  3 25  0.0000000  0  8G29G02G12G15G05G26G25G21
   -691698.88748   -503222.64146  21124611.4384                   21124608.7304
 -44972707.93048 -34993500.08645  22220661.1884                   22220656.5664
 -22030131.17247 -17123599.35945  22693590.4694
  22693587.6254   21268888.28947  16614366.12544  22889559.7734   22889557.7584
 -24274017.99248 -18870276.39546  21022717.6174                   21022714.0314
  10404509.97347   8143845.65645  22098578.2274                   22098576.1604
  -8290373.31648  -6418440.75846  21885722.0234   21885721.4304   30628177.74246
  23904640.76243  24525077.1954   24525075.1884
 11  8 14  3 25 30.0000000  0  8G29G02G12G15G05G26G25G21
    727433.70348    602594.99646  21394663.1484                   21394660.8524
 -43440878.35547 -33799866.62945  22512158.7424                   22512153.5274
 -20455503.30147 -15896616.62145  22993232.1724                   22993229.2854
  22658944.17247  17697526.61345  23154079.3444                   23154076.5204
 -22725663.98848 -17663766.77746  21317359.6484                   21317356.2344
  11813382.13747   9241668.13345  22366677.4304                   22366675.4384
  -6757716.30148  -5224162.55546  22177376.8524   22177376.8874   32055442.87546
  25016795.50443  24796676.7344   24796674.4104
 11  8 14  3 26  0.0000000  0  8G29G02G12G15G05G26G25G21
    571421.93448    481027.43046  21364975.3834                   21364972.6374
 -43484369.02047 -33833755.46145  22503882.6644                   22503877.5084
 -20456127.96947 -15897103.39145  22993113.2114                   22993110.2624
  22473698.24647  17553179.17644  23118827.8834                   23118824.9804
 -22752400.85248 -17684600.69146  21312271.4224                   21312268.5434
  11647216.04747   9112188.09045  22335056.8204                   22335054.9924
  -6800040.07448  -5257142.10546  22169322.5004   22169322.6374
  31907272.48046  24901338.14143  24768480.5474                   24768478.3674
 11  8 14  3 26 30.0000000  0  8G29G02G12G15G05G26G25G21
    415693.83248    359680.89846  21335341.4534                   21335338.3914
 -43527757.78147 -33867564.88745  22495625.8204                   22495620.8244
 -20456587.78547 -15897461.70345  22993025.6414                   22993022.8524
  22288580.30947  17408931.48044  23083601.1564                   23083598.3204
 -22778809.55548 -17705178.89546  21307246.1804                   21307243.3014
  11481441.68847   8983013.28145  22303511.6724                   22303509.1914
  -6841925.29348  -5289779.93746  22161352.0084   22161352.0234
  31759091.59446  24785872.62143  24740282.7974                   24740279.9264
 11  8 14  3 27  0.0000000  0  9G29G02G12G18G15G05G26G25G21
    260250.47748    238556.24246  21305761.4454                   21305758.5744
 -43571045.38347 -33901295.46145  22487388.7114                   22487383.7504
 -20456886.63747 -15897694.57445  22992968.7734                   22992965.7234
  39117963.57456  30632809.35952  24761836.3674                   24761834.8594
  22103592.03147  17264784.83245  23048399.2114                   23048396.7584
 -22804893.70348 -17725504.19946  21302282.6724                   21302279.3674
  11316061.24247   8854145.41845  22272040.5084                   22272038.3634
  -6883375.50848  -5322078.80146  22153464.8204   22153464.2734
  31610898.96146  24670397.98043  24712082.8674                   24712079.3984
 11  8 14  3 27 30.0000000  0  9G29G02G12G18G15G05G26G25G21
    105094.99648    117655.89846  21276236.4454                   21276233.5944
 -43614230.51247 -33934946.19945  22479170.6724                   22479165.9344
 -20457027.10947 -15897804.04345  22992942.0944                   22992939.5824
  38937315.35946  30492044.68042  24727459.9144                   24727458.5394
  21918737.24247  17120742.18845  23013222.2974                   23013219.4774
 -22830655.12148 -17745578.03146  21297379.9844                   21297377.0354
  11151079.04747   8725587.89545  22240645.2584                   22240643.0824
  -6924392.55548  -5354040.12146  22145659.7504   22145659.0744
  31462695.30946  24554914.72343  24683880.4144                   24683877.4614
 11  8 14  3 28  0.0000000  0  9G29G02G12G18G15G05G26G25G21
    -49774.70748     -3021.76646  21246765.3984                   21246762.8054
 -43657317.86347 -33968520.75445  22470971.2664                   22470967.0394
 -20457017.19547 -15897796.34845  22992944.0394                   22992941.1724
  38756827.80146  30351405.31343  24693114.7664                   24693112.3984
  21734014.42247  16976802.37145  22978071.2734                   22978068.0634
 -22856101.03148 -17765406.00446  21292538.0704                   21292534.6294
  10986493.77747   8597339.65645  22209325.8674                   22209323.6374
  -6964983.69948  -5385669.57046  22137935.3284   22137935.1024
  31314473.77046  24439417.53143  24655674.5394                   24655671.8364
 11  8 14  3 28 30.0000000  0  9G29G02G12G18G15G05G26G25G21
   -204355.71948   -123474.47346  21217349.7034                   21217346.9964
 -43700306.51647 -34002018.39545  22462791.1174                   22462786.6764
 -20456859.00047 -15897673.08645  22992974.3674                   22992970.9304
  38576503.21946  30210892.85243  24658799.4694                   24658797.5434
  21549427.44547  16832968.42645  22942944.7424                   22942942.1484
 -22881233.12148 -17784989.43746  21287755.4774                   21287752.5274
  10822309.71147   8469404.03945  22178083.1484                   22178079.8954
  -7005150.52748  -5416968.41446  22130291.6414   22130291.5044
  31166235.29346  24323907.15243  24627464.9844                   24627463.1604
 11  8 14  3 29  0.0000000  0  9G29G02G12G18G15G05G26G25G21
   -358644.66448   -243699.59446  21187989.2584                   21187986.5044
 -43743194.85947 -34035437.88345  22454629.4384                   22454625.0274
 -20456554.33247 -15897435.69945  22993031.9614                   22993029.4884
  38396343.60946  30070508.98043  24624515.7664                   24624514.2974
  21364980.55147  16689243.62145  22907845.3444                   22907843.0984
 -22906052.60948 -17804329.29346  21283032.6254                   21283029.9264
  10658531.68847   8341784.81645  22146916.9144                   22146914.3954
  -7044894.62548  -5447937.82446  22122728.3674   22122727.6524
  31017980.73046  24208384.19942  24599252.5164                   24599250.9024
 11  8 14  3 29 30.0000000  0  9G29G02G12G18G15G05G26G25G21
   -512637.48448   -363693.97346  21158685.3914                   21158682.5704
 -43785981.01247 -34068777.73045  22446487.2274                   22446483.0474
 -20456104.96147 -15897085.55545  22993117.5944                   22993114.5234
  38216352.05545  29930256.04342  24590263.7814                   24590262.4964
  21180678.14147  16545631.40645  22872774.0394                   22872771.4494
 -22930560.75048 -17823426.53946  21278368.6414                   21278365.7504
  10495164.37548   8214485.62945  22115829.1254                   22115826.3954
  -7084217.01248  -5478578.64546  22115245.8364   22115245.5164
  30869711.03946  24092849.47342  24571037.8364                   24571035.9264
 11  8 14  3 30  0.0000000  0  9G29G02G12G18G15G05G26G25G21
   -666331.13748   -483455.24246  21129438.3444                   21129435.5594
 -43828664.03547 -34102037.20745  22438365.3284                   22438360.4184
 -20455513.05147 -15896624.33245  22993229.9534                   22993227.7424
  38036530.63746  29790135.65243  24556045.5864                   24556044.0824
  20996524.26247  16402134.92645  22837730.8834                   22837728.5124
 -22954758.85548 -17842282.19946  21273764.2664                   21273761.1724
  10332212.30548   8087510.00445  22084820.2734                   22084817.8284
  -7123119.46548  -5508892.24645  22107842.8364   22107842.2814
  30721426.61746  23977303.29743  24542820.4454                   24542818.1954
 11  8 14  3 30 30.0000000  0  9G29G02G12G18G15G05G26G25G21
   -819725.02748   -602982.93046  21100248.6024                   21100246.0744
 -43871245.31647 -34135217.42245  22430262.3984                   22430257.5394
 -20454783.56247 -15896055.91845  22993369.2274                   22993365.8984
  37856878.54746  29650147.19543  24521858.5394                   24521857.5204
  20812520.37947  16258755.33645  22802715.8134                   22802713.5274
 -22978651.31648 -17860899.69546  21269217.4924                   21269214.6804
  10169677.01648   7960859.16445  22053890.6724                   22053888.0234
  -7161606.34448  -5538882.02346  22100518.7974   22100518.2704
  30573125.34846  23861743.98042  24514599.7504                   24514597.2624
 11  8 14  3 31  0.0000000  0  9G29G02G12G18G15G05G26G25G21
   -972816.07048   -722274.64146  21071116.4064                   21071113.8244
 -43913723.30547 -34168317.14845  22422178.9454                   22422174.3634
 -20453918.70347 -15895382.00845  22993533.6884                   22993530.8444
  37677398.41846  29510292.78143  24487704.3134                   24487703.5314
  20628670.16047  16115495.47345  22767730.2894                   22767728.0554
 -23002239.96548 -17879280.45746  21264728.6644                   21264725.6604
  10007562.94547   7834536.52745  22023041.5784                   22023038.5164
  -7199679.43448  -5568549.36346  22093274.2584   22093273.4344
  30424807.38746  23746171.63343  24486375.7974                   24486373.7854
 11  8 14  3 31 30.0000000  0  9G29G02G12G18G15G05G26G25G21
  -1125599.15248   -841326.38346  21042042.7814                   21042040.1564
 -43956095.50447 -34201334.44545  22414115.7344                   22414110.7344
 -20452919.04747 -15894603.05944  22993723.2974                   22993720.5234
  37498093.43446  29370574.78943  24453583.1094                   24453582.3244
  20444979.52747  15972359.96145  22732775.3524                   22732772.8404
 -23025524.54748 -17897424.27746  21260297.5944                   21260294.7854
   9845875.95747   7708546.68045  21992273.7504                   21992271.0084
  -7237338.91048  -5597894.41846  22086107.8834   22086106.7344
  30276474.93046  23630588.02043  24458148.5084                   24458147.1374
 11  8 14  3 32  0.0000000  0  9G29G02G12G18G15G05G26G25G21
  -1278073.48448   -960137.53546  21013027.7114                   21013024.9264
 -43998362.72747 -34234269.95345  22406072.6484                   22406068.2664
 -20451789.05547 -15893722.57044  22993938.7424                   22993935.8554
  37318963.64146  29230993.29743  24419496.0234                   24419494.6054
  20261449.92647  15829349.92645  22697851.0784                   22697848.3634
 -23048509.08248 -17915334.30146  21255923.9924                   21255920.7344
   9684617.98847   7582891.12545  21961587.2114                   21961584.0514
  -7274588.78148  -5626920.28146  22079019.3674   22079018.7544
  30128125.89146  23514991.46643  24429918.8524                   24429916.7234
 11  8 14  3 32 30.0000000  0  9G29G02G12G18G15G05G26G25G21
  -1430236.85948  -1078706.39846  20984072.2664                   20984069.3324
 -44040525.04347 -34267123.70745  22398049.5004                   22398044.6374
 -20450532.05947 -15892743.09044  22994178.0944                   22994174.6294
  37140009.93846  29091549.05943  24385442.8594                   24385440.4104
  20078084.47347  15686467.79345  22662957.0084                   22662954.5904
 -23071196.12148 -17933012.51246  21251606.8674                   21251603.5394
   9523792.30547   7457572.44145  21930982.8914                   21930980.5044
  -7311431.78148  -5655629.11745  22072008.4694   22072007.9534
  29979760.03546  23399381.80943  24401685.9454                   24401683.3444
 11  8 14  3 33  0.0000000  0  9G29G02G12G18G15G05G26G25G21
  -1582086.85948  -1197031.06646  20955176.1254                   20955172.8284
 -44082581.86747 -34299895.25845  22390046.5474                   22390041.6374
 -20449150.79747 -15891666.79345  22994440.4774                   22994438.0904
  36961233.94546  28952243.20743  24351422.3594                   24351420.6024
  19894886.41047  15543716.10545  22628096.0004                   22628092.9884
 -23093588.03148 -17950460.75046  21247345.7664                   21247342.4414
   9363402.69147   7332593.53145  21900461.6254                   21900458.6644
  -7347870.41048  -5684022.85946  22065074.2664   22065073.7894
  29831377.05146  23283758.79743  24373449.3364                   24373446.9184
 11  8 14  3 33 30.0000000  0  9G29G02G12G18G15G05G26G25G21
  -1733621.34448  -1315109.87946  20926340.0554                   20926336.9304
 -44124533.07047 -34332584.52045  22382063.0474                   22382058.7584
 -20447648.77347 -15890496.40644  22994727.0314                   22994723.6724
  36782636.63746  28813076.67243  24317436.7504                   24317435.2974
  19711858.52347  15401097.01245  22593267.1334                   22593263.8284
 -23115687.41448 -17967681.03546  21243140.6254                   21243137.0514
   9203452.24647   7207956.83645  21870024.0784                   21870021.5984
  -7383907.64548  -5712103.82445  22058216.5784   22058215.9774
  29682976.09046  23168121.77043  24345210.1884                   24345207.3204
 11  8 14  3 34  0.0000000  0  9G29G02G12G18G15G05G26G25G21
  -1884838.10548  -1432941.11346  20897564.5704                   20897561.0514
 -44166378.39847 -34365191.27045  22374100.2974                   22374095.7664
 -20446028.82847 -15889234.10945  22995035.1094                   22995032.0084
  36604218.98846  28674050.11743  24283484.8754                   24283482.9494
  19529003.71947  15258612.78145  22558470.5864                   22558467.8754
 -23137497.03948 -17984675.54346  21238990.0314                   21238986.7234
   9043944.12147   7083664.80945  21839670.3284                   21839668.1564
  -7419546.41048  -5739874.28546  22051434.7114   22051434.0354
  29534556.08246  23052469.89843  24316965.9534                   24316963.6254
 11  8 14  3 34 30.0000000  0  9G29G02G12G18G15G05G26G25G21
   -460310.43048   -322919.53146  21168643.1334                   21168640.0744
 -42632696.98447 -33170114.86345  22665950.0314                   22665945.4144
 -18868875.04347 -14660283.10545  23295157.5704                   23295154.8164
  38001407.57446  29762768.61743  24549360.4384                   24549358.7384
  20921750.51647  16343870.06645  22823501.7894                   22823498.7424
 -21583599.39148 -16773846.20346  21534686.9224                   21534683.6294
  10460306.27347   8187323.63745  22109195.4144                   22109192.8674
  -5879368.86747  -4539735.95345  22344520.6884   22344520.6024
  30961541.46947                  24164406.66443  24588512.9454   24588509.6134
 11  8 14  3 35  0.0000000  0  9G29G02G12G18G15G05G26G25G21
   -610882.34448   -440248.28146  21139989.9614                   21139986.7584
 -42674327.31247 -33202554.07445  22658028.2734                   22658023.5204
 -18867026.74247 -14658842.87945  23295508.9534                   23295506.5354
  37823355.35546  29624026.77743  24515478.3204                   24515476.1094
  20739253.48447  16201664.60245  22788773.7734                   22788770.4024
 -21604834.66848 -16790393.16846  21530645.9224                   21530642.9304
  10301695.19547   8063730.61345  22079013.1024                   22079010.2344
  -5914216.32847  -4566889.82046  22337889.1884   22337889.4414
  30813085.51246                  24048726.79743  24560262.1334   24560259.3404
 11  8 14  3 35 30.0000000  0  9G29G02G12G18G15G05G26G25G21
   -761129.69148   -557324.11346  21111399.0634                   21111395.7424
 -42715850.70747 -33234909.97345  22650126.4774                   22650122.2704
 -18865069.84847 -14657318.05545  23295881.4064                   23295878.6484
  37645486.13746  29485427.50443  24481630.0554                   24481628.2034
  20556938.94547  16059601.37145  22754080.3524                   22754077.4804
 -21625787.44948 -16806720.00446  21526658.8834                   21526655.7344
  10143536.30947   7940489.93845  22048916.1804                   22048913.2624
  -5948673.51647  -4593739.58245  22331332.4844   22331332.2194
  30664609.50446                  23933031.29343  24532007.5314   24532005.0864
 11  8 14  3 36  0.0000000  0  9G29G02G12G18G15G05G26G25G21
   -911049.62548   -674144.82046  21082869.9304                   21082866.9924
 -42757266.46947 -33267182.00445  22642245.7894                   22642240.6174
 -18863007.17247 -14655710.78945  23296274.2274                   23296271.3524
  37467801.66046  29346972.21143  24447818.1024                   24447815.9694
  20374810.76647  15917683.36345  22719422.4064                   22719419.6294
 -21646459.95348 -16822828.44546  21522725.1804                   21522721.8834
   9985833.85247   7817604.91845  22018906.3594                   22018903.6764
  -5982742.59847  -4620286.93045  22324848.8284   22324848.7704
  30516113.79347                  23817320.42243  24503750.4384   24503747.6024
 11  8 14  3 36 30.0000000  0  9G29G02G12G18G15G05G26G25G21
  -1060636.34848   -790705.87146  21054404.5704                   21054401.8244
 -42798570.98447 -33299367.34845  22634386.2034                   22634381.0824
 -18860838.55147 -14654020.95745  23296686.7114                   23296683.9774
  37290306.58646  29208664.51243  24414042.4694                   24414039.8874
  20192874.75047  15775915.05945  22684800.8134                   22684798.1414
 -21666851.29748 -16838717.80146  21518844.7974                   21518841.2194
   9828593.92648   7695080.32445  21988984.5314                   21988982.3714
  -6016423.11747  -4646531.49245  22318439.7664   22318439.9184
  30367600.67647                  23701596.00044  24475488.9924   24475486.2894
 11  8 14  3 37  0.0000000  0  9G29G02G12G18G15G05G26G25G21
  -1209889.86748   -907007.28546  21026002.7664                   21025999.6844
 -42839766.18747 -33331467.52045  22626546.1024                   22626541.5904
 -18858569.33247 -14652252.73845  23297118.2894                   23297115.7974
  37112999.59846  29070503.34043  24380301.1644                   24380299.1484
  20011131.66047  15634297.11345  22650215.7734                   22650213.3914
 -21686966.32848 -16854391.85246  21515016.7894                   21515013.5864
   9671817.92247   7572917.21945  21959150.9454                   21959148.4614
  -6049720.22747  -4672477.29745  22312103.7734   22312103.2274
  30219067.60947                  23585856.00844  24447223.9454   24447221.4574
 11  8 14  3 37 30.0000000  0  9G29G02G12G18G15G05G26G25G21
  -1358809.98448  -1023048.90246  20997663.8984                   20997661.2584
 -42880853.70747 -33363483.78545  22618727.5704                   22618723.0004
 -18856204.48847 -14650410.02344  23297568.2664                   23297565.6684
  36935879.63346  28932487.91843  24346596.5704                   24346594.4534
  19829582.81347  15492830.53145  22615668.8754                   22615666.2034
 -21706809.69548 -16869854.21146  21511241.0554                   21511237.3284
   9515506.82448   7451116.37945  21929406.1644                   21929403.7664
  -6082638.71547  -4698128.07045  22305839.6484   22305839.4534
  30070512.35946                  23470098.76644  24418954.4844   24418952.2664
 11  8 14  3 38  0.0000000  0  9G29G02G12G18G15G05G26G25G21
  -1507396.05548  -1138830.21946  20969389.3594                   20969386.3594
 -42921834.55547 -33395416.91845  22610929.7344                   22610924.1094
 -18853748.52347 -14648496.29344  23298036.3204                   23298033.6024
  36758946.72346  28794618.23843  24312927.3594                   24312925.2704
  19648229.85547  15351516.57445  22581157.9924                   22581155.5984
 -21726385.13748 -16885107.78946  21507515.7114                   21507512.6954
   9359662.66848   7329679.38345  21899750.1954                   21899747.3204
  -6115182.72347  -4723487.05545  22299646.8054   22299646.5124
  29921932.98046                  23354322.69944  24390680.7194   24390678.8984
 11  8 14  3 38 30.0000000  0  9G29G02G12G18G15G05G26G25G21
  -1655640.41848  -1254345.27046  20941179.4454                   20941176.1764
 -42962703.11347 -33427262.57445  22603151.9694                   22603147.6294
 -18851198.89147 -14646509.58645  23298521.1884                   23298518.7504
  36582207.12946  28656899.19143  24279294.4924                   24279292.4224
  19467081.36747  15210361.94145  22546686.7424                   22546684.3164
 -21745689.72748 -16900150.32846  21503842.1644                   21503839.1054
   9204294.00047   7208612.90645  21870184.3834                   21870181.8754
  -6147349.73047  -4748552.25845  22293525.8444   22293525.1214
  29773334.51246                  23238531.77344  24362403.7504   24362400.9454
 11  8 14  3 39  0.0000000  0  9G29G02G12G18G15G05G26G25G21
  -1803540.82448  -1369592.30546  20913034.5314                   20913031.8874
 -43003459.22347 -33459020.58645  22595396.7894                   22595391.8324
 -18848559.07047 -14644452.59844  23299023.2114                   23299020.6524
  36405661.84846  28519331.53943  24245699.0784                   24245696.6174
  19286139.85947  15069368.60245  22512254.8364                   22512252.6954
 -21764726.23448 -16914983.96146  21500219.6254                   21500216.5234
   9049403.75047   7087919.22745  21840709.4064                   21840707.0944
  -6179142.77747  -4773326.06245  22287475.1564   22287475.6254
  29624716.18046                  23122725.37143  24334122.3134   24334119.7384
 11  8 14  3 39 30.0000000  0  9G29G02G12G18G15G05G26G25G21
  -1951096.23448  -1484570.52046  20884955.6024                   20884952.4574
 -43044103.90247 -33490691.77345  22587662.1724                   22587657.8054
 -18845833.77347 -14642329.00044  23299542.3444                   23299539.5594
  36229310.37546  28381914.90243  24212140.3594                   24212138.2894
  19105407.52047  14928538.24645  22477863.0314                   22477860.0514
 -21783498.57848 -16929611.76246  21496647.1884                   21496644.1024
   8894993.79347   6967599.78945  21811326.8284                   21811324.2734
  -6210566.20347  -4797811.85245  22281496.2974   22281496.0004
  29476076.19146                  23006902.08243  24305837.2974   24305834.5274
 11  8 14  3 40  0.0000000  0  9G29G02G12G18G15G05G26G25G21
  -2098305.93448  -1599279.34446  20856942.4614                   20856939.3014
 -43084638.23447 -33522276.97745  22579948.9304                   22579944.1484
 -18843027.21547 -14640142.10244  23300075.6724                   23300073.4774
  36053152.52046  28244649.14843  24178618.5004                   24178616.3634
  18924885.60547  14787871.85245  22443509.9304                   22443507.4614
 -21802010.48448 -16944036.62146  21493124.7974                   21493121.5664
   8741065.82447   6847655.93845  21782035.0554                   21782032.1374
  -6241624.24647  -4822012.93045  22275585.4924   22275585.2304
  29327412.71946                  22891060.46543  24277547.6804   24277544.5044
 11  8 14  3 40 30.0000000  0  9G29G02G12G18G15G05G26G25G21
  -2245167.03148  -1713716.54346  20828995.9614                   20828992.7774
 -43125061.15647 -33553775.35245  22572256.4454                   22572251.9184
 -18840141.75047 -14637893.71944  23300625.1414                   23300622.3204
  35877190.19546  28107535.77043  24145134.1484                   24145132.0314
  18744578.16047  14647372.57045  22409199.2114                   22409196.2974
 -21820263.94948 -16958260.09446  21489651.6254                   21489648.3444
   8587623.82047   6728090.76245  21752835.9064                   21752832.9884
  -6272319.09047  -4845930.98846  22269744.9454   22269744.6564
  29178725.77746                  22775200.59043  24249252.9454   24249250.2624
 11  8 14  3 41  0.0000000  0  9G29G02G12G18G15G05G26G25G21
  -2391675.99248  -1827879.34846  20801116.0084                   20801113.1914
 -43165371.02347 -33585185.64545  22564585.8284                   22564581.6214
 -18837179.13347 -14635585.19944  23301189.4144                   23301186.4304
  35701425.71546  27970576.52043  24111686.8054                   24111685.4574
  18564489.02347  14507043.40245  22374929.1804                   22374926.5904
 -21838260.48448 -16972283.37146  21486226.5634                   21486223.0904
   8434672.06647   6608907.59445  21723729.9384                   21723727.1884
  -6302652.39147  -4869567.32045  22263972.7114   22263972.1254
  29030016.33246                  22659323.12943  24220954.9694   24220951.7154
 11  8 14  3 41 30.0000000  0  9G29G02G12G18G15G05G26G25G21
  -2537832.03548  -1941767.14546  20773303.5234                   20773300.6684
 -43205569.17647 -33616508.89545  22556935.9774                   22556931.5234
 -18834144.40247 -14633220.46944  23301766.4304                   23301763.3404
  35525858.17646  27833770.73443  24078277.4694                   24078275.3714
  18384620.25447  14366885.93845  22340701.2814                   22340698.1374
 -21856003.68748 -16986109.23846  21482849.7114                   21482846.8754
   8282212.44147   6490107.91045  21694717.7344                   21694715.0274
  -6332628.60547  -4892925.41445  22258268.4454   22258268.0164
  28881282.55546                  22543426.71543  24192651.4064   24192648.4694
 11  8 14  3 42  0.0000000  0  9G29G02G12G18G15G05G26G25G21
  -2683634.28548  -2055379.27046  20745558.1724                   20745555.1994
 -43245656.30547 -33647745.61745  22549308.6804                   22549303.3914
 -18831041.59847 -14630802.73044  23302356.7274                   23302353.7344
  35350487.47746  27697118.37143  24044905.6644                   24044903.2274
  18204973.45347  14226901.44945  22306515.6564                   22306512.6414
 -21873497.27748 -16999740.60546  21479521.0554                   21479518.0234
   8130246.65247   6371693.02345  21665799.6254                   21665797.2974
  -6362251.90247  -4916008.50045  22252630.9224   22252631.1334
  28732522.68446                  22427510.00443  24164343.4774   24164340.0984
